[[{"header":{"parameterUnit":"m.s-1","parameterCategory":1,"la1":31.0,"la2":29.5877,"lo1":-88.7671,"lo2":-86.6584,"dy":0.0162,"dx":0.0185,"nx":115,"ny":88,"refTime":"2023-08-01T00:00:00:Z","depth":0,"parameterNumber":2,"parameterNumberName":"U-component_of_WINDS"},"data":[0.0,0.0,0.0,0.0,0.0,0.0,0.0,0.0,0.0,0.0,0.0,0.0,0.0,0.0,0.0,0.0,0.0,0.0,0.0,0.0,0.0,0.0,0.0,0.0,0.0,0.0,0.0,0.0,0.0,0.0,0.0,0.0,0.0,0.0,0.0,0.0,0.0,0.0,0.0,0.0,0.0,0.0,0.0,0.0,0.0,0.0,0.0,0.0,0.0,0.0,0.0,0.0,0.0,0.0,0.0,0.0,0.0,0.0,0.0,0.0,0.0,0.0,0.0,0.0,0.0,0.0,0.0,0.0,0.0,0.0,0.0,0.0,0.0,0.0,0.0,0.0,0.0,0.0,0.0,0.0,0.0,0.0,0.0,0.0,0.0,0.0,0.0,0.0,0.0,0.0,0.0,0.0,0.0,0.0,0.0,0.0,0.0,0.0,0.0,0.0,0.0,0.0,0.0,0.0,0.0,0.0,0.0,0.0,0.0,0.0,0.0,0.0,0.0,0.0,0.0,0.0,0.0,0.0,0.0,0.0,0.0,0.0,0.0,0.0,0.0,0.0,0.0,0.0,0.0,0.0,0.0,0.0,0.0,0.0,0.0,0.0,0.0,0.0,0.0,0.0,0.0,0.0,0.0,0.0,0.0,0.0,0.0,0.0,0.0,0.0,0.0,0.0,0.0,0.0,0.0,0.0,0.0,0.0,0.0,0.0,0.0,0.0,0.0,0.0,0.0,0.0,0.0,0.0,0.0,0.0,0.0,0.0,0.0,0.0,0.0,0.0,0.0,0.0,0.0,0.0,0.0,0.0,0.0,0.0,0.0,0.0,0.0,0.0,0.0,0.0,0.0,0.0,0.0,0.0,0.0,0.0,0.0,0.0,0.0,0.0,0.0,0.0,0.0,0.0,0.0,0.0,0.0,0.0,0.0,0.0,0.0,0.0,0.0,0.0,0.0,0.0,0.0,0.0,0.0,0.0,0.0,0.0,0.0,0.0,0.0,0.0,0.0,0.0,0.0,0.0,0.0,0.0,0.0,0.0,0.0,0.0,0.0,0.0,0.0,0.0,0.0,0.0,0.0,0.0,0.0,0.0,0.0,0.0,0.0,0.0,0.0,0.0,0.0,0.0,0.0,0.0,0.0,0.0,0.0,0.0,0.0,0.0,0.0,0.0,0.0,0.0,0.0,0.0,0.0,0.0,0.0,0.0,0.0,0.0,0.0,0.0,0.0,0.0,0.0,0.0,0.0,0.0,0.0,0.0,0.0,0.0,0.0,0.0,0.0,0.0,0.0,0.0,0.0,0.0,0.0,0.0,0.0,0.0,0.0,0.0,0.0,0.0,0.0,0.0,0.0,0.0,0.0,0.0,0.0,0.0,0.0,0.0,0.0,0.0,0.0,0.0,0.0,0.0,0.0,0.0,0.0,0.0,0.0,0.0,0.0,0.0,0.0,0.0,0.0,0.0,0.0,0.0,0.0,0.0,0.0,0.0,0.0,0.0,0.0,0.0,0.0,0.0,0.0,0.0,0.0,0.0,0.0,0.0,0.0,0.0,0.0,0.0,0.0,0.0,0.0,0.0,0.0,0.0,0.0,0.0,0.0,0.0,0.0,0.0,0.0,0.0,0.0,0.0,0.0,0.0,0.0,0.0,0.0,0.0,0.0,0.0,0.0,0.0,0.0,0.0,0.0,0.0,0.0,0.0,0.0,0.0,0.0,0.0,0.0,0.0,0.0,0.0,0.0,0.0,0.0,0.0,0.0,0.0,0.0,0.0,0.0,0.0,0.0,0.0,0.0,0.0,0.0,0.0,0.0,0.0,0.0,0.0,0.0,0.0,0.0,0.0,0.0,0.0,0.0,0.0,0.0,0.0,0.0,0.0,0.0,0.0,0.0,0.0,0.0,0.0,0.0,0.0,0.0,0.0,0.0,0.0,0.0,0.0,0.0,0.0,0.0,0.0,0.0,0.0,0.0,0.0,0.0,0.0,0.0,0.0,0.0,0.0,0.0,0.0,0.0,0.0,0.0,0.0,0.0,0.0,0.0,0.0,0.0,0.0,0.0,0.0,0.0,0.0,0.0,0.0,0.0,0.0,0.0,0.0,0.0,0.0,0.0,0.0,0.0,0.0,0.0,0.0,0.0,0.0,0.0,0.0,0.0,0.0,0.0,0.0,0.0,0.0,0.0,0.0,0.0,0.0,0.0,0.0,0.0,0.0,0.0,0.0,0.0,0.0,0.0,0.0,0.0,0.0,0.0,0.0,0.0,0.0,0.0,0.0,0.0,0.0,0.0,0.0,0.0,0.0,0.0,0.0,0.0,0.0,0.0,0.0,0.0,0.0,0.0,0.0,0.0,0.0,0.0,0.0,0.0,0.0,0.0,0.0,0.0,0.0,0.0,0.0,0.0,0.0,0.0,0.0,0.0,0.0,0.0,0.0,0.0,0.0,0.0,0.0,0.0,0.0,0.0,0.0,0.0,0.0,0.0,0.0,0.0,0.0,0.0,0.0,0.0,0.0,0.0,0.0,0.0,0.0,0.0,0.0,0.0,0.0,0.0,0.0,0.0,0.0,0.0,0.0,0.0,0.0,0.0,0.0,0.0,0.0,0.0,0.0,0.0,0.0,0.0,0.0,0.0,0.0,0.0,0.0,0.0,0.0,0.0,0.0,0.0,0.0,0.0,0.0,0.0,0.0,0.0,0.0,0.0,0.0,0.0,0.0,0.0,0.0,0.0,0.0,0.0,0.0,0.0,0.0,0.0,0.0,0.0,0.0,0.0,0.0,0.0,0.0,0.0,0.0,0.0,0.0,0.0,0.0,0.0,0.0,0.0,0.0,0.0,0.0,0.0,0.0,0.0,0.0,0.0,0.0,0.0,0.0,0.0,0.0,0.0,0.0,0.0,0.0,0.0,0.0,0.0,0.0,0.0,0.0,0.0,0.0,0.0,0.0,0.0,0.0,0.0,0.0,0.0,0.0,0.0,0.0,0.0,0.0,0.0,0.0,0.0,0.0,0.0,0.0,0.0,0.0,0.0,0.0,0.0,0.0,0.0,0.0,0.0,0.0,0.0,0.0,0.0,0.0,0.0,0.0,0.0,0.0,0.0,0.0,0.0,0.0,0.0,0.0,0.0,0.0,0.0,0.0,0.0,0.0,0.0,0.0,0.0,0.0,0.0,0.0,0.0,0.0,0.0,0.0,0.0,0.0,0.0,0.0,0.0,0.0,0.0,0.0,0.0,0.0,0.0,0.0,0.0,0.0,0.0,0.0,0.0,0.0,0.0,0.0,0.0,0.0,0.0,0.0,0.0,0.0,0.0,0.0,0.0,0.0,0.0,0.0,0.0,0.0,0.0,0.0,0.0,0.0,0.0,0.0,0.0,0.0,0.0,0.0,0.0,0.0,0.0,0.0,0.0,0.0,0.0,0.0,0.0,0.0,0.0,0.0,0.0,0.0,0.0,0.0,0.0,0.0,0.0,0.0,0.0,0.0,0.0,0.0,0.0,0.0,0.0,0.0,0.0,0.0,0.0,0.0,0.0,0.0,0.0,0.0,0.0,0.0,0.0,0.0,0.0,0.0,0.0,0.0,0.0,0.0,0.0,0.0,0.0,0.0,0.0,0.0,0.0,0.0,0.0,0.0,0.0,0.0,0.0,0.0,0.0,0.0,0.0,0.0,0.0,0.0,0.0,0.0,0.0,0.0,0.0,0.0,0.0,0.0,0.0,0.0,0.0,0.0,0.0,0.0,0.0,0.0,0.0,0.0,0.0,0.0,0.0,0.0,0.0,0.0,0.0,0.0,0.0,0.0,0.0,0.0,0.0,0.0,0.0,0.0,0.0,0.0,0.0,0.0,0.0,0.0,0.0,0.0,0.0,0.0,0.0,0.0,0.0,0.0,0.0,0.0,0.0,0.0,0.0,0.0,0.0,0.0,0.0,0.0,0.0,0.0,0.0,0.0,0.0,0.0,0.0,0.0,0.0,0.0,0.0,0.0,0.0,0.0,0.0,0.0,0.0,0.0,0.0,0.0,0.0,0.0,0.0,0.0,0.0,0.0,0.0,0.0,0.0,0.0,0.0,0.0,0.0,0.0,0.0,0.0,0.0,0.0,0.0,0.0,0.0,0.0,0.0,0.0,0.0,0.0,0.0,0.0,0.0,0.0,0.0,0.0,0.0,0.0,0.0,0.0,0.0,0.0,0.0,0.0,0.0,0.0,0.0,0.0,0.0,0.0,0.0,0.0,0.0,0.0,0.0,0.0,0.0,0.0,0.0,0.0,-0.642,0.0,0.0,0.0,0.0,0.0,0.0,0.0,0.0,0.0,0.0,0.0,0.0,0.0,0.0,0.0,0.0,0.0,0.0,0.0,0.0,0.0,0.0,0.0,0.0,0.0,0.0,0.0,0.0,0.0,0.0,0.0,0.0,0.0,0.0,0.0,0.0,0.0,0.0,0.0,0.0,0.0,0.0,0.0,0.0,0.0,0.0,0.0,0.0,0.0,0.0,0.0,0.0,0.0,0.0,0.0,0.0,0.0,0.0,0.0,0.0,0.0,0.0,0.0,0.0,0.0,0.0,0.0,0.0,0.0,0.0,0.0,0.0,0.0,0.0,0.0,0.0,0.0,0.0,0.0,0.0,0.0,0.0,0.0,0.0,0.0,0.0,0.0,0.0,0.0,0.0,0.0,0.0,0.0,0.0,0.0,0.0,0.0,0.0,0.0,0.0,0.0,0.0,0.0,0.0,0.0,0.0,0.0,0.0,0.0,0.0,-0.5752,-0.5888,-0.5954,-0.6152,-0.6362,0.0,0.0,0.0,0.0,0.0,0.0,0.0,0.0,0.0,0.0,0.0,0.0,0.0,0.0,0.0,0.0,0.0,0.0,0.0,0.0,0.0,0.0,0.0,0.0,0.0,0.0,0.0,0.0,0.0,0.0,0.0,0.0,0.0,0.0,0.0,0.0,0.0,0.0,0.0,0.0,0.0,0.0,0.0,0.0,0.0,0.0,0.0,0.0,0.0,0.0,0.0,0.0,0.0,0.0,0.0,0.0,0.0,0.0,0.0,0.0,0.0,0.0,0.0,0.0,0.0,0.0,0.0,0.0,0.0,0.0,0.0,0.0,0.0,0.0,0.0,0.0,0.0,0.0,0.0,0.0,0.0,0.0,0.0,0.0,0.0,0.0,0.0,0.0,0.0,0.0,0.0,0.0,0.0,0.0,0.0,0.0,0.0,0.0,0.0,0.0,0.0,0.0,0.0,0.0,0.0,0.0,0.0,0.0,0.0,0.0,0.0,0.0,-0.5686,-0.5962,-0.63,0.0,0.0,0.0,0.0,0.0,0.0,0.0,0.0,0.0,0.0,0.0,0.0,0.0,0.0,0.0,0.0,0.0,0.0,0.0,0.0,0.0,0.0,0.0,0.0,0.0,0.0,0.0,0.0,0.0,0.0,0.0,0.0,0.0,0.0,0.0,0.0,0.0,0.0,0.0,0.0,0.0,0.0,0.0,0.0,0.0,0.0,0.0,0.0,0.0,0.0,0.0,0.0,0.0,0.0,0.0,0.0,0.0,0.0,0.0,0.0,0.0,0.0,0.0,0.0,0.0,0.0,0.0,0.0,0.0,0.0,0.0,0.0,0.0,0.0,0.0,0.0,0.0,0.0,0.0,0.0,0.0,0.0,0.0,0.0,0.0,0.0,0.0,0.0,0.0,0.0,0.0,0.0,0.0,0.0,0.0,0.0,0.0,0.0,0.0,0.0,0.0,0.0,0.0,0.0,0.0,0.0,0.0,0.0,0.0,0.0,-0.5425,-0.5425,-0.5554,0.0,-0.5892,0.0,0.0,0.0,0.0,0.0,0.0,0.0,0.0,0.0,0.0,0.0,0.0,0.0,0.0,0.0,0.0,0.0,0.0,0.0,0.0,0.0,0.0,0.0,0.0,0.0,0.0,0.0,0.0,0.0,0.0,0.0,0.0,0.0,0.0,0.0,0.0,0.0,0.0,0.0,0.0,0.0,0.0,0.0,0.0,0.0,0.0,0.0,0.0,0.0,0.0,0.0,0.0,0.0,0.0,0.0,0.0,0.0,0.0,0.0,0.0,0.0,0.0,0.0,0.0,0.0,0.0,0.0,0.0,0.0,0.0,0.0,0.0,0.0,0.0,0.0,0.0,0.0,0.0,0.0,0.0,0.0,0.0,0.0,0.0,0.0,0.0,0.0,0.0,0.0,0.0,0.0,0.0,0.0,0.0,0.0,0.0,0.0,0.0,0.0,0.0,0.0,0.0,0.0,0.0,0.0,0.0,0.0,0.0,0.0,0.0,-0.5428,-0.5428,-0.5425,-0.5491,0.0,0.0,0.0,0.0,0.0,0.0,0.0,0.0,0.0,0.0,0.0,0.0,0.0,0.0,0.0,0.0,0.0,0.0,0.0,0.0,0.0,0.0,0.0,0.0,0.0,0.0,0.0,0.0,0.0,0.0,0.0,0.0,0.0,0.0,0.0,0.0,0.0,0.0,0.0,0.0,0.0,0.0,0.0,0.0,0.0,0.0,0.0,0.0,0.0,0.0,0.0,0.0,0.0,0.0,0.0,0.0,0.0,0.0,0.0,0.0,0.0,0.0,0.0,0.0,0.0,0.0,0.0,0.0,0.0,0.0,0.0,0.0,0.0,0.0,0.0,0.0,0.0,0.0,0.0,0.0,0.0,0.0,0.0,0.0,0.0,0.0,0.0,0.0,0.0,0.0,0.0,0.0,0.0,0.0,0.0,0.0,0.0,0.0,0.0,0.0,0.0,0.0,0.0,0.0,0.0,0.0,0.0,0.0,0.0,0.0,-0.5428,-0.5428,-0.5428,-0.5428,-0.5428,-0.5428,0.0,0.0,0.0,0.0,0.0,0.0,0.0,0.0,0.0,0.0,0.0,0.0,0.0,0.0,0.0,0.0,0.0,0.0,0.0,0.0,0.0,0.0,0.0,0.0,0.0,0.0,0.0,0.0,0.0,0.0,0.0,0.0,0.0,0.0,0.0,0.0,0.0,0.0,0.0,0.0,0.0,0.0,0.0,0.0,0.0,0.0,0.0,0.0,0.0,0.0,0.0,0.0,0.0,0.0,0.0,0.0,0.0,0.0,0.0,0.0,0.0,0.0,0.0,0.0,0.0,0.0,0.0,0.0,0.0,0.0,0.0,0.0,0.0,0.0,0.0,0.0,0.0,0.0,0.0,0.0,0.0,0.0,0.0,0.0,0.0,0.0,0.0,0.0,0.0,0.0,0.0,0.0,0.0,0.0,0.0,0.0,0.0,0.0,0.0,0.0,0.0,0.0,0.0,0.0,0.0,0.0,0.0,0.0,-0.5428,-0.5432,-0.5432,-0.5435,-0.5428,-0.5428,0.0,0.0,0.0,0.0,0.0,0.0,0.0,0.0,0.0,0.0,0.0,0.0,0.0,0.0,0.0,0.0,0.0,0.0,0.0,0.0,0.0,0.0,0.0,0.0,0.0,0.0,0.0,0.0,0.0,0.0,0.0,0.0,0.0,0.0,0.0,0.0,0.0,0.0,0.0,0.0,0.0,0.0,0.0,0.0,0.0,0.0,0.0,0.0,0.0,0.0,0.0,0.0,0.0,0.0,0.0,0.0,0.0,0.0,0.0,0.0,0.0,0.0,0.0,0.0,0.0,0.0,0.0,0.0,0.0,0.0,0.0,0.0,0.0,0.0,0.0,0.0,0.0,0.0,0.0,0.0,0.0,0.0,0.0,0.0,0.0,0.0,0.0,0.0,0.0,0.0,0.0,0.0,0.0,0.0,0.0,0.0,0.0,0.0,0.0,0.0,0.0,0.0,0.0,0.0,0.0,0.0,0.0,0.0,0.0,-0.5504,-0.5454,-0.5501,-0.564,-0.5487,-0.5436,0.0,0.0,0.0,0.0,0.0,0.0,0.0,0.0,0.0,0.0,0.0,0.0,0.0,0.0,0.0,0.0,0.0,0.0,0.0,0.0,0.0,0.0,0.0,0.0,0.0,0.0,0.0,0.0,0.0,0.0,0.0,0.0,0.0,0.0,0.0,0.0,0.0,0.0,0.0,0.0,0.0,0.0,0.0,0.0,0.0,0.0,0.0,0.0,0.0,0.0,0.0,0.0,0.0,0.0,0.0,0.0,0.0,0.0,0.0,0.0,0.0,0.0,0.0,0.0,0.0,0.0,0.0,0.0,0.0,0.0,0.0,0.0,0.0,0.0,0.0,0.0,0.0,0.0,0.0,0.0,0.0,0.0,0.0,0.0,0.0,0.0,0.0,0.0,0.0,0.0,0.0,0.0,0.0,0.0,0.0,0.0,0.0,0.0,0.0,0.0,0.0,0.0,0.0,0.0,0.0,0.0,0.0,0.0,0.0,-0.5587,0.0,-0.5584,-0.5584,-0.5641,-0.564,0.0,0.0,0.0,0.0,0.0,0.0,0.0,0.0,0.0,0.0,0.0,0.0,0.0,0.0,0.0,0.0,0.0,0.0,0.0,0.0,0.0,0.0,0.0,0.0,0.0,0.0,0.0,0.0,0.0,0.0,0.0,0.0,0.0,0.0,0.0,0.0,0.0,0.0,0.0,0.0,0.0,0.0,0.0,0.0,0.0,0.0,0.0,0.0,0.0,0.0,0.0,0.0,0.0,0.0,0.0,0.0,0.0,0.0,0.0,0.0,0.0,0.0,0.0,0.0,0.0,0.0,0.0,0.0,0.0,0.0,0.0,0.0,0.0,0.0,0.0,0.0,0.0,0.0,0.0,0.0,0.0,0.0,0.0,0.0,0.0,0.0,0.0,0.0,0.0,0.0,0.0,0.0,0.0,0.0,0.0,0.0,0.0,0.0,0.0,0.0,0.0,0.0,0.0,0.0,0.0,0.0,0.0,0.0,-0.5601,-0.5519,-0.5692,-0.5636,-0.5237,-0.5913,-0.598,0.0,0.0,0.0,0.0,0.0,0.0,0.0,0.0,0.0,0.0,0.0,0.0,0.0,0.0,0.0,0.0,0.0,0.0,0.0,0.0,0.0,0.0,0.0,0.0,0.0,0.0,0.0,0.0,0.0,0.0,0.0,0.0,0.0,0.0,0.0,0.0,0.0,0.0,0.0,0.0,0.0,0.0,0.0,0.0,0.0,0.0,0.0,0.0,0.0,0.0,0.0,0.0,0.0,0.0,0.0,0.0,0.0,0.0,0.0,0.0,0.0,0.0,0.0,0.0,0.0,0.0,0.0,0.0,0.0,0.0,0.0,0.0,0.0,0.0,0.0,0.0,0.0,0.0,0.0,0.0,0.0,0.0,0.0,0.0,0.0,0.0,0.0,0.0,0.0,0.0,0.0,0.0,0.0,0.0,0.0,0.0,0.0,0.0,0.0,0.0,0.0,0.0,0.0,0.0,0.0,0.0,0.0,0.0,0.0,-0.5591,-0.5611,-0.5701,-0.5778,-0.5529,-0.5494,0.0,0.0,0.0,0.0,0.0,0.0,0.0,0.0,0.0,0.0,0.0,0.0,0.0,0.0,0.0,0.0,0.0,0.0,0.0,0.0,0.0,0.0,0.0,0.0,0.0,0.0,0.0,0.0,0.0,0.0,0.0,0.0,0.0,0.0,0.0,0.0,0.0,0.0,0.0,0.0,0.0,0.0,0.0,0.0,0.0,0.0,0.0,0.0,0.0,0.0,0.0,0.0,0.0,0.0,0.0,0.0,0.0,0.0,0.0,0.0,0.0,0.0,0.0,0.0,0.0,0.0,0.0,0.0,0.0,0.0,0.0,0.0,0.0,0.0,0.0,0.0,0.0,0.0,0.0,0.0,0.0,0.0,0.0,0.0,0.0,0.0,0.0,0.0,0.0,0.0,0.0,0.0,0.0,0.0,0.0,0.0,0.0,0.0,0.0,0.0,0.0,0.0,0.0,0.0,0.0,0.0,0.0,0.0,0.0,-0.5615,-0.5713,-0.5768,-0.5858,-0.5448,-0.5302,-0.5479,0.0,0.0,0.0,0.0,0.0,0.0,0.0,0.0,0.0,0.0,0.0,0.0,0.0,0.0,0.0,0.0,0.0,0.0,0.0,0.0,0.0,0.0,0.0,0.0,0.0,0.0,0.0,0.0,0.0,0.0,0.0,0.0,0.0,0.0,0.0,0.0,0.0,0.0,0.0,0.0,0.0,0.0,0.0,0.0,0.0,0.0,0.0,0.0,0.0,0.0,0.0,0.0,0.0,0.0,0.0,0.0,0.0,0.0,0.0,0.0,0.0,0.0,0.0,0.0,0.0,0.0,0.0,0.0,0.0,0.0,0.0,0.0,0.0,0.0,0.0,0.0,0.0,0.0,0.0,0.0,0.0,0.0,0.0,0.0,0.0,0.0,0.0,0.0,0.0,0.0,0.0,0.0,0.0,0.0,0.0,0.0,0.0,0.0,0.0,0.0,0.0,0.0,0.0,0.0,0.0,0.0,0.0,0.0,-0.5662,-0.5906,-0.5849,-0.5494,-0.5648,-0.5474,0.0,0.0,0.0,0.0,0.0,0.0,0.0,0.0,0.0,0.0,0.0,0.0,0.0,0.0,0.0,0.0,0.0,0.0,0.0,0.0,0.0,0.0,0.0,0.0,0.0,0.0,0.0,0.0,0.0,0.0,0.0,0.0,0.0,0.0,0.0,0.0,0.0,0.0,0.0,0.0,0.0,0.0,0.0,0.0,0.0,0.0,0.0,0.0,0.0,0.0,0.0,0.0,0.0,0.0,0.0,0.0,0.0,0.0,0.0,0.0,0.0,0.0,0.0,0.0,0.0,0.0,0.0,0.0,0.0,0.0,0.0,0.0,0.0,0.0,0.0,0.0,0.0,0.0,0.0,0.0,0.0,0.0,0.0,0.0,0.0,0.0,0.0,0.0,0.0,0.0,0.0,0.0,0.0,0.0,0.0,0.0,0.0,0.0,0.0,0.0,0.0,0.0,0.0,0.0,0.0,0.0,0.0,0.0,0.0,-0.5523,-0.586,-0.6034,-0.5945,-0.5773,-0.546,0.0,0.0,0.0,0.0,0.0,0.0,0.0,0.0,0.0,0.0,0.0,0.0,0.0,0.0,0.0,0.0,0.0,0.0,0.0,0.0,0.0,0.0,0.0,0.0,0.0,0.0,0.0,0.0,0.0,0.0,0.0,0.0,0.0,0.0,0.0,0.0,0.0,0.0,0.0,0.0,0.0,0.0,0.0,0.0,0.0,0.0,0.0,0.0,0.0,0.0,0.0,0.0,0.0,0.0,0.0,0.0,0.0,0.0,0.0,0.0,0.0,0.0,0.0,0.0,0.0,0.0,0.0,0.0,0.0,0.0,0.0,0.0,0.0,0.0,0.0,0.0,0.0,0.0,0.0,0.0,0.0,0.0,0.0,0.0,0.0,0.0,0.0,0.0,0.0,0.0,0.0,0.0,0.0,0.0,0.0,0.0,0.0,0.0,0.0,0.0,0.0,0.0,0.0,0.0,0.0,0.0,0.0,0.0,-0.5041,-0.5106,-0.5799,-0.6222,-0.6252,-0.6109,-0.5655,0.0,0.0,0.0,0.0,0.0,0.0,0.0,0.0,0.0,0.0,0.0,0.0,0.0,0.0,0.0,0.0,0.0,0.0,0.0,0.0,0.0,0.0,0.0,0.0,0.0,0.0,0.0,0.0,0.0,0.0,0.0,0.0,0.0,0.0,0.0,0.0,0.0,0.0,0.0,0.0,0.0,0.0,0.0,0.0,0.0,0.0,0.0,0.0,0.0,0.0,0.0,0.0,0.0,0.0,0.0,0.0,0.0,0.0,0.0,0.0,0.0,0.0,0.0,0.0,0.0,0.0,0.0,0.0,0.0,0.0,0.0,0.0,0.0,0.0,0.0,0.0,0.0,0.0,0.0,0.0,0.0,0.0,0.0,0.0,0.0,0.0,0.0,0.0,0.0,0.0,0.0,0.0,0.0,0.0,0.0,0.0,0.0,0.0,0.0,0.0,0.0,0.0,0.0,0.0,0.0,0.0,0.0,0.0,-0.4424,-0.4311,-0.5705,-0.638,-0.6372,-0.6432,-0.5903,0.0,0.0,0.0,0.0,0.0,0.0,0.0,0.0,0.0,0.0,0.0,0.0,0.0,0.0,0.0,0.0,0.0,0.0,0.0,0.0,0.0,0.0,0.0,0.0,0.0,0.0,0.0,0.0,0.0,0.0,0.0,0.0,0.0,0.0,0.0,0.0,0.0,0.0,0.0,0.0,0.0,0.0,0.0,0.0,0.0,0.0,0.0,0.0,0.0,0.0,0.0,0.0,0.0,0.0,0.0,0.0,0.0,0.0,0.0,0.0,0.0,0.0,0.0,0.0,0.0,0.0,0.0,0.0,0.0,0.0,0.0,0.0,0.0,0.0,0.0,0.0,0.0,0.0,0.0,0.0,0.0,0.0,0.0,0.0,0.0,0.0,0.0,0.0,0.0,0.0,0.0,0.0,0.0,0.0,0.0,0.0,0.0,0.0,0.0,0.0,0.0,0.0,0.0,0.0,0.0,0.0,0.0,0.0,-0.3463,-0.2154,-0.4901,-0.638,-0.6377,-0.6435,-0.5412,0.0,0.0,0.0,0.0,0.0,0.0,0.0,0.0,0.0,0.0,0.0,0.0,0.0,0.0,0.0,0.0,0.0,0.0,0.0,0.0,0.0,0.0,0.0,0.0,0.0,0.0,0.0,0.0,0.0,0.0,0.0,0.0,0.0,0.0,0.0,0.0,0.0,0.0,0.0,0.0,0.0,0.0,0.0,0.0,0.0,0.0,0.0,0.0,-0.0576,0.0,0.0,0.0,0.0,0.0,0.0,0.0,0.0,0.0,0.0,0.0,0.0,0.0,0.0,0.0,0.0,0.0,0.0,0.0,0.0,0.0,0.0,0.0,0.0,0.0,0.0,0.0,0.0,0.0,0.0,0.0,0.0,0.0,0.0,0.0,0.0,0.0,0.0,0.0,0.0,0.0,0.0,0.0,0.0,0.0,0.0,0.0,0.0,0.0,0.0,0.0,0.0,0.0,0.0,0.0,0.0,0.0,0.0,0.0,-0.2416,-0.159,-0.473,-0.639,-0.6382,-0.4422,-0.298,0.0,0.0,0.0,0.0,0.0,0.0,0.0,0.0,0.0,0.0,0.0,0.0,0.0,0.0,0.0,0.0,0.0,0.0,0.0,0.0,0.0,0.0,0.0,0.0,0.0,0.0,0.0,0.0,0.0,0.0,0.0,0.0,0.0,0.0,0.0,0.0,0.0,0.0,0.0,0.0,0.0,0.0,0.0,0.0,0.0,0.0,0.0,0.0,0.0,0.0,0.0,0.0,0.0,0.0,0.0,0.0,0.0,0.0,0.0,0.0,0.0,0.0,0.0,0.0,0.0,0.0,0.0,0.0,0.0,0.0,0.0,0.0,0.0,0.0,0.0,0.0,0.0,0.0,0.0,0.0,0.0,0.0,0.0,0.0,0.0,0.0,0.0,0.0,0.0,0.0,0.0,0.0,0.0,0.0,0.0,0.0,0.0,0.0,0.0,0.0,0.0,0.0,0.0,0.0,0.0,0.0,0.0,-0.1817,-0.1268,-0.1412,-0.405,-0.5379,-0.5376,-0.1891,-0.039,-0.1143,0.0,0.0,0.0,0.0,0.0,0.0,0.0,0.0,0.0,0.0,0.0,0.0,0.0,0.0,0.0,0.0,0.0,0.0,0.0,0.0,0.0,0.0,0.0,0.0,0.0,0.0,0.0,0.0,0.0,0.0,0.0,0.0,0.0,0.0,0.0,0.0,0.0,0.0,0.1055,0.154,0.0,0.0,0.0,0.0,0.0,0.0,0.0,0.0,-0.0633,0.0,0.0,0.0,0.0,0.0,0.0,0.0,0.0,0.0,0.0,0.0,0.0,0.0,0.0,0.0,0.0,0.0,0.0,0.0,0.0,0.0,0.0,0.0,0.0,0.0,0.0,0.0,0.0,0.0,0.0,0.0,0.0,0.0,0.0,0.0,0.0,0.0,0.0,0.0,0.0,0.0,0.0,0.0,0.0,0.0,0.0,0.0,0.0,0.0,0.0,0.0,0.0,0.0,0.0,0.0,0.0,-0.2288,-0.1357,-0.0593,-0.0303,-0.0808,-0.101,-0.101,-0.0403,-0.0099,-0.0286,0.0,0.0,0.0,0.0,0.0,0.0,0.0,0.0,0.0,0.0,0.0,0.0,0.0,0.0,0.0,0.0,0.0,0.0,0.0,0.0,0.0,0.0,0.0,0.0,0.0,0.0,0.0,0.0,0.0,0.0,0.0,0.0,0.0,0.0,0.0,0.0,0.0,0.0,0.0,0.2539,0.2143,0.0,0.0,0.0,0.0,0.0,0.0,0.0,0.0,-0.0163,0.0,0.0,0.0,0.0,0.0,0.0,0.0,0.0,0.0,0.0,0.0,0.0,0.0,0.0,0.0,0.0,0.0,0.0,0.0,0.0,0.0,0.0,0.0,0.0,0.0,0.0,0.0,0.0,0.0,0.0,0.0,0.0,0.0,0.0,0.0,0.0,0.0,0.0,0.0,0.0,0.0,0.0,0.0,0.0,0.0,0.0,0.0,0.0,0.0,0.0,0.0,0.0,0.0,0.0,0.0,-0.2192,-0.1458,-0.0694,-0.0,-0.0,-0.0,-0.0,-0.0,-0.0,0.0,0.0,0.0,0.0,0.0,0.0,0.0,0.0,0.0,0.0,0.0,0.0,0.0,0.0,0.0,0.0,0.0,0.0,0.0,0.0,0.0,0.0,0.0,0.0,0.0,0.0,0.0,0.0,0.0,0.0,0.0,0.0,0.0,0.0,0.0,0.0,0.0,0.0,0.0,0.0,0.3018,0.2837,0.341,0.0,0.0,0.0,0.0,0.0,0.0,0.0672,0.0331,0.0,0.0,0.0,0.0,0.0,0.0,0.0,0.0,0.0,0.0,0.0,0.0,0.0,0.0,0.0,0.0,0.0,0.0,0.0,0.0,0.0,0.0,0.0,0.0,0.0,0.0,0.0,0.0,0.0,0.0,0.0,0.0,0.0,0.0,0.0,0.0,0.0,0.0,0.0,0.0,0.0,0.0,0.0,0.0,0.0,0.0,0.0,0.0,0.0,0.0,0.0,0.0,0.0,0.0,0.0,-0.1907,-0.1562,-0.0995,-0.0,-0.0,-0.0,-0.0,-0.0,-0.0,0.0,0.0,0.0,0.0,0.0,0.0,0.0,0.0,0.0,0.0,0.0,0.0,0.0,0.0,0.0,0.0,0.0,0.0,0.0,0.0,0.0,0.0,0.0,0.0,0.0,0.0,0.0,0.0,0.0,0.0,0.0,0.0,0.0,0.0,0.0,0.0,0.0,0.0,0.0,0.0,0.0,0.3437,0.4157,0.3861,0.0,0.0,0.0,0.0,0.1742,0.1115,0.0,0.0,0.0,0.0,0.0,0.0,0.0,0.0,0.0,0.0,0.0,0.0,0.0,0.0,0.0,0.0,0.0,0.0,0.0,0.0,0.0,0.0,0.0,0.0,0.0,0.0,0.0,0.0,0.0,0.0,0.0,0.0,0.0,0.0,0.0,0.0,0.0,0.0,0.0,0.0,0.0,0.0,0.0,0.0,0.0,0.0,0.0,0.0,0.0,0.0,0.0,0.0,0.0,0.0,0.0,0.0,-0.0955,-0.1286,-0.1009,-0.0,-0.0,-0.0,-0.0,-0.0,-0.0,0.0,0.0,0.0,0.0,0.0,0.0,0.0,0.0,0.0,0.0,0.0,0.0,0.0,0.0,0.0,0.0,0.0,0.0,0.0,0.0,0.0,0.0,0.0,0.0,0.0,0.0,0.0,0.0,0.0,0.0,0.0,0.0,0.0,0.0,0.0,0.0,0.0,0.0,0.0,0.0,0.0,0.3736,0.4504,0.4448,0.4309,0.0,0.0,0.4008,0.392,0.2457,0.0,0.0,0.0,0.0,0.0,0.0,0.0,0.0,0.0,0.0,0.0,0.0,0.0,0.0,0.0,0.0,0.0,0.0,0.0,0.0,0.0,0.0,0.0,0.0,0.0,0.0,0.0,0.0,0.0,0.0,0.0,0.0,0.0,0.0,0.0,0.0,0.0,0.0,0.0,0.0,0.0,0.0,0.0,0.0,0.0,0.0,0.0,0.0,0.0,0.0,0.0,0.0,0.0,0.0,0.0,-0.1335,-0.0764,-0.0694,-0.0505,-0.0,-0.0,-0.0,-0.0,-0.0,-0.0,0.0,0.0,0.0,0.0,0.0,0.0,0.0,0.0,0.0,0.0,0.0,0.0,0.0,0.0,0.0,0.0,0.0,0.0,0.0,0.0,0.0,0.0,0.0,0.0,0.0,0.0,0.0,0.0,0.0,0.0,0.0,0.0,0.0,0.0,0.0,0.0,0.0,0.0,0.0,0.0,0.0,0.0,0.4599,0.4889,0.0,0.0,0.0,0.4608,0.3762,0.0,0.0,0.0,0.0,0.0,0.0,0.0,0.0,0.0,0.0,0.0,0.0,0.0,0.0,0.0,0.0,0.0,0.0,0.0,0.0,0.0,0.0,0.0,0.0,0.0,0.0,0.0,0.0,0.0,0.0,0.0,0.0,0.0,0.0,0.0,0.0,0.0,0.0,0.0,0.0,0.0,0.0,0.0,0.0,0.0,0.0,0.0,0.0,0.0,0.0,0.0,0.0,0.0,0.0,0.0,0.0,0.0,-0.0859,-0.0297,-0.0,-0.0,-0.0,-0.0,-0.0,-0.0,0.0,0.0,0.0,0.0,0.0,0.0,0.0,0.0,0.0,0.0,0.0,0.0,0.0,0.0,0.0,0.0,0.0,0.0,0.0,0.0,0.0,0.0,0.0,0.0,0.0,0.0,0.0,-0.0,0.0,0.0,0.0,0.0,0.0,0.0,0.0,0.0,0.0,0.0,0.0,0.0,0.0,0.0,0.4205,0.4608,0.5142,0.5463,0.0,0.0,0.5104,0.4034,0.331,0.2753,0.0,0.0,0.0,0.0,0.0,0.0,0.0,0.0,0.0,0.0,0.0,0.0,0.0,0.0,0.0,0.0,0.0,0.0,0.0,0.0,0.0,0.0,0.0,0.0,0.0,0.0,0.0,0.0,0.0,0.0,0.0,0.0,0.0,0.0,0.0,0.0,0.0,0.0,0.0,0.0,0.0,0.0,0.0,0.0,0.0,0.0,0.0,0.0,0.0,0.0,0.0,0.0,0.0,0.0,0.0,-0.1337,-0.0495,-0.0,-0.0,-0.0,-0.0,-0.0,-0.0,-0.0,0.0,0.0,0.0,0.0,0.0,0.0,0.0,0.0,0.0,0.0,0.0,0.0,0.0,0.0,0.0,0.0,0.0,0.0,0.0,0.0,0.0,0.0,0.0,0.0,0.0,0.0,0.0,0.0,0.0,0.0,0.0,0.0,0.0,0.0,0.0,0.0,0.0,0.0,0.0,0.0,0.0,0.4272,0.4617,0.5231,0.5644,0.0,0.0,0.5646,0.5565,0.475,0.4092,0.3747,0.0,0.0,0.0,0.0,0.0,0.0,0.0,0.0,0.0,0.0,0.0,0.0,0.0,0.0,0.0,0.0,0.0,0.0,0.0,0.0,0.0,0.0,0.0,0.0,0.0,0.0,0.0,0.0,0.0,0.0,0.0,0.0,0.0,0.0,0.0,0.0,0.0,0.0,0.0,0.0,0.0,0.0,0.0,0.0,0.0,0.0,0.0,0.0,0.0,0.0,0.0,0.0,0.0,-0.1439,-0.136,-0.0499,-0.0,-0.0,-0.0,-0.0,-0.0,-0.0,-0.0,0.0,0.0,0.0,0.0,0.0,0.0,0.0,0.0,0.0,0.0,0.0,0.0,0.0,0.0,0.0,0.0,0.0,0.0,0.0,0.0,0.0,0.0,0.0,0.0,0.0,0.0,0.0,0.0,-0.0,-0.0,-0.0,0.0,0.0,0.0,0.0,0.0,0.0,0.0,0.0,0.0,0.0,0.4365,0.4967,0.5449,0.0,0.0,0.5733,0.5552,0.5193,0.4832,0.4372,0.3724,0.3765,0.0,0.0,0.0,0.0,0.0,0.0,0.0,0.0,0.0,0.0,0.0,0.0,0.0,0.0,0.0,0.0,0.0,0.0,0.0,0.0,0.0,0.0,0.0,0.0,0.0,0.0,0.0,0.0,0.0,0.0,0.0,0.0,0.0,0.0,0.0,0.0,0.0,0.0,0.0,0.0,0.0,0.0,0.0,0.0,0.0,0.0,0.0,0.0,0.0,0.0,0.0,0.0,-0.1252,-0.0982,-0.03,-0.0,-0.0,-0.0,-0.0,-0.0,-0.0,-0.0,0.0,0.0,0.0,0.0,0.0,0.0,0.0,0.0,0.0,0.0,0.0,0.0,0.0,0.0,0.0,0.0,0.0,0.0,0.0,0.0,0.0,0.0,0.0,0.0,0.0,0.0,0.0,0.0,-0.0,-0.0,-0.0,0.0,0.0,0.0,0.0,0.0,0.0,0.0,0.0,0.0,0.0,0.451,0.4947,0.539,0.5555,0.5463,0.5552,0.546,0.483,0.4919,0.4832,0.4121,0.0,0.0,0.0,0.0,0.0,0.0,0.0,0.0,0.0,0.0,0.0,0.0,0.0,0.0,0.0,0.0,0.0,0.0,0.0,0.0,0.0,0.0,0.0,0.0,0.0,0.0,0.0,0.0,0.0,0.0,-0.1666,0.0,0.0,0.0,0.0,0.0,0.0,0.0,0.0,0.0,0.0,0.0,0.0,0.0,0.0,0.0,0.0,0.0,0.0,0.0,0.0,0.0,0.0,-0.0963,-0.0,-0.0,-0.0,-0.0,-0.0,-0.0,-0.0,-0.0,-0.0,-0.0,0.0,0.0,0.0,0.0,0.0,0.0,0.0,0.0,0.0,0.0,0.0,0.0,0.0,0.0,0.0,0.0,0.0,0.0,0.0,0.0,0.0,0.0,0.0,0.0,0.0,0.0,-0.0,-0.0,-0.0,0.0,0.0,0.0,0.0,0.0,0.0,0.0,0.0,0.0,0.0,0.3594,0.469,0.461,0.5044,0.5282,0.5099,0.5191,0.5282,0.501,0.5371,0.5552,0.0,0.0,0.0,0.0,0.0,0.0,0.0,0.0,0.0,0.0,0.0,0.0,0.0,0.0,0.0,0.0,0.0,0.0,0.0,0.0,0.0,0.0,0.0,0.0,0.0,0.0,0.0,-0.257,-0.199,0.0,0.0,0.0,0.0,0.0,0.0,0.0,0.0,0.0,0.0,0.0,-0.1402,-0.1403,0.0,0.0,0.0,0.0,0.0,0.0,0.0,0.0,0.0,0.0,0.0,0.0,-0.0295,-0.0,-0.0,-0.0,-0.0,-0.0,-0.0,-0.0,-0.0,-0.0,-0.0,0.0,0.0,0.0,0.0,0.0,0.0,0.0,0.0,0.0,0.0,0.0,0.0,0.0,0.0,0.0,0.0,0.0,0.0,0.0,0.0,0.0,0.0,0.0,0.0,0.0,-0.0,0.0,0.0,0.0,0.0,0.0,0.0,0.0,0.0,0.0,0.0,0.0,0.0938,0.1288,0.2186,0.3189,0.399,0.4459,0.4746,0.0,0.0,0.0,0.0,0.0,0.0,0.0,0.0,0.0,0.0,0.0,0.0,0.0,0.0,0.6405,0.6125,0.6179,0.6345,0.6411,0.0,0.0,0.0,0.0,0.0,0.0,0.0,0.0,0.0,0.0,0.0,0.0,0.0,0.0,-0.2343,0.0,-0.1245,0.0,0.0,0.0,0.0,0.0,0.0,0.0,0.0,-0.0579,-0.0584,-0.0876,-0.0876,-0.0876,0.0,-0.0292,-0.0,0.0,0.0,0.0,0.0,0.0,0.0,0.0,0.0,-0.0,-0.0,-0.0,-0.0,-0.0,-0.0,-0.0,-0.0,-0.0,-0.0,-0.0,-0.0,-0.0,0.0,0.0,0.0,0.0,0.0,0.0,0.0,0.0,0.0,0.0,0.0,0.0,0.0,0.0,0.0,0.0,0.0,0.0,0.0,0.0,0.0,0.0,0.0,-0.0,0.0,0.0,0.0,0.0,0.0,0.0,0.0,0.0,0.0,-0.0,0.0263,0.0445,0.0538,0.127,0.2104,0.3203,0.0,0.0,0.0,0.0,0.0,0.0,0.0,0.5029,0.4938,0.5517,0.6121,0.6479,0.6907,0.7127,0.7127,0.0,0.0,0.6673,0.6704,0.6781,0.6807,0.6739,0.6702,0.6702,0.6781,0.6878,0.0,0.0,0.0,0.0,0.0,0.0,0.0,0.0,-0.2845,-0.1816,0.0,-0.0836,0.0,0.0,0.0,0.0,0.0,-0.1062,0.0,0.0,-0.04,-0.0,-0.0,-0.0,-0.0,-0.0,-0.0,-0.0,-0.0,-0.0,0.0,0.0,0.0,0.0,0.0,0.0,-0.0,-0.0,-0.0,-0.0,-0.0,-0.0,-0.0,-0.0,-0.0,-0.0,-0.0,-0.0,-0.0,-0.0,-0.0,0.0,0.0,0.0,0.0,0.0,0.0,0.0,0.0,0.0,0.0,0.0,0.0,0.0,0.0,0.0,0.0,0.0,0.0,0.0,0.0,-0.0,0.0,0.0,0.0,0.0,0.0,0.0,0.0,0.0,0.0,0.0,-0.0,-0.0,-0.0,-0.0,0.0,0.0,0.0,0.0,0.3711,0.3426,0.3808,0.3996,0.3906,0.4662,0.5228,0.4942,0.0,0.0,0.7711,0.7702,0.7621,0.7617,0.7733,0.7634,0.7165,0.7078,0.7119,0.6973,0.6837,0.6722,0.6719,0.6742,0.6776,-0.5608,0.0,0.0,0.0,0.0,-0.4895,-0.4422,-0.3808,-0.3753,-0.2453,-0.0394,-0.0296,0.0,0.0,0.0,0.0,0.0,0.0,-0.0401,-0.0401,-0.0101,-0.0,-0.0,-0.0,-0.0,-0.0,-0.0,-0.0,-0.0,-0.0,-0.0,-0.0,0.0,0.0,0.0,0.0,-0.0,-0.0,-0.0,-0.0,-0.0,-0.0,-0.0,-0.0,-0.0,-0.0,-0.0,-0.0,-0.0,-0.0,-0.0,0.0,0.0,0.0,0.0,0.0,0.0,0.0,0.0,0.0,0.0,0.0,0.0,0.0,0.0,0.0,0.0,0.0,0.0,0.0,-0.0,-0.0,-0.0,0.0,0.0,0.0,0.0,0.0,0.0,0.0,0.0,0.0,-0.0,-0.0,-0.0,0.0,0.0,0.0572,0.1049,0.2002,0.2764,0.3146,0.3334,0.0,0.4199,0.467,0.5047,0.5434,0.6187,0.694,0.723,0.7479,0.7622,0.7815,0.7946,0.7815,0.763,0.7476,0.7421,0.7275,0.7122,0.7017,0.7017,0.7014,0.7024,-0.6268,-0.5915,-0.5632,-0.5597,-0.5722,-0.5463,-0.4631,-0.3517,-0.4614,-0.3189,-0.0,-0.0,-0.0,-0.0,-0.0,0.0,0.0,0.0,-0.0,-0.0,-0.0,-0.0,-0.0,-0.0,-0.0,-0.0,-0.0,-0.0,-0.0,-0.0,-0.0,-0.0,0.0,0.0,-0.0,-0.0,-0.0,-0.0,-0.0,-0.0,-0.0,-0.0,-0.0,-0.0,-0.0,-0.0,-0.0,-0.0,-0.0,-0.0,-0.0,-0.0,0.0,0.0,0.0,0.0,0.0,0.0,0.0,0.0,0.0,0.0,0.0,-0.0,0.0,0.0,0.0,0.0,-0.0,-0.0,-0.0,-0.0,0.0,0.0,0.0,0.0,0.0,0.0,0.0,-0.0,-0.0,-0.0,-0.0,-0.0,-0.0,-0.0,-0.0,0.0098,0.039,0.0,0.1562,0.2146,0.234,0.2729,0.3219,0.3799,0.4576,0.5945,0.6485,0.6822,0.7119,0.739,0.7643,0.7842,0.7942,0.8007,0.7919,0.7784,0.7614,0.7411,0.7248,0.7146,0.7139,0.7139,0.7139,-0.6831,-0.6774,-0.6124,-0.6029,-0.6306,-0.6121,-0.5078,-0.3608,-0.5326,-0.3909,-0.0312,-0.0104,-0.0,-0.0,-0.0,0.0,-0.0,-0.0,-0.0,-0.0,-0.0,-0.0,-0.0,-0.0,-0.0,-0.0,-0.0,-0.0,-0.0,-0.0,-0.0,-0.0,-0.0,-0.0,-0.0,-0.0,-0.0,-0.0,-0.0,-0.0,-0.0,-0.0,-0.0,-0.0,-0.0,-0.0,-0.0,-0.0,-0.0101,-0.0,-0.0,-0.0,-0.0,0.0,0.0,0.0,0.0,0.0,0.0,0.0,0.0,0.0,0.0,0.0,0.0,0.0,0.0,0.0,-0.0,0.0,-0.0,-0.0,0.0,0.0,0.0,-0.0,-0.0,-0.0,-0.0,-0.0,0.0,0.0,-0.0,-0.0,-0.0,-0.0,-0.0,-0.0,-0.0,-0.0,0.0202,0.0705,0.1513,0.2017,0.2513,0.3112,0.441,0.6318,0.6745,0.6836,0.7129,0.7338,0.7543,0.7543,0.7743,0.7939,0.7939,0.7808,0.7723,0.7448,0.7272,0.716,0.7143,0.7139,0.7139,-0.707,-0.7056,-0.6888,-0.676,-0.6676,-0.6684,-0.6417,-0.584,-0.4574,-0.3397,-0.2323,-0.0741,-0.0,-0.0,-0.0,-0.0,-0.0,-0.0,-0.0,-0.0,-0.0,-0.0,-0.0,-0.0,-0.0,-0.0,-0.0,-0.0,-0.0,-0.0,-0.0,-0.0,-0.0,-0.0,-0.0,-0.0,-0.0,-0.0,-0.0,-0.0,-0.0,-0.0,-0.0,-0.0,-0.0,-0.0,-0.0,-0.0808,-0.1212,-0.1212,-0.0404,-0.0,-0.0,-0.099,0.0,0.0,0.0,0.0,0.0,0.0,0.0,0.0,0.0,-0.0,-0.0,0.0,-0.0,0.0,-0.0,-0.0,-0.0,-0.0,0.0,0.0,-0.0,-0.0,-0.0,-0.0,-0.0,-0.0,-0.0,-0.0,-0.0,-0.0,-0.0,-0.0,-0.0,-0.0,-0.0,-0.0,-0.0,0.0505,0.3135,0.5168,0.5161,0.5454,0.5746,0.6437,0.6539,0.6639,0.6842,0.6942,0.7045,0.7238,0.7338,0.7441,0.7643,0.7625,0.7571,0.7486,0.7424,0.7278,0.7166,0.7139,0.7139,-0.7154,-0.7154,-0.7154,-0.7078,-0.6961,-0.6964,-0.6967,-0.6864,-0.5558,-0.3795,-0.1719,-0.0535,-0.0,-0.0,-0.0,-0.0,-0.0,-0.0,-0.0,-0.0,-0.0,-0.0,-0.0,-0.0,-0.0,-0.0,-0.0,-0.0,-0.0,-0.0,-0.0,-0.0,-0.0,-0.0,-0.0,-0.0,-0.0,-0.0,-0.0,-0.0,-0.0,-0.0,-0.0,-0.0,-0.0,-0.0202,-0.0707,-0.1313,-0.1617,-0.1617,-0.101,-0.0606,-0.0404,-0.11,-0.1585,0.0,0.0,0.0,0.0,0.0,0.0,0.0,0.0,0.0,0.0,0.0,-0.0,-0.0,-0.0,-0.0,-0.0,-0.0,-0.0,-0.0,-0.0,-0.0,-0.0,-0.0,-0.0,-0.0,-0.0,-0.0,-0.0,-0.0,-0.0,-0.0,-0.0,-0.0,-0.0,-0.0,0.0606,0.2629,0.4865,0.6393,0.638,0.6369,0.6458,0.6442,0.6437,0.6439,0.6642,0.6742,0.6845,0.7039,0.7138,0.7235,0.7434,0.7384,0.7284,0.7343,0.7295,0.7214,0.7098,0.7139,0.7139,-0.7154,-0.7154,-0.7154,-0.7154,-0.7154,-0.7154,-0.7163,-0.7179,-0.7192,-0.4446,-0.0,-0.0,-0.0,-0.0,-0.0,-0.0,-0.0,-0.0,-0.0,-0.0,-0.0,-0.0,-0.0,-0.0,-0.0,-0.0,-0.0,-0.0,-0.0,-0.0,-0.0,-0.0,-0.0101,-0.0202,-0.0202,-0.0101,-0.0101,-0.0,-0.0101,-0.0202,-0.0202,-0.0101,-0.0,-0.0,-0.0101,-0.0606,-0.1516,-0.1617,-0.1617,-0.1617,-0.1617,-0.1414,-0.0909,-0.1313,-0.1605,0.0,-0.1577,0.0,0.0,0.0,0.0,0.0,0.0,0.0,0.0,-0.0,-0.0,-0.0,-0.0,-0.0,-0.0,-0.0,-0.0,-0.0,-0.0,-0.0,-0.0,-0.0,-0.0,-0.0,-0.0,-0.0,-0.0,-0.0,-0.0,-0.0,-0.0,-0.0,-0.0,-0.0,0.1415,0.5787,0.6396,0.6382,0.6369,0.6364,0.6453,0.6439,0.6437,0.6437,0.6437,0.6642,0.6745,0.6742,0.6939,0.7036,0.7138,0.7138,0.7093,0.7064,0.7133,0.7153,0.7078,0.7068,0.7139,-0.7154,-0.7154,-0.7154,-0.7154,-0.7154,-0.7154,-0.7154,-0.7163,-0.7187,-0.4477,-0.0,-0.0,-0.0,-0.0,-0.0,-0.0,-0.0,-0.0,-0.0,-0.0,-0.0,-0.0,-0.0,-0.0,-0.0,-0.0,-0.0,-0.0,-0.0,-0.0,-0.0,-0.0,-0.0909,-0.1313,-0.1313,0.0,0.0,0.0,-0.0808,-0.1313,-0.1313,-0.0505,-0.0,-0.0,-0.0808,0.0,-0.1617,-0.1617,-0.1617,-0.1617,-0.1617,0.0,0.0,0.0,0.0,0.0,0.0,0.0,0.0,0.0,0.0,0.0,-0.1407,-0.0906,-0.0,-0.0,-0.0,-0.0,-0.0,-0.0,-0.0,-0.0,-0.0,-0.0,-0.0,-0.0,-0.0,-0.0,-0.0,-0.0,-0.0,-0.0,-0.0,-0.0,-0.0,-0.0,-0.0,-0.0,-0.0,-0.0,-0.0,0.5477,0.6287,0.6374,0.6364,0.645,0.6442,0.6437,0.6437,0.6437,0.6437,0.6437,0.6439,0.6439,0.6534,0.6637,0.6842,0.6845,0.6904,0.6976,0.7024,0.7022,0.7027,0.7052,0.7139,-0.716,0.0,-0.7168,-0.7168,0.0,-0.7176,-0.7173,-0.7176,-0.719,-0.4485,-0.0,-0.0,-0.0,-0.0,-0.0,-0.0,-0.0,-0.0,-0.0,-0.0,-0.0,-0.0,-0.0,-0.0,-0.0,-0.0,-0.0,-0.0,-0.0,-0.0507,-0.0808,-0.0808,-0.1111,-0.1313,-0.1617,-0.1313,-0.0909,-0.0404,-0.0909,-0.1313,-0.1516,-0.1111,-0.0808,-0.0808,-0.1313,0.0,0.0,0.0,0.0,0.0,0.0,0.0,0.0,-0.1617,0.0,-0.0908,-0.1313,-0.1617,-0.1615,-0.1616,-0.1617,-0.1617,-0.1617,-0.1212,-0.0404,-0.0202,-0.0,-0.0,-0.0,-0.0,-0.0,-0.0,-0.0,-0.0,-0.0,-0.0,-0.0,-0.0,-0.0,-0.0,-0.0,-0.0,-0.0,-0.0,-0.0,-0.0,-0.0,-0.0,-0.0,0.1819,0.3846,0.4756,0.5866,0.6364,0.6453,0.6445,0.6437,0.6437,0.6437,0.6437,0.6437,0.6437,0.6437,0.6437,0.6437,0.6439,0.6539,0.6642,0.6623,0.666,0.6792,0.6789,0.6683,0.6813,0.6869,-0.7168,-0.7179,-0.673,-0.6507,-0.6515,-0.6515,-0.6855,-0.7198,0.0,0.0,0.0,-0.0,-0.0,-0.0,-0.0,-0.0,-0.0,-0.0,-0.0,-0.0,-0.0,-0.0,-0.0,-0.0,-0.0,-0.0,-0.0,-0.0104,-0.0311,-0.1223,-0.1617,-0.1516,-0.1111,-0.1111,-0.1516,-0.1617,-0.1414,-0.101,-0.0909,-0.1111,-0.1617,-0.1617,-0.1617,-0.1617,-0.1617,-0.1617,-0.1617,-0.1617,-0.1617,-0.1617,-0.1414,-0.1415,-0.1516,-0.1212,-0.0707,-0.0101,-0.0807,-0.1313,-0.1613,-0.1615,-0.1617,-0.1617,-0.1617,-0.1414,-0.0808,-0.0505,-0.0202,-0.0101,-0.0101,-0.0,-0.0,-0.0,-0.0,-0.0,-0.0,-0.0,-0.0,-0.0,-0.0,-0.0,-0.0,-0.0,-0.0,-0.0,-0.0,-0.0,-0.0,0.0505,0.1414,0.4048,0.5574,0.4541,0.555,0.6458,0.6442,0.6437,0.6437,0.6437,0.6437,0.6437,0.6437,0.6437,0.6437,0.6437,0.6437,0.6437,0.6437,0.6437,0.6437,0.6437,0.6459,0.6549,0.6423,0.6485,0.6533,-0.7182,-0.707,-0.4927,-0.414,-0.4142,-0.4142,-0.5272,-0.7206,-0.7206,-0.4491,-0.0,-0.0,-0.0,-0.0,-0.0,-0.0,-0.0,-0.0,-0.0,-0.0,-0.0,-0.0,-0.0,-0.0,-0.0,-0.0,-0.0,-0.0527,-0.135,-0.153,-0.1617,-0.1617,-0.1516,-0.1516,-0.1617,-0.1617,-0.1516,-0.1516,-0.1516,-0.1516,-0.1617,-0.1617,-0.1617,-0.1617,-0.1617,-0.1617,-0.1617,-0.1617,-0.1617,-0.1516,-0.0706,-0.0605,-0.1415,0.0101,0.0806,0.0101,0.0101,-0.0302,-0.1513,-0.1613,-0.1615,-0.1617,-0.1617,-0.1414,-0.0909,-0.1111,-0.1212,-0.0707,-0.0303,-0.0,-0.0,-0.0,-0.0,-0.0,-0.0,-0.0,-0.0,-0.0,-0.0,-0.0,-0.0,-0.0,-0.0,-0.0,-0.0,-0.0,-0.0,0.1313,0.4147,0.5979,0.6282,0.6062,0.6158,0.6356,0.6442,0.6437,0.6437,0.6437,0.6437,0.6437,0.6437,0.6437,0.6437,0.6437,0.6437,0.6437,0.6437,0.6437,0.6437,0.6434,0.641,0.6462,0.6346,0.6317,0.6258,-0.6391,-0.5377,-0.5497,-0.4036,-0.1792,-0.4487,-0.6189,-0.6875,-0.438,-0.213,-0.0,-0.0,-0.0,-0.0,-0.0,-0.0,-0.0,-0.0,-0.0,-0.0,-0.0,-0.0,-0.0,-0.0,-0.0,-0.0,-0.0648,-0.1168,-0.1578,-0.1538,-0.1617,-0.1617,-0.1617,-0.1617,-0.1617,-0.1617,-0.1617,-0.1617,-0.1617,-0.1617,-0.1617,-0.1617,-0.1617,-0.1617,-0.1617,-0.1617,-0.1617,-0.1617,-0.1617,-0.1617,-0.0605,-0.0202,-0.0605,0.0706,0.1613,0.1713,0.131,0.131,0.1813,0.1209,0.0605,0.0202,-0.0404,-0.0404,0.0404,-0.0808,-0.1516,-0.1212,-0.101,-0.0707,-0.0505,-0.0404,-0.0303,-0.0,-0.0,-0.0,-0.0,-0.0,-0.0,-0.0,-0.0,-0.0,-0.0,-0.0,-0.0,-0.0,0.1313,0.3233,0.4547,0.5562,0.6168,0.6364,0.6453,0.6445,0.6439,0.6437,0.6437,0.6437,0.6437,0.6437,0.6437,0.6437,0.6437,0.6437,0.6437,0.6437,0.6437,0.6437,0.6437,0.6437,0.6437,0.6391,0.6285,0.6124,0.6115,-0.6093,-0.462,-0.5174,-0.3366,-0.0336,-0.3932,-0.5628,-0.5176,-0.157,-0.0,-0.0,-0.0,-0.0,-0.0,-0.0,-0.0,-0.0,-0.0,-0.0,-0.0,-0.0,-0.0112,-0.0336,-0.0448,-0.0336,-0.0334,-0.1082,-0.1491,-0.1586,-0.154,-0.1617,-0.1617,-0.1617,-0.1617,-0.1617,-0.1617,-0.1617,-0.1617,-0.1617,-0.1617,-0.1617,-0.1617,-0.1617,-0.1617,-0.1617,-0.1617,-0.1617,-0.1617,-0.1415,-0.1111,-0.0202,0.0403,0.0403,0.1612,0.2621,0.3123,0.262,0.3024,0.4541,0.3328,0.2422,0.2321,0.1109,0.0706,0.1311,0.0101,-0.0909,-0.1111,-0.1313,-0.1212,-0.0404,-0.0707,-0.0808,-0.0404,0.0202,-0.0,-0.0,0.0505,-0.0,-0.0,-0.0,-0.0,0.0909,0.1111,-0.0,-0.0,0.2726,0.3836,0.3831,0.5041,0.5954,0.6253,0.6345,0.6437,0.6437,0.6437,0.6437,0.6437,0.6437,0.6437,0.6437,0.6437,0.6437,0.6437,0.6437,0.6437,0.6437,0.6437,0.6437,0.6437,0.6437,0.6401,0.6287,0.6111,0.6009,-0.7023,-0.6196,-0.2596,-0.0448,-0.0112,-0.0673,-0.0897,-0.0,-0.0,-0.0,-0.0,-0.0,-0.0,-0.0,-0.0,-0.0,-0.0,-0.0,-0.0,-0.0,-0.0,-0.0561,-0.1458,-0.157,-0.1335,-0.0767,-0.0861,-0.1163,-0.1564,-0.1634,-0.1617,-0.1617,-0.1617,-0.1617,-0.1617,-0.1617,-0.1617,-0.1617,-0.1617,-0.1617,-0.1617,-0.1617,-0.1617,-0.1617,-0.1617,-0.1617,-0.1617,-0.1617,-0.101,0.0202,0.1008,0.1412,0.1613,0.3324,0.413,0.3324,0.4028,0.4636,0.4642,0.2825,0.2623,0.4144,0.2522,0.1513,0.1714,0.1412,0.1008,0.0403,-0.0808,-0.0606,0.1008,-0.0303,-0.1212,-0.1009,0.0706,0.2725,0.3536,0.1715,-0.0,-0.0,-0.0,0.101,0.3237,0.3844,0.3537,0.2321,0.2724,0.3633,0.4744,0.5448,0.5949,0.6047,0.6237,0.6337,0.6437,0.6437,0.6437,0.6437,0.6437,0.6437,0.6437,0.6437,0.6437,0.6437,0.6437,0.6437,0.6437,0.6437,0.6437,0.6437,0.6431,0.6404,0.629,0.6165,0.6125,-0.7161,-0.6797,-0.2033,-0.0448,-0.1009,-0.1121,-0.0673,-0.0,-0.0,-0.0448,-0.1009,-0.1121,-0.1009,-0.1009,-0.0673,-0.0561,-0.0561,-0.0561,-0.0561,-0.0561,-0.0561,-0.0785,-0.1233,-0.1553,-0.1541,-0.1309,-0.1277,-0.1361,-0.1555,-0.1632,-0.1617,-0.1617,-0.1617,-0.1617,-0.1617,-0.1617,-0.1617,-0.1617,-0.1617,-0.1617,-0.1617,-0.1617,-0.1617,-0.1617,-0.1617,-0.1617,-0.1415,-0.0404,0.0403,0.0605,0.1814,0.2519,0.2519,0.4029,0.4634,0.423,0.4533,0.4836,0.4839,0.3929,0.3828,0.4742,0.3428,0.2821,0.3324,0.2318,0.1916,0.2722,0.1412,0.0706,0.1412,0.0807,0.0101,-0.0101,0.0907,0.2522,0.445,0.3636,0.2522,0.1613,0.1412,0.1817,0.3234,0.4246,0.445,0.394,0.3836,0.4239,0.5251,0.5548,0.5741,0.5942,0.6239,0.6337,0.6437,0.6437,0.6437,0.6437,0.6437,0.6437,0.6437,0.6437,0.6437,0.6437,0.6437,0.6437,0.6437,0.6437,0.6437,0.6437,0.6437,0.642,0.6374,0.6274,0.6157,-0.5219,-0.4737,-0.1698,-0.1009,-0.1795,-0.1795,-0.1346,-0.0561,-0.0336,-0.0785,-0.157,-0.1683,-0.1795,-0.1683,-0.1346,-0.1121,-0.1121,-0.1121,-0.1121,-0.1121,-0.1121,-0.1119,-0.1113,-0.1541,-0.1741,-0.1721,-0.1683,-0.1555,-0.1649,-0.1629,-0.1617,-0.1617,-0.1617,-0.1617,-0.1617,-0.1617,-0.1617,-0.1618,-0.1624,-0.1629,-0.163,-0.1637,-0.1633,-0.1619,-0.1617,-0.1617,-0.1516,0.0404,0.1613,0.1714,0.2722,0.3324,0.3626,0.4331,0.4832,0.4832,0.4832,0.4832,0.4832,0.4832,0.4832,0.4732,0.4029,0.3927,0.4331,0.3324,0.3225,0.4336,0.3428,0.2519,0.242,0.1916,0.1613,0.1612,0.1713,0.2622,0.4446,0.4752,0.4243,0.323,0.3027,0.3027,0.3229,0.4039,0.475,0.4746,0.4744,0.4843,0.5146,0.5343,0.5539,0.5839,0.6139,0.6339,0.6337,0.6437,0.6437,0.6437,0.6437,0.6437,0.6437,0.6437,0.6437,0.6437,0.6437,0.6437,0.6437,0.6437,0.6437,0.6437,0.6437,0.6437,0.6423,0.6339,0.6246,-0.0353,-0.0585,-0.1365,-0.1683,-0.1795,-0.1795,-0.1795,-0.157,-0.1121,-0.0897,-0.1121,-0.157,-0.1795,-0.1795,-0.1683,-0.1795,-0.1683,-0.1683,-0.1683,-0.1683,-0.1681,-0.1668,-0.1643,-0.1749,-0.172,-0.1676,-0.1664,-0.1645,-0.1622,-0.1618,-0.1617,-0.1618,-0.162,-0.1619,-0.1622,-0.1623,-0.1618,-0.1626,-0.1647,-0.166,-0.1663,-0.1686,-0.1671,-0.1627,-0.1619,-0.1622,-0.1316,0.0505,0.2425,0.4453,0.374,0.3732,0.4539,0.4742,0.4847,0.4845,0.4742,0.4841,0.4744,0.475,0.4849,0.4742,0.4756,0.4742,0.476,0.4558,0.4554,0.4841,0.4543,0.4444,0.4236,0.2924,0.2622,0.4034,0.3627,0.3729,0.4642,0.4744,0.4746,0.4543,0.4444,0.4444,0.4543,0.4744,0.4742,0.4839,0.4834,0.4834,0.4937,0.5138,0.5338,0.5639,0.5939,0.6139,0.6337,0.6437,0.6437,0.6445,0.645,0.645,0.6439,0.6437,0.6448,0.6448,0.6461,0.6464,0.6445,0.6437,0.6437,0.6437,0.6437,0.6437,0.6437,0.6344,0.6268,-0.1164,-0.1142,-0.1255,-0.1473,-0.1795,-0.1795,-0.1795,-0.1795,-0.157,-0.1458,-0.157,-0.1683,-0.1795,-0.1795,-0.1795,-0.1795,-0.1795,-0.1795,-0.1795,-0.1793,-0.1775,-0.176,-0.1747,-0.1713,-0.1685,-0.1663,-0.1643,-0.1628,-0.1618,-0.1617,-0.1627,-0.1643,-0.1646,-0.1654,-0.1669,-0.1673,-0.1673,-0.1674,-0.1684,-0.1689,-0.169,-0.1699,-0.1693,-0.1674,-0.1673,-0.1673,-0.1568,0.094,0.3238,0.4918,0.4596,0.4592,0.4906,0.5008,0.501,0.501,0.4904,0.4798,0.48,0.48,0.4904,0.501,0.5008,0.5004,0.501,0.5008,0.4986,0.4939,0.4922,0.4904,0.4748,0.4031,0.393,0.4535,0.4433,0.4332,0.4636,0.4839,0.4836,0.4839,0.4839,0.4841,0.4839,0.4839,0.4836,0.4834,0.4832,0.4834,0.5037,0.5238,0.5539,0.5837,0.6039,0.6339,0.6337,0.6437,0.6442,0.6467,0.6483,0.6532,0.6543,0.6589,0.6611,0.6521,0.6516,0.6486,0.6464,0.6437,0.6437,0.6437,0.6437,0.6437,0.6437,0.638,0.6328,-0.174,-0.1817,-0.1374,-0.148,-0.1796,-0.1795,-0.1795,-0.1795,-0.1795,-0.1795,-0.1795,-0.1795,-0.1795,-0.1795,-0.1795,-0.1795,-0.1795,-0.1795,-0.179,-0.1779,-0.1759,-0.1849,-0.1717,-0.1681,-0.1662,-0.1662,-0.1652,-0.1645,-0.1645,-0.1645,-0.1656,-0.1675,-0.1675,-0.1684,-0.1701,-0.1704,-0.1704,-0.1705,-0.1714,-0.1718,-0.172,-0.1729,-0.1733,-0.1733,-0.1733,-0.1723,-0.1599,0.1702,0.4047,0.5012,0.5112,0.5106,0.5106,0.5106,0.5106,0.5106,0.4998,0.4892,0.4892,0.4998,0.5,0.5214,0.5106,0.5106,0.5106,0.5106,0.5073,0.503,0.5014,0.4979,0.4906,0.4881,0.4867,0.4843,0.4832,0.4832,0.4832,0.4834,0.4834,0.4834,0.4834,0.4834,0.4832,0.4834,0.4832,0.4832,0.4832,0.4935,0.5037,0.5338,0.5536,0.5839,0.6039,0.6237,0.6337,0.6437,0.6437,0.6458,0.6483,0.6551,0.6611,0.6679,0.6692,0.6608,0.6548,0.651,0.6478,0.6448,0.6437,0.6437,0.6437,0.6437,0.6437,0.6437,0.6388,-0.14,-0.1838,-0.184,-0.1823,-0.1797,-0.1795,-0.1795,-0.1795,-0.1795,-0.1795,-0.1795,-0.1795,-0.1795,-0.1795,-0.1795,-0.1795,-0.1795,-0.1795,-0.1782,-0.1759,-0.1752,-0.183,-0.1679,-0.1672,-0.1667,-0.1668,-0.169,-0.17,-0.1697,-0.1695,-0.1698,-0.1703,-0.1704,-0.1708,-0.1707,-0.1714,-0.171,-0.1716,-0.1737,-0.175,-0.1753,-0.1774,-0.1786,-0.1789,-0.1676,-0.1653,-0.1712,0.2456,0.4927,0.5245,0.5237,0.5114,0.5132,0.5132,0.512,0.5132,0.5122,0.5116,0.512,0.5237,0.5354,0.5356,0.5231,0.5139,0.5147,0.5137,0.5128,0.5112,0.5106,0.5073,0.4994,0.4961,0.4924,0.4853,0.4832,0.4832,0.4832,0.4832,0.4832,0.4832,0.4832,0.4832,0.4832,0.4832,0.4832,0.4832,0.4832,0.4834,0.4935,0.5238,0.5338,0.5639,0.5939,0.6237,0.6337,0.6437,0.6437,0.6442,0.6467,0.651,0.6556,0.6616,0.6646,0.6586,0.6406,0.6369,0.6263,0.6239,0.6337,0.6337,0.6337,0.6437,0.6437,0.6437,0.6437,-0.1739,-0.1814,-0.1832,-0.1823,-0.1796,-0.1795,-0.1795,-0.1795,-0.1795,-0.1795,-0.1795,-0.1795,-0.1795,-0.1795,-0.1795,-0.1795,-0.1795,-0.1795,-0.1789,-0.1778,-0.1759,-0.1849,-0.172,-0.1701,-0.1691,-0.1692,-0.1699,-0.1705,-0.1705,-0.1705,-0.1713,-0.1731,-0.1735,-0.1746,-0.1763,-0.1767,-0.1767,-0.1768,-0.1776,-0.178,-0.1781,-0.179,-0.1795,-0.1683,-0.1009,-0.0892,-0.1547,0.1213,0.364,0.5296,0.53,0.5296,0.5296,0.5296,0.5296,0.5296,0.5296,0.5298,0.5296,0.5404,0.5399,0.5406,0.5404,0.5296,0.5296,0.529,0.5261,0.5214,0.52,0.5163,0.5079,0.5006,0.4943,0.4845,0.4832,0.4832,0.4834,0.4836,0.4832,0.4832,0.4832,0.4832,0.4834,0.4834,0.4832,0.4834,0.4834,0.4935,0.5236,0.5336,0.5636,0.6037,0.6237,0.6237,0.6337,0.6437,0.6437,0.6448,0.6469,0.6483,0.6524,0.6463,0.6487,0.6463,0.6284,0.6247,0.6242,0.6239,0.6337,0.6337,0.6437,0.6437,0.6437,0.6437,0.6437,-0.1847,-0.1815,-0.1832,-0.1823,-0.1796,-0.1795,-0.1795,-0.1795,-0.1795,-0.1795,-0.1795,-0.1795,-0.1795,-0.1795,-0.1795,-0.1795,-0.1795,-0.1795,-0.1795,-0.179,-0.1763,-0.1745,-0.1736,-0.1727,-0.1721,-0.1724,-0.1733,-0.1737,-0.1738,-0.1738,-0.1748,-0.1764,-0.1766,-0.1775,-0.1793,-0.1795,-0.1795,-0.1795,-0.1794,-0.1795,-0.1795,-0.1795,-0.1795,-0.1683,-0.1121,-0.1121,-0.157,0.056,0.2911,0.4931,0.5382,0.5382,0.5382,0.538,0.5382,0.5382,0.5382,0.538,0.5382,0.5371,0.5382,0.5382,0.5382,0.5382,0.5382,0.5382,0.5349,0.5308,0.5294,0.5257,0.5169,0.5114,0.5035,0.4947,0.4871,0.4841,0.4839,0.4867,0.4885,0.4892,0.489,0.4885,0.4883,0.4847,0.4839,0.4834,0.4935,0.5037,0.5438,0.5639,0.5937,0.6237,0.6237,0.6337,0.6337,0.6437,0.6437,0.6456,0.6478,0.6483,0.6505,0.6347,0.6379,0.6324,0.6255,0.6345,0.6239,0.6239,0.6339,0.6337,0.6437,0.6437,0.6437,0.6437,0.6437,-0.1838,-0.1838,-0.1838,-0.182,-0.1796,-0.1795,-0.1795,-0.1795,-0.1795,-0.1795,-0.1795,-0.1795,-0.1795,-0.1795,-0.1795,-0.1795,-0.1795,-0.1795,-0.1795,-0.1788,-0.1767,-0.1746,-0.1729,-0.1744,-0.1752,-0.1756,-0.1777,-0.1789,-0.1784,-0.1785,-0.1795,-0.1791,-0.179,-0.1793,-0.1795,-0.1795,-0.1795,-0.1795,-0.1795,-0.1795,-0.1795,-0.1795,-0.1795,-0.1795,-0.1683,-0.1683,-0.1458,0.0896,0.3248,0.5044,0.5382,0.5382,0.5382,0.5382,0.5382,0.5382,0.5382,0.5382,0.5382,0.5382,0.5382,0.5382,0.5382,0.5382,0.5382,0.5382,0.538,0.5367,0.5369,0.5339,0.5269,0.5228,0.5181,0.5102,0.4965,0.4885,0.4863,0.4934,0.4965,0.4965,0.4969,0.4963,0.4941,0.4875,0.4845,0.4834,0.4935,0.5138,0.5338,0.5639,0.5942,0.6139,0.6337,0.6337,0.6437,0.6437,0.6437,0.6345,0.6366,0.6271,0.6276,0.6212,0.6162,0.6108,0.6152,0.6242,0.6337,0.6239,0.6239,0.6337,0.6437,0.6437,0.6437,0.6437,0.6437,-0.1807,-0.1806,-0.1807,-0.1802,-0.1795,-0.1795,-0.1795,-0.1795,-0.1795,-0.1795,-0.1795,-0.1795,-0.1795,-0.1795,-0.1795,-0.1795,-0.1795,-0.1795,-0.1795,-0.1794,-0.1788,-0.178,-0.1773,-0.1778,-0.1782,-0.1784,-0.1789,-0.1795,-0.1795,-0.1795,-0.1795,-0.1795,-0.1795,-0.1795,-0.1795,-0.1795,-0.1795,-0.1795,-0.1795,-0.1795,-0.1795,-0.1795,-0.1795,-0.1795,-0.1795,-0.1795,-0.1346,0.224,0.4594,0.527,0.5382,0.5382,0.5382,0.5382,0.5382,0.5382,0.5382,0.5382,0.5382,0.5382,0.5382,0.5382,0.5382,0.5382,0.5382,0.5382,0.5382,0.5382,0.5382,0.5371,0.5337,0.5286,0.521,0.5122,0.5065,0.5032,0.5028,0.5053,0.5051,0.4988,0.4981,0.4957,0.4906,0.4867,0.4839,0.4836,0.4935,0.5035,0.5436,0.5636,0.5939,0.6239,0.6437,0.6437,0.6437,0.6437,0.6437,0.6337,0.6245,0.605,0.6052,0.5962,0.5918,0.5838,0.5967,0.6137,0.6139,0.6042,0.6239,0.6337,0.6437,0.6437,0.6437,0.6437,0.6437,-0.1806,-0.1795,-0.1795,-0.1795,-0.1795,-0.1795,-0.1795,-0.1795,-0.1795,-0.1795,-0.1795,-0.1795,-0.1795,-0.1795,-0.1795,-0.1795,-0.1795,-0.1795,-0.1795,-0.1795,-0.1794,-0.1793,-0.1793,-0.1795,-0.1795,-0.1795,-0.1795,-0.1795,-0.1795,-0.1795,-0.1795,-0.1795,-0.1795,-0.1795,-0.1795,-0.1795,-0.1795,-0.1795,-0.1795,-0.1795,-0.1795,-0.1795,-0.1795,-0.1795,-0.1795,-0.1346,0.0336,0.2687,0.4033,0.4592,0.5044,0.5382,0.5382,0.5382,0.5382,0.5382,0.5382,0.5382,0.5382,0.5382,0.5382,0.5382,0.5382,0.5382,0.5382,0.5382,0.5382,0.5382,0.5382,0.5382,0.5373,0.5331,0.5282,0.5243,0.5222,0.5192,0.5122,0.5139,0.5137,0.5102,0.5081,0.5049,0.4957,0.4916,0.4873,0.4847,0.5035,0.5236,0.5534,0.5734,0.5937,0.6237,0.6437,0.6437,0.6437,0.6437,0.6237,0.6237,0.6037,0.5842,0.5839,0.5737,0.5869,0.5901,0.5861,0.5937,0.6039,0.6139,0.6239,0.6337,0.6437,0.6437,0.6437,0.6437,0.6437,-0.182,-0.1795,-0.1798,-0.1798,-0.1796,-0.1798,-0.18,-0.1795,-0.1795,-0.1795,-0.1795,-0.1795,-0.1795,-0.1795,-0.1795,-0.1795,-0.1795,-0.1795,-0.1795,-0.1795,-0.1795,-0.1795,-0.1795,-0.1795,-0.1795,-0.1795,-0.1795,-0.1795,-0.1795,-0.1795,-0.1795,-0.1795,-0.1795,-0.1795,-0.1795,-0.1795,-0.1795,-0.1795,-0.1795,-0.1795,-0.1795,-0.1795,-0.1795,-0.1795,-0.1795,-0.0336,0.1568,0.28,0.2911,0.358,0.4706,0.5382,0.5382,0.5382,0.5382,0.5382,0.5382,0.5382,0.5382,0.5382,0.5382,0.5382,0.5382,0.5382,0.5382,0.5382,0.5382,0.5382,0.5382,0.5382,0.5382,0.5377,0.5367,0.5349,0.5363,0.5294,0.52,0.521,0.5255,0.5134,0.5239,0.5198,0.5108,0.5024,0.4937,0.4845,0.5035,0.5336,0.5636,0.5837,0.6037,0.6337,0.6437,0.6437,0.6437,0.6437,0.6237,0.6037,0.5739,0.5539,0.5636,0.5737,0.5839,0.5939,0.5939,0.6139,0.6237,0.6337,0.6337,0.6437,0.6437,0.6437,0.6437,0.6437,0.6437,-0.1801,-0.1797,-0.1821,-0.1817,-0.1801,-0.1819,-0.1817,-0.1795,-0.1795,-0.1795,-0.1795,-0.1795,-0.1795,-0.1795,-0.1795,-0.1795,-0.1795,-0.1795,-0.1795,-0.1795,-0.1795,-0.1795,-0.1795,-0.1795,-0.1795,-0.1795,-0.1795,-0.1795,-0.1795,-0.1795,-0.1795,-0.1795,-0.1795,-0.1795,-0.1795,-0.1795,-0.1795,-0.1795,-0.1795,-0.1795,-0.1795,-0.1795,-0.1795,-0.1795,-0.1795,-0.0448,0.1906,0.3698,0.4255,0.403,0.4706,0.5382,0.5382,0.5382,0.5382,0.5382,0.5382,0.5382,0.5382,0.5382,0.5382,0.5382,0.5382,0.5382,0.5382,0.5382,0.5382,0.5382,0.5382,0.5382,0.5382,0.5382,0.5382,0.5382,0.5382,0.5367,0.5333,0.5335,0.5316,0.5269,0.5243,0.5186,0.5035,0.5004,0.493,0.4857,0.5035,0.5338,0.5639,0.5937,0.6137,0.6437,0.6437,0.6437,0.6337,0.6337,0.6037,0.5837,0.5539,0.5539,0.5636,0.5636,0.5842,0.5942,0.6042,0.6139,0.6337,0.6437,0.6437,0.6437,0.6437,0.6437,0.6437,0.6437,0.6437,-0.1808,-0.1797,-0.1812,-0.181,-0.18,-0.1812,-0.181,-0.1797,-0.1795,-0.1795,-0.1795,-0.1795,-0.1795,-0.1795,-0.1795,-0.1795,-0.1795,-0.1795,-0.1795,-0.1795,-0.1795,-0.1795,-0.1795,-0.1795,-0.1795,-0.1795,-0.1795,-0.1795,-0.1795,-0.1795,-0.1795,-0.1795,-0.1795,-0.1795,-0.1795,-0.1795,-0.1795,-0.1795,-0.1795,-0.1795,-0.1795,-0.1795,-0.1795,-0.1795,-0.1683,-0.0673,0.1681,0.4147,0.4819,0.4706,0.5044,0.5382,0.5382,0.5382,0.5382,0.5382,0.5382,0.5382,0.5382,0.5382,0.5382,0.5382,0.5382,0.5382,0.5382,0.5382,0.5382,0.5382,0.5382,0.5382,0.5382,0.5382,0.5382,0.5382,0.5382,0.5382,0.5382,0.5382,0.5367,0.5308,0.5273,0.5184,0.5088,0.5004,0.4928,0.4855,0.5236,0.5536,0.5636,0.5937,0.6237,0.6437,0.6437,0.6437,0.6337,0.6134,0.5834,0.5636,0.5438,0.5539,0.5739,0.5739,0.5842,0.5942,0.6139,0.6239,0.6437,0.6437,0.6437,0.6437,0.6437,0.6437,0.6437,0.6437,0.6437,-0.1819,-0.1795,-0.18,-0.18,-0.1796,-0.1801,-0.1801,-0.1795,-0.1795,-0.1795,-0.1795,-0.1795,-0.1795,-0.1795,-0.1795,-0.1795,-0.1795,-0.1795,-0.1795,-0.1795,-0.1795,-0.1795,-0.1795,-0.1795,-0.1795,-0.1795,-0.1795,-0.1795,-0.1795,-0.1795,-0.1795,-0.1795,-0.1795,-0.1795,-0.1795,-0.1795,-0.1795,-0.1795,-0.1795,-0.1795,-0.1795,-0.1795,-0.1795,-0.1795,-0.1794,-0.0224,0.2352,0.437,0.5382,0.5382,0.5382,0.5382,0.5382,0.5382,0.5382,0.5382,0.5382,0.5382,0.5382,0.5382,0.5382,0.5382,0.5382,0.5382,0.5382,0.5382,0.5382,0.5382,0.5382,0.5382,0.5382,0.5382,0.5382,0.5382,0.5382,0.5382,0.538,0.5373,0.5345,0.5337,0.5273,0.5188,0.5092,0.5002,0.4926,0.4964,0.5347,0.5634,0.5737,0.5937,0.6237,0.6437,0.6437,0.6239,0.6239,0.5937,0.5636,0.5536,0.5338,0.5539,0.5839,0.5939,0.6039,0.6239,0.6337,0.6437,0.6437,0.6437,0.6437,0.6437,0.6437,0.6437,0.6437,0.6437,0.6434,-0.18,-0.1797,-0.1823,-0.1819,-0.1801,-0.1821,-0.1816,-0.1797,-0.1795,-0.1795,-0.1795,-0.1795,-0.1795,-0.1795,-0.1795,-0.1795,-0.1795,-0.1795,-0.1795,-0.1795,-0.1795,-0.1795,-0.1795,-0.1795,-0.1795,-0.1795,-0.1795,-0.1795,-0.1795,-0.1795,-0.1795,-0.1795,-0.1795,-0.1795,-0.1795,-0.1795,-0.1795,-0.1795,-0.1795,-0.1795,-0.1795,-0.1795,-0.157,-0.1458,-0.1121,0.0895,0.3696,0.5044,0.5382,0.5382,0.5382,0.5382,0.5382,0.5382,0.5382,0.5382,0.5382,0.5382,0.5382,0.5382,0.5382,0.5382,0.5382,0.5382,0.5382,0.5382,0.5382,0.5382,0.5382,0.5382,0.5382,0.5382,0.5382,0.5382,0.5382,0.5382,0.5369,0.5337,0.529,0.5284,0.5243,0.5186,0.5179,0.5083,0.5014,0.5061,0.5343,0.5636,0.5737,0.6037,0.6337,0.6437,0.6437,0.6239,0.6042,0.5639,0.5338,0.5436,0.5338,0.5536,0.5837,0.6137,0.6337,0.6337,0.6437,0.6437,0.6437,0.6437,0.6437,0.6437,0.6437,0.6437,0.6429,0.6423,0.641,-0.1795,-0.1797,-0.1811,-0.1808,-0.1799,-0.181,-0.1809,-0.1796,-0.1795,-0.1795,-0.1795,-0.1795,-0.1795,-0.1795,-0.1795,-0.1795,-0.1795,-0.1795,-0.1795,-0.1795,-0.1795,-0.1795,-0.1795,-0.1795,-0.1795,-0.1795,-0.1795,-0.1795,-0.1795,-0.1795,-0.1795,-0.1795,-0.1795,-0.1795,-0.1795,-0.1795,-0.1795,-0.1795,-0.1795,-0.1795,-0.1795,-0.1795,-0.1346,-0.0,0.1232,0.3134,0.4594,0.5382,0.5382,0.5382,0.5382,0.5382,0.5382,0.5382,0.5382,0.5382,0.5382,0.5382,0.5382,0.5382,0.5382,0.5382,0.5382,0.5382,0.5382,0.5382,0.5382,0.5382,0.5382,0.5382,0.5382,0.5382,0.5382,0.5382,0.5382,0.5382,0.5373,0.5337,0.5294,0.5235,0.5143,0.5183,0.5224,0.5144,0.509,0.5258,0.5438,0.5636,0.5737,0.6037,0.6437,0.6339,0.6239,0.5939,0.5741,0.5441,0.514,0.5238,0.5438,0.5536,0.5837,0.6137,0.6337,0.6437,0.6437,0.6437,0.6437,0.6437,0.6437,0.6437,0.6429,0.6423,0.6415,0.6404,0.6369,-0.1795,-0.1795,-0.1795,-0.1795,-0.1795,-0.1795,-0.1795,-0.1795,-0.1795,-0.1795,-0.1795,-0.1795,-0.1795,-0.1795,-0.1795,-0.1795,-0.1795,-0.1795,-0.1795,-0.1795,-0.1795,-0.1795,-0.1795,-0.1795,-0.1795,-0.1795,-0.1795,-0.1795,-0.1795,-0.1795,-0.1795,-0.1795,-0.1795,-0.1795,-0.1795,-0.1795,-0.1795,-0.1795,-0.1795,-0.1795,-0.157,-0.157,-0.0672,0.1681,0.4147,0.527,0.5382,0.5382,0.5382,0.5382,0.5382,0.5382,0.5382,0.5382,0.5382,0.5382,0.5382,0.5382,0.5382,0.5382,0.5382,0.5382,0.5382,0.5382,0.5382,0.5382,0.5382,0.5382,0.5382,0.5382,0.5382,0.5382,0.5382,0.5382,0.5382,0.5382,0.5373,0.5343,0.5296,0.5204,0.5065,0.5101,0.5175,0.5112,0.496,0.5256,0.5436,0.5737,0.5839,0.6137,0.6337,0.6239,0.6039,0.5639,0.5438,0.5238,0.5138,0.524,0.5438,0.5636,0.5937,0.6237,0.6337,0.6437,0.6437,0.6437,0.6437,0.6437,0.6437,0.6431,0.6418,0.6393,0.6361,0.6393,0.6429,-0.1795,-0.1795,-0.1795,-0.1795,-0.1795,-0.1795,-0.1795,-0.1795,-0.1795,-0.1795,-0.1795,-0.1795,-0.1795,-0.1795,-0.1795,-0.1795,-0.1795,-0.1795,-0.1795,-0.1795,-0.1795,-0.1795,-0.1795,-0.1795,-0.1795,-0.1795,-0.1795,-0.1795,-0.1795,-0.1795,-0.1795,-0.1795,-0.1795,-0.1795,-0.1795,-0.1795,-0.1795,-0.1795,-0.1795,-0.1346,-0.0561,-0.112,-0.0112,0.1789,0.4032,0.5382,0.5382,0.5382,0.5382,0.5382,0.5382,0.5382,0.5382,0.5382,0.5382,0.5382,0.5382,0.5382,0.5382,0.5382,0.5382,0.5382,0.5382,0.5382,0.5382,0.5382,0.5382,0.5382,0.5382,0.5382,0.5382,0.5382,0.5382,0.5382,0.5382,0.5382,0.5377,0.5355,0.5306,0.522,0.5098,0.5022,0.5076,0.5001,0.4937,0.5238,0.5438,0.5739,0.5939,0.6239,0.6237,0.6039,0.5739,0.5438,0.5238,0.5037,0.5037,0.5138,0.5338,0.5636,0.5837,0.6139,0.6337,0.6437,0.6431,0.6415,0.6401,0.6404,0.6426,0.6396,0.6342,0.6309,0.6285,0.6398,0.6582,-0.1795,-0.1795,-0.1795,-0.1795,-0.1795,-0.1795,-0.1795,-0.1795,-0.1795,-0.1795,-0.1795,-0.1795,-0.1795,-0.1795,-0.1795,-0.1795,-0.1795,-0.1795,-0.1795,-0.1795,-0.1795,-0.1795,-0.1795,-0.1795,-0.1795,-0.1795,-0.1795,-0.1795,-0.1795,-0.1795,-0.1795,-0.1795,-0.1795,-0.1795,-0.1795,-0.1795,-0.1795,-0.1795,-0.1683,-0.1121,-0.0224,0.0224,0.0671,0.1789,0.4143,0.5156,0.5382,0.5382,0.5382,0.5382,0.5382,0.5382,0.5382,0.5382,0.5382,0.5382,0.5382,0.5382,0.5382,0.5382,0.5382,0.5382,0.5382,0.5382,0.5382,0.5382,0.5382,0.5382,0.5382,0.5382,0.5382,0.5382,0.5382,0.5382,0.5382,0.5382,0.5377,0.5355,0.5312,0.5222,0.5137,0.5061,0.5085,0.4894,0.5041,0.5539,0.5639,0.5737,0.5939,0.6139,0.6039,0.5837,0.5539,0.5238,0.5037,0.4834,0.4935,0.5037,0.514,0.5438,0.5739,0.5939,0.6221,0.6294,0.6366,0.6355,0.635,0.6336,0.6328,0.6287,0.6244,0.6489,0.6631,0.6998,0.7349,-0.1795,-0.1795,-0.1795,-0.1795,-0.1795,-0.1795,-0.1795,-0.1795,-0.1795,-0.1795,-0.1795,-0.1795,-0.1795,-0.1795,-0.1795,-0.1795,-0.1795,-0.1795,-0.1795,-0.1795,-0.1795,-0.1795,-0.1795,-0.1795,-0.1795,-0.1795,-0.1795,-0.1795,-0.1795,-0.1795,-0.1795,-0.1795,-0.1795,-0.1795,-0.1795,-0.1795,-0.1795,-0.1795,-0.1458,-0.0561,0.0448,0.1344,0.2014,0.3134,0.4255,0.5382,0.5382,0.5382,0.5382,0.5382,0.5382,0.5382,0.5382,0.5382,0.5382,0.5382,0.5382,0.5382,0.5382,0.5382,0.5382,0.5382,0.5382,0.5382,0.5382,0.5382,0.5382,0.5382,0.5382,0.5382,0.5382,0.5382,0.5382,0.5382,0.5382,0.5382,0.538,0.5363,0.5345,0.5286,0.5196,0.5094,0.5006,0.49,0.5151,0.5744,0.5939,0.5937,0.5937,0.6039,0.5739,0.5539,0.5236,0.5037,0.4935,0.4834,0.4834,0.4931,0.5033,0.5334,0.5732,0.5902,0.6069,0.6238,0.6293,0.6252,0.6222,0.6222,0.6219,0.6274,0.6418,0.6823,0.7118,0.7475,0.8121,-0.1795,-0.1795,-0.1795,-0.1795,-0.1795,-0.1795,-0.1795,-0.1795,-0.1795,-0.1795,-0.1795,-0.1795,-0.1795,-0.1795,-0.1795,-0.1795,-0.1795,-0.1795,-0.1795,-0.1795,-0.1795,-0.1795,-0.1795,-0.1795,-0.1795,-0.1795,-0.1795,-0.1795,-0.1795,-0.1795,-0.1795,-0.1795,-0.1795,-0.1795,-0.1683,-0.157,-0.157,-0.1234,-0.0673,0.0448,0.1343,0.2014,0.2796,0.4482,0.5156,0.5382,0.5382,0.5382,0.5382,0.5382,0.5382,0.5382,0.5382,0.5382,0.5382,0.5382,0.5382,0.5382,0.5382,0.5382,0.5382,0.5382,0.5382,0.5382,0.5382,0.5382,0.5382,0.5382,0.5382,0.5382,0.5382,0.5382,0.5382,0.5382,0.5382,0.5382,0.5382,0.5382,0.5361,0.5335,0.5245,0.5116,0.512,0.5008,0.5153,0.5741,0.5939,0.5839,0.5739,0.5739,0.5441,0.5238,0.5035,0.4834,0.4834,0.4834,0.4834,0.4922,0.5114,0.5415,0.5817,0.5976,0.5987,0.6238,0.6379,0.6236,0.6278,0.6629,0.6798,0.6523,0.6671,0.7322,0.8189,0.8845,0.9305,-0.1795,-0.1795,-0.1795,-0.1795,-0.1795,-0.1795,-0.1795,-0.1795,-0.1795,-0.1795,-0.1795,-0.1795,-0.1795,-0.1795,-0.1795,-0.1795,-0.1795,-0.1795,-0.1795,-0.1795,-0.1795,-0.1795,-0.1795,-0.1795,-0.1795,-0.1795,-0.1795,-0.1795,-0.1795,-0.1795,-0.1795,-0.1795,-0.1795,-0.1795,-0.1683,-0.0,-0.0,-0.0448,0.0448,0.1679,0.2462,0.2236,0.2908,0.5156,0.5382,0.5382,0.5382,0.5382,0.5382,0.5382,0.5382,0.5382,0.5382,0.5382,0.5382,0.5382,0.5382,0.5382,0.5382,0.5382,0.5382,0.5382,0.5382,0.5382,0.5382,0.5382,0.5382,0.5382,0.5382,0.5382,0.5382,0.5382,0.5382,0.5382,0.5382,0.5382,0.5382,0.5382,0.5345,0.5304,0.5208,0.5092,0.5207,0.5216,0.5374,0.5639,0.5739,0.5839,0.5739,0.5539,0.5238,0.5138,0.4935,0.4834,0.4834,0.4834,0.4832,0.491,0.5085,0.536,0.5635,0.5749,0.5865,0.6116,0.6538,0.6746,0.6958,0.7353,0.735,0.7122,0.7524,0.822,0.9089,1.0032,1.0401,-0.1795,-0.1795,-0.1795,-0.1795,-0.1795,-0.1795,-0.1795,-0.1795,-0.1795,-0.1795,-0.1795,-0.1795,-0.1795,-0.1795,-0.1795,-0.1795,-0.1795,-0.1795,-0.1795,-0.1795,-0.1795,-0.1795,-0.1795,-0.1795,-0.1795,-0.1795,-0.1795,-0.1795,-0.1795,-0.1795,-0.1795,-0.1795,-0.1795,-0.1795,-0.157,-0.0,-0.0,-0.0,0.1567,0.2573,0.3357,0.3357,0.3357,0.527,0.5382,0.5382,0.5382,0.5382,0.5382,0.5382,0.5382,0.5382,0.5382,0.5382,0.5382,0.5382,0.5382,0.5382,0.5382,0.5382,0.5382,0.5382,0.5382,0.5382,0.5382,0.5382,0.5382,0.5382,0.5382,0.5382,0.5382,0.5382,0.5382,0.5382,0.5382,0.5382,0.5382,0.538,0.5322,0.5267,0.5167,0.5183,0.5298,0.5313,0.5468,0.5539,0.5541,0.5541,0.5541,0.534,0.5138,0.4937,0.4935,0.4834,0.4832,0.4804,0.4773,0.4749,0.4918,0.5065,0.5218,0.5431,0.5943,0.6473,0.6869,0.7228,0.7739,0.8372,0.8181,0.7818,0.85,0.9309,1.0244,1.115,1.1341,-0.1795,-0.1795,-0.1795,-0.1795,-0.1795,-0.1795,-0.1795,-0.1795,-0.1795,-0.1795,-0.1795,-0.1795,-0.1795,-0.1795,-0.1795,-0.1795,-0.1795,-0.1795,-0.1795,-0.1795,-0.1795,-0.1795,-0.1795,-0.1795,-0.1795,-0.1795,-0.1795,-0.1795,-0.1795,-0.1795,-0.1795,-0.1683,-0.157,-0.157,-0.157,-0.0561,-0.0,-0.0,-0.0,0.3469,0.3918,0.448,0.5044,0.527,0.5382,0.5382,0.5382,0.5382,0.5382,0.5382,0.5382,0.5382,0.5382,0.5382,0.5382,0.5382,0.5382,0.5382,0.5382,0.5382,0.5382,0.5382,0.5382,0.5382,0.5382,0.5382,0.5382,0.5382,0.5382,0.5382,0.5382,0.5382,0.5382,0.5382,0.5382,0.5382,0.5382,0.538,0.5326,0.5255,0.5163,0.5179,0.5292,0.541,0.5461,0.5536,0.534,0.524,0.524,0.5138,0.4935,0.4935,0.4832,0.481,0.4796,0.4749,0.4716,0.4692,0.4842,0.4977,0.5204,0.5418,0.602,0.6731,0.7524,0.811,0.8808,0.9415,0.9409,0.9505,0.9818,1.0566,1.1449,1.2016,1.2011,-0.1795,-0.1795,-0.1795,-0.1795,-0.1795,-0.1795,-0.1795,-0.1795,-0.1795,-0.1795,-0.1795,-0.1795,-0.1795,-0.1795,-0.1795,-0.1795,-0.1795,-0.1795,-0.1795,-0.1795,-0.1795,-0.1795,-0.1795,-0.1795,-0.1795,-0.1795,-0.1795,-0.1795,-0.1795,-0.1795,-0.1795,-0.1683,-0.1009,-0.0561,-0.0224,0.056,-0.0,-0.0,0.392,0.4819,0.4819,0.5156,0.5382,0.5382,0.5382,0.5382,0.5382,0.5382,0.5382,0.5382,0.5382,0.5382,0.5382,0.5382,0.5382,0.5382,0.5382,0.5382,0.5382,0.5382,0.5382,0.5382,0.5382,0.5382,0.5382,0.5382,0.5382,0.5382,0.5382,0.5382,0.5382,0.5382,0.5382,0.5382,0.5382,0.5382,0.5382,0.538,0.5345,0.5253,0.5163,0.5135,0.5231,0.5293,0.5452,0.5336,0.5238,0.524,0.524,0.5037,0.4834,0.4834,0.4826,0.4794,0.4759,0.4706,0.4661,0.4632,0.4853,0.5146,0.5363,0.5629,0.6536,0.7563,0.8336,0.9106,0.9745,1.0491,1.1054,1.139,1.137,1.1339,1.1799,1.2172,1.2199,-0.1795,-0.1795,-0.1795,-0.1795,-0.1795,-0.1795,-0.1795,-0.1795,-0.1795,-0.1795,-0.1795,-0.1795,-0.1795,-0.1795,-0.1795,-0.1795,-0.1795,-0.1795,-0.1795,-0.1795,-0.1795,-0.1795,-0.1795,-0.1795,-0.1795,-0.1795,-0.1795,-0.1795,-0.1795,-0.1795,-0.1458,-0.1009,-0.0336,0.0448,0.112,0.2239,0.2686,0.3582,0.448,0.527,0.527,0.5382,0.5382,0.5382,0.5382,0.5382,0.5382,0.5382,0.5382,0.5382,0.5382,0.5382,0.5382,0.5382,0.5382,0.5382,0.5382,0.5382,0.5382,0.5382,0.5382,0.5382,0.5382,0.5382,0.5382,0.5382,0.5382,0.5382,0.5382,0.5382,0.5382,0.5382,0.5382,0.5382,0.5382,0.5382,0.5382,0.538,0.5341,0.5251,0.5139,0.5106,0.5194,0.5168,0.524,0.5238,0.5138,0.5138,0.5037,0.4935,0.4824,0.4814,0.4792,0.4847,0.4801,0.4657,0.4614,0.4577,0.5087,0.558,0.5958,0.6345,0.7421,0.8322,0.8897,0.9692,1.0672,1.145,1.1791,1.2151,1.2199,1.2256,1.2395,1.2334,1.2404,-0.1794,-0.1795,-0.1794,-0.1793,-0.1795,-0.1795,-0.1795,-0.1795,-0.1795,-0.1795,-0.1795,-0.1795,-0.1795,-0.1795,-0.1795,-0.1795,-0.1795,-0.1795,-0.1795,-0.1795,-0.1795,-0.1795,-0.1795,-0.1795,-0.1795,-0.1795,-0.1795,-0.1795,-0.1795,-0.1795,-0.1234,-0.0336,0.0112,0.1344,0.2574,0.347,0.3694,0.4255,0.4819,0.5382,0.5382,0.5382,0.5382,0.5382,0.5382,0.5382,0.5382,0.5382,0.5382,0.5382,0.5382,0.5382,0.5382,0.5382,0.5382,0.5382,0.5382,0.5382,0.5382,0.5382,0.5382,0.5382,0.5382,0.5382,0.5382,0.5382,0.5382,0.5382,0.5382,0.5382,0.5382,0.5382,0.5382,0.5382,0.5382,0.5382,0.5382,0.5361,0.5318,0.5235,0.512,0.5106,0.511,0.5166,0.5155,0.5069,0.5065,0.4935,0.4935,0.4935,0.4816,0.4777,0.4845,0.4888,0.4942,0.5216,0.5553,0.5808,0.5981,0.6494,0.6789,0.7269,0.8285,0.9128,0.9457,1.0202,1.1303,1.1967,1.231,1.2571,1.2597,1.2603,1.2522,1.2576,1.2603,-0.1775,-0.1792,-0.1772,-0.1775,-0.1793,-0.1795,-0.1795,-0.1795,-0.1795,-0.1795,-0.1795,-0.1795,-0.1792,-0.1795,-0.1795,-0.1795,-0.1795,-0.1795,-0.1795,-0.1795,-0.1795,-0.1795,-0.1795,-0.1795,-0.1795,-0.1795,-0.1795,-0.1795,-0.1795,-0.1795,-0.1121,-0.0112,0.0896,0.2239,0.347,0.448,0.4594,0.4819,0.527,0.5382,0.5382,0.5382,0.5382,0.5382,0.5382,0.5382,0.5382,0.5382,0.5382,0.5382,0.5382,0.5382,0.5382,0.5382,0.5382,0.5382,0.5382,0.5382,0.5382,0.5382,0.5382,0.5382,0.5382,0.5382,0.5382,0.5382,0.5382,0.5382,0.5382,0.5382,0.5382,0.5382,0.5382,0.5382,0.5382,0.5382,0.5382,0.5371,0.5322,0.5212,0.5098,0.5126,0.5131,0.5181,0.5073,0.4995,0.4991,0.4954,0.4834,0.4834,0.5003,0.5059,0.533,0.5477,0.6039,0.65,0.6816,0.7042,0.7247,0.7537,0.8092,0.8675,0.9353,0.9883,1.0342,1.1125,1.2047,1.248,1.255,1.2684,1.2711,1.2737,1.2759,1.2759,1.2694,-0.1749,-0.1773,-0.1758,-0.176,-0.1773,-0.1765,-0.1759,-0.1761,-0.1772,-0.1772,-0.1761,-0.177,-0.1777,-0.1778,-0.1787,-0.1795,-0.1795,-0.1795,-0.1795,-0.1795,-0.1793,-0.1795,-0.1795,-0.1795,-0.1795,-0.1795,-0.1795,-0.1795,-0.1683,-0.0897,-0.0224,0.0784,0.1903,0.3135,0.4255,0.4931,0.527,0.527,0.5382,0.5382,0.5382,0.5382,0.5382,0.5382,0.5382,0.5382,0.5382,0.5382,0.5382,0.5382,0.5382,0.5382,0.5382,0.5382,0.5382,0.5382,0.5382,0.5382,0.5382,0.5382,0.5382,0.5382,0.5382,0.5382,0.5382,0.5382,0.5382,0.5382,0.5382,0.5382,0.5382,0.5382,0.5382,0.5382,0.5382,0.5382,0.5382,0.5382,0.5298,0.519,0.5102,0.5135,0.507,0.5122,0.508,0.5075,0.5372,0.5653,0.5336,0.5035,0.539,0.5628,0.5912,0.6285,0.6946,0.7508,0.7657,0.7924,0.8275,0.8656,0.9279,0.9875,1.0336,1.0899,1.1376,1.1935,1.2247,1.2549,1.264,1.2759,1.2759,1.2759,1.2759,1.2759,1.2657,-0.1718,-0.1746,-0.1746,-0.1744,-0.1742,-0.1719,-0.1706,-0.1703,-0.173,-0.1729,-0.1715,-0.1738,-0.175,-0.1752,-0.1771,-0.178,-0.1776,-0.1773,-0.1772,-0.1789,-0.1785,-0.1784,-0.1786,-0.1794,-0.1795,-0.1795,-0.1795,-0.1683,-0.1121,-0.0448,0.0672,0.1903,0.291,0.3918,0.4931,0.527,0.5382,0.5382,0.5382,0.5382,0.5382,0.5382,0.5382,0.5382,0.5382,0.5382,0.5382,0.5382,0.5382,0.5382,0.5382,0.5382,0.5382,0.5382,0.5382,0.5382,0.5382,0.5382,0.5382,0.5382,0.5382,0.5382,0.5382,0.5382,0.5382,0.5382,0.5382,0.5382,0.5382,0.5382,0.5382,0.5382,0.5382,0.5382,0.5382,0.5382,0.5382,0.5363,0.5294,0.519,0.511,0.5043,0.5116,0.5064,0.5298,0.5269,0.5546,0.6139,0.6334,0.5834,0.6093,0.6418,0.7015,0.7602,0.7935,0.8408,0.8519,0.8735,0.9287,0.9608,1.0039,1.0586,1.1272,1.1468,1.1551,1.1955,1.2268,1.2467,1.2662,1.2759,1.2759,1.2759,1.2759,1.2759,1.2711,-0.1688,-0.1714,-0.1715,-0.1715,-0.1714,-0.1707,-0.169,-0.1673,-0.1679,-0.1691,-0.1707,-0.1731,-0.1735,-0.1721,-0.1747,-0.1754,-0.1738,-0.1746,-0.1729,-0.1745,-0.1757,-0.1774,-0.177,-0.1788,-0.1793,-0.1795,-0.1683,-0.1346,-0.0448,0.0448,0.1568,0.291,0.3694,0.4369,0.527,0.5382,0.5382,0.5382,0.5382,0.5382,0.5382,0.5382,0.5382,0.5382,0.5382,0.5382,0.5382,0.5382,0.5382,0.5382,0.5382,0.5382,0.5382,0.5382,0.5382,0.5382,0.5382,0.5382,0.5382,0.5382,0.5382,0.5382,0.5382,0.5382,0.5382,0.5382,0.5382,0.5382,0.5382,0.5382,0.5382,0.5382,0.5382,0.5382,0.5382,0.5382,0.5382,0.5335,0.5284,0.5312,0.5229,0.5181,0.5149,0.53,0.5435,0.5691,0.6057,0.6539,0.7428,0.7425,0.7521,0.796,0.8568,0.8947,0.9263,0.9437,0.9563,0.9888,1.0338,1.0574,1.0699,1.0993,1.1389,1.1394,1.1585,1.198,1.2273,1.237,1.2467,1.2662,1.2759,1.2759,1.2759,1.2759,1.2743,-0.1866,-0.1893,-0.179,-0.1685,-0.1684,-0.1671,-0.1656,-0.1644,-0.1642,-0.1651,-0.1669,-0.1695,-0.1701,-0.169,-0.1716,-0.1732,-0.1718,-0.1727,-0.1744,-0.1752,-0.1748,-0.177,-0.1778,-0.1783,-0.1791,-0.1795,-0.1683,-0.1234,0.0112,0.2129,0.3583,0.3805,0.403,0.4706,0.5382,0.5382,0.5382,0.5382,0.5382,0.5382,0.5382,0.5382,0.5382,0.5382,0.5382,0.5382,0.5382,0.5382,0.5382,0.5382,0.5382,0.5382,0.5382,0.5382,0.5382,0.5382,0.5382,0.5382,0.5382,0.5382,0.5382,0.5382,0.5382,0.5382,0.5382,0.5382,0.5382,0.5382,0.5382,0.5382,0.5382,0.5382,0.5382,0.5382,0.5382,0.5382,0.5382,0.5359,0.5628,0.6096,0.6117,0.6368,0.6524,0.6844,0.6957,0.7071,0.7235,0.773,0.8421,0.8913,0.911,0.9209,0.9608,1.0105,1.0347,1.0529,1.0747,1.1082,1.1194,1.1096,1.0993,1.1194,1.1394,1.159,1.1785,1.2073,1.2273,1.237,1.2565,1.2759,1.2759,1.2759,1.2759,1.2759,1.2748,-0.1938,-0.1963,-0.1759,-0.1656,-0.1653,-0.163,-0.1618,-0.1618,-0.1618,-0.1618,-0.1624,-0.1648,-0.1655,-0.1666,-0.1686,-0.171,-0.1718,-0.1701,-0.1732,-0.1747,-0.1759,-0.1755,-0.1763,-0.1782,-0.1787,-0.1568,-0.1346,-0.0561,0.0448,0.2912,0.448,0.4143,0.4594,0.5382,0.5382,0.5382,0.5382,0.5382,0.5382,0.5382,0.5382,0.5382,0.5382,0.5382,0.5382,0.5382,0.5382,0.5382,0.5382,0.5382,0.5382,0.5382,0.5382,0.5382,0.5382,0.5382,0.5382,0.5382,0.5382,0.5382,0.5382,0.5382,0.5382,0.5382,0.5382,0.5382,0.5382,0.5382,0.5382,0.5382,0.5382,0.5382,0.5382,0.5377,0.5377,0.5361,0.5357,0.5573,0.6167,0.6737,0.7079,0.7317,0.7755,0.8156,0.8261,0.8457,0.8817,0.9312,0.9805,1.0002,1.0203,1.0203,1.0301,1.0699,1.1096,1.1096,1.1194,1.1194,1.1194,1.1194,1.1194,1.1389,1.1492,1.1785,1.198,1.2273,1.2467,1.257,1.2764,1.2759,1.2759,1.2759,1.2759,1.2759,1.2759,-0.1721,-0.1727,-0.1626,-0.1626,-0.1625,-0.162,-0.1617,-0.1617,-0.1617,-0.1617,-0.1618,-0.162,-0.1625,-0.1627,-0.1657,-0.1673,-0.1668,-0.1663,-0.1648,-0.165,-0.1702,-0.1713,-0.1727,-0.1754,-0.1773,-0.1446,-0.0669,0.0559,0.1337,0.3798,0.5382,0.5044,0.5044,0.5382,0.5382,0.5382,0.5382,0.5382,0.5382,0.5382,0.5382,0.5382,0.5382,0.5382,0.5382,0.5382,0.5382,0.5382,0.5382,0.5382,0.5382,0.5382,0.5382,0.5382,0.5382,0.5382,0.5382,0.5382,0.5382,0.5382,0.5382,0.5382,0.5382,0.5382,0.5382,0.5382,0.5382,0.5382,0.5382,0.5382,0.5382,0.5382,0.5382,0.5365,0.5357,0.542,0.5391,0.602,0.6621,0.7266,0.7679,0.8027,0.8378,0.8679,0.8892,0.9015,0.941,1.0006,1.0498,1.0895,1.1194,1.0998,1.09,1.0998,1.1194,1.1194,1.1194,1.1194,1.1194,1.1194,1.1292,1.1394,1.159,1.1785,1.2078,1.2273,1.257,1.2764,1.2764,1.2759,1.2759,1.2759,1.2759,1.2759,1.2759]},{"header":{"parameterUnit":"m.s-1","parameterCategory":1,"la1":31.0,"la2":29.5877,"lo1":-88.7671,"lo2":-86.6584,"dy":0.0162,"dx":0.0185,"nx":115,"ny":88,"refTime":"2023-08-01T00:00:00:Z","depth":0,"parameterNumber":3,"parameterNumberName":"V-component_of_WINDS"},"data":[0.0,0.0,0.0,0.0,0.0,0.0,0.0,0.0,0.0,0.0,0.0,0.0,0.0,0.0,0.0,0.0,0.0,0.0,0.0,0.0,0.0,0.0,0.0,0.0,0.0,0.0,0.0,0.0,0.0,0.0,0.0,0.0,0.0,0.0,0.0,0.0,0.0,0.0,0.0,0.0,0.0,0.0,0.0,0.0,0.0,0.0,0.0,0.0,0.0,0.0,0.0,0.0,0.0,0.0,0.0,0.0,0.0,0.0,0.0,0.0,0.0,0.0,0.0,0.0,0.0,0.0,0.0,0.0,0.0,0.0,0.0,0.0,0.0,0.0,0.0,0.0,0.0,0.0,0.0,0.0,0.0,0.0,0.0,0.0,0.0,0.0,0.0,0.0,0.0,0.0,0.0,0.0,0.0,0.0,0.0,0.0,0.0,0.0,0.0,0.0,0.0,0.0,0.0,0.0,0.0,0.0,0.0,0.0,0.0,0.0,0.0,0.0,0.0,0.0,0.0,0.0,0.0,0.0,0.0,0.0,0.0,0.0,0.0,0.0,0.0,0.0,0.0,0.0,0.0,0.0,0.0,0.0,0.0,0.0,0.0,0.0,0.0,0.0,0.0,0.0,0.0,0.0,0.0,0.0,0.0,0.0,0.0,0.0,0.0,0.0,0.0,0.0,0.0,0.0,0.0,0.0,0.0,0.0,0.0,0.0,0.0,0.0,0.0,0.0,0.0,0.0,0.0,0.0,0.0,0.0,0.0,0.0,0.0,0.0,0.0,0.0,0.0,0.0,0.0,0.0,0.0,0.0,0.0,0.0,0.0,0.0,0.0,0.0,0.0,0.0,0.0,0.0,0.0,0.0,0.0,0.0,0.0,0.0,0.0,0.0,0.0,0.0,0.0,0.0,0.0,0.0,0.0,0.0,0.0,0.0,0.0,0.0,0.0,0.0,0.0,0.0,0.0,0.0,0.0,0.0,0.0,0.0,0.0,0.0,0.0,0.0,0.0,0.0,0.0,0.0,0.0,0.0,0.0,0.0,0.0,0.0,0.0,0.0,0.0,0.0,0.0,0.0,0.0,0.0,0.0,0.0,0.0,0.0,0.0,0.0,0.0,0.0,0.0,0.0,0.0,0.0,0.0,0.0,0.0,0.0,0.0,0.0,0.0,0.0,0.0,0.0,0.0,0.0,0.0,0.0,0.0,0.0,0.0,0.0,0.0,0.0,0.0,0.0,0.0,0.0,0.0,0.0,0.0,0.0,0.0,0.0,0.0,0.0,0.0,0.0,0.0,0.0,0.0,0.0,0.0,0.0,0.0,0.0,0.0,0.0,0.0,0.0,0.0,0.0,0.0,0.0,0.0,0.0,0.0,0.0,0.0,0.0,0.0,0.0,0.0,0.0,0.0,0.0,0.0,0.0,0.0,0.0,0.0,0.0,0.0,0.0,0.0,0.0,0.0,0.0,0.0,0.0,0.0,0.0,0.0,0.0,0.0,0.0,0.0,0.0,0.0,0.0,0.0,0.0,0.0,0.0,0.0,0.0,0.0,0.0,0.0,0.0,0.0,0.0,0.0,0.0,0.0,0.0,0.0,0.0,0.0,0.0,0.0,0.0,0.0,0.0,0.0,0.0,0.0,0.0,0.0,0.0,0.0,0.0,0.0,0.0,0.0,0.0,0.0,0.0,0.0,0.0,0.0,0.0,0.0,0.0,0.0,0.0,0.0,0.0,0.0,0.0,0.0,0.0,0.0,0.0,0.0,0.0,0.0,0.0,0.0,0.0,0.0,0.0,0.0,0.0,0.0,0.0,0.0,0.0,0.0,0.0,0.0,0.0,0.0,0.0,0.0,0.0,0.0,0.0,0.0,0.0,0.0,0.0,0.0,0.0,0.0,0.0,0.0,0.0,0.0,0.0,0.0,0.0,0.0,0.0,0.0,0.0,0.0,0.0,0.0,0.0,0.0,0.0,0.0,0.0,0.0,0.0,0.0,0.0,0.0,0.0,0.0,0.0,0.0,0.0,0.0,0.0,0.0,0.0,0.0,0.0,0.0,0.0,0.0,0.0,0.0,0.0,0.0,0.0,0.0,0.0,0.0,0.0,0.0,0.0,0.0,0.0,0.0,0.0,0.0,0.0,0.0,0.0,0.0,0.0,0.0,0.0,0.0,0.0,0.0,0.0,0.0,0.0,0.0,0.0,0.0,0.0,0.0,0.0,0.0,0.0,0.0,0.0,0.0,0.0,0.0,0.0,0.0,0.0,0.0,0.0,0.0,0.0,0.0,0.0,0.0,0.0,0.0,0.0,0.0,0.0,0.0,0.0,0.0,0.0,0.0,0.0,0.0,0.0,0.0,0.0,0.0,0.0,0.0,0.0,0.0,0.0,0.0,0.0,0.0,0.0,0.0,0.0,0.0,0.0,0.0,0.0,0.0,0.0,0.0,0.0,0.0,0.0,0.0,0.0,0.0,0.0,0.0,0.0,0.0,0.0,0.0,0.0,0.0,0.0,0.0,0.0,0.0,0.0,0.0,0.0,0.0,0.0,0.0,0.0,0.0,0.0,0.0,0.0,0.0,0.0,0.0,0.0,0.0,0.0,0.0,0.0,0.0,0.0,0.0,0.0,0.0,0.0,0.0,0.0,0.0,0.0,0.0,0.0,0.0,0.0,0.0,0.0,0.0,0.0,0.0,0.0,0.0,0.0,0.0,0.0,0.0,0.0,0.0,0.0,0.0,0.0,0.0,0.0,0.0,0.0,0.0,0.0,0.0,0.0,0.0,0.0,0.0,0.0,0.0,0.0,0.0,0.0,0.0,0.0,0.0,0.0,0.0,0.0,0.0,0.0,0.0,0.0,0.0,0.0,0.0,0.0,0.0,0.0,0.0,0.0,0.0,0.0,0.0,0.0,0.0,0.0,0.0,0.0,0.0,0.0,0.0,0.0,0.0,0.0,0.0,0.0,0.0,0.0,0.0,0.0,0.0,0.0,0.0,0.0,0.0,0.0,0.0,0.0,0.0,0.0,0.0,0.0,0.0,0.0,0.0,0.0,0.0,0.0,0.0,0.0,0.0,0.0,0.0,0.0,0.0,0.0,0.0,0.0,0.0,0.0,0.0,0.0,0.0,0.0,0.0,0.0,0.0,0.0,0.0,0.0,0.0,0.0,0.0,0.0,0.0,0.0,0.0,0.0,0.0,0.0,0.0,0.0,0.0,0.0,0.0,0.0,0.0,0.0,0.0,0.0,0.0,0.0,0.0,0.0,0.0,0.0,0.0,0.0,0.0,0.0,0.0,0.0,0.0,0.0,0.0,0.0,0.0,0.0,0.0,0.0,0.0,0.0,0.0,0.0,0.0,0.0,0.0,0.0,0.0,0.0,0.0,0.0,0.0,0.0,0.0,0.0,0.0,0.0,0.0,0.0,0.0,0.0,0.0,0.0,0.0,0.0,0.0,0.0,0.0,0.0,0.0,0.0,0.0,0.0,0.0,0.0,0.0,0.0,0.0,0.0,0.0,0.0,0.0,0.0,0.0,0.0,0.0,0.0,0.0,0.0,0.0,0.0,0.0,0.0,0.0,0.0,0.0,0.0,0.0,0.0,0.0,0.0,0.0,0.0,0.0,0.0,0.0,0.0,0.0,0.0,0.0,0.0,0.0,0.0,0.0,0.0,0.0,0.0,0.0,0.0,0.0,0.0,0.0,0.0,0.0,0.0,0.0,0.0,0.0,0.0,0.0,0.0,0.0,0.0,0.0,0.0,0.0,0.0,0.0,0.0,0.0,0.0,0.0,0.0,0.0,0.0,0.0,0.0,0.0,0.0,0.0,0.0,0.0,0.0,0.0,0.0,0.0,0.0,0.0,0.0,0.0,0.0,0.0,0.0,0.0,0.0,0.0,0.0,0.0,0.0,0.0,0.0,0.0,0.0,0.0,0.0,0.0,0.0,0.0,0.0,0.0,0.0,0.0,0.0,0.0,0.0,0.0,0.0,0.0,0.0,0.0,0.0,0.0,0.0,0.0,0.0,0.0,0.0,0.0,0.0,0.0,0.0,0.0,0.0,0.0,0.0,0.0,0.0,0.0,0.0,0.0,0.0,0.0,0.0,0.0,0.0,0.0,0.0,0.0,0.0,0.0,0.0,0.0,0.0,0.0,0.0,0.0,0.0,0.0,0.0,0.0,0.0,0.0,0.0,0.0,0.0,0.0,0.0,0.0,0.0,0.0,0.0,0.0,0.0,0.0,0.0,0.0,0.0,0.0,0.0,0.0,0.0,0.0,0.0,-3.0204,0.0,0.0,0.0,0.0,0.0,0.0,0.0,0.0,0.0,0.0,0.0,0.0,0.0,0.0,0.0,0.0,0.0,0.0,0.0,0.0,0.0,0.0,0.0,0.0,0.0,0.0,0.0,0.0,0.0,0.0,0.0,0.0,0.0,0.0,0.0,0.0,0.0,0.0,0.0,0.0,0.0,0.0,0.0,0.0,0.0,0.0,0.0,0.0,0.0,0.0,0.0,0.0,0.0,0.0,0.0,0.0,0.0,0.0,0.0,0.0,0.0,0.0,0.0,0.0,0.0,0.0,0.0,0.0,0.0,0.0,0.0,0.0,0.0,0.0,0.0,0.0,0.0,0.0,0.0,0.0,0.0,0.0,0.0,0.0,0.0,0.0,0.0,0.0,0.0,0.0,0.0,0.0,0.0,0.0,0.0,0.0,0.0,0.0,0.0,0.0,0.0,0.0,0.0,0.0,0.0,0.0,0.0,0.0,0.0,0.0,-3.0299,-3.0292,-3.0279,-3.024,-3.0256,0.0,0.0,0.0,0.0,0.0,0.0,0.0,0.0,0.0,0.0,0.0,0.0,0.0,0.0,0.0,0.0,0.0,0.0,0.0,0.0,0.0,0.0,0.0,0.0,0.0,0.0,0.0,0.0,0.0,0.0,0.0,0.0,0.0,0.0,0.0,0.0,0.0,0.0,0.0,0.0,0.0,0.0,0.0,0.0,0.0,0.0,0.0,0.0,0.0,0.0,0.0,0.0,0.0,0.0,0.0,0.0,0.0,0.0,0.0,0.0,0.0,0.0,0.0,0.0,0.0,0.0,0.0,0.0,0.0,0.0,0.0,0.0,0.0,0.0,0.0,0.0,0.0,0.0,0.0,0.0,0.0,0.0,0.0,0.0,0.0,0.0,0.0,0.0,0.0,0.0,0.0,0.0,0.0,0.0,0.0,0.0,0.0,0.0,0.0,0.0,0.0,0.0,0.0,0.0,0.0,0.0,0.0,0.0,0.0,0.0,0.0,0.0,-3.0311,-3.0318,-3.0289,0.0,0.0,0.0,0.0,0.0,0.0,0.0,0.0,0.0,0.0,0.0,0.0,0.0,0.0,0.0,0.0,0.0,0.0,0.0,0.0,0.0,0.0,0.0,0.0,0.0,0.0,0.0,0.0,0.0,0.0,0.0,0.0,0.0,0.0,0.0,0.0,0.0,0.0,0.0,0.0,0.0,0.0,0.0,0.0,0.0,0.0,0.0,0.0,0.0,0.0,0.0,0.0,0.0,0.0,0.0,0.0,0.0,0.0,0.0,0.0,0.0,0.0,0.0,0.0,0.0,0.0,0.0,0.0,0.0,0.0,0.0,0.0,0.0,0.0,0.0,0.0,0.0,0.0,0.0,0.0,0.0,0.0,0.0,0.0,0.0,0.0,0.0,0.0,0.0,0.0,0.0,0.0,0.0,0.0,0.0,0.0,0.0,0.0,0.0,0.0,0.0,0.0,0.0,0.0,0.0,0.0,0.0,0.0,0.0,0.0,-3.0379,-3.0379,-3.0336,0.0,-3.0312,0.0,0.0,0.0,0.0,0.0,0.0,0.0,0.0,0.0,0.0,0.0,0.0,0.0,0.0,0.0,0.0,0.0,0.0,0.0,0.0,0.0,0.0,0.0,0.0,0.0,0.0,0.0,0.0,0.0,0.0,0.0,0.0,0.0,0.0,0.0,0.0,0.0,0.0,0.0,0.0,0.0,0.0,0.0,0.0,0.0,0.0,0.0,0.0,0.0,0.0,0.0,0.0,0.0,0.0,0.0,0.0,0.0,0.0,0.0,0.0,0.0,0.0,0.0,0.0,0.0,0.0,0.0,0.0,0.0,0.0,0.0,0.0,0.0,0.0,0.0,0.0,0.0,0.0,0.0,0.0,0.0,0.0,0.0,0.0,0.0,0.0,0.0,0.0,0.0,0.0,0.0,0.0,0.0,0.0,0.0,0.0,0.0,0.0,0.0,0.0,0.0,0.0,0.0,0.0,0.0,0.0,0.0,0.0,0.0,0.0,-3.0398,-3.0398,-3.0379,-3.0367,0.0,0.0,0.0,0.0,0.0,0.0,0.0,0.0,0.0,0.0,0.0,0.0,0.0,0.0,0.0,0.0,0.0,0.0,0.0,0.0,0.0,0.0,0.0,0.0,0.0,0.0,0.0,0.0,0.0,0.0,0.0,0.0,0.0,0.0,0.0,0.0,0.0,0.0,0.0,0.0,0.0,0.0,0.0,0.0,0.0,0.0,0.0,0.0,0.0,0.0,0.0,0.0,0.0,0.0,0.0,0.0,0.0,0.0,0.0,0.0,0.0,0.0,0.0,0.0,0.0,0.0,0.0,0.0,0.0,0.0,0.0,0.0,0.0,0.0,0.0,0.0,0.0,0.0,0.0,0.0,0.0,0.0,0.0,0.0,0.0,0.0,0.0,0.0,0.0,0.0,0.0,0.0,0.0,0.0,0.0,0.0,0.0,0.0,0.0,0.0,0.0,0.0,0.0,0.0,0.0,0.0,0.0,0.0,0.0,0.0,-3.0398,-3.0398,-3.0398,-3.0398,-3.0398,-3.0398,0.0,0.0,0.0,0.0,0.0,0.0,0.0,0.0,0.0,0.0,0.0,0.0,0.0,0.0,0.0,0.0,0.0,0.0,0.0,0.0,0.0,0.0,0.0,0.0,0.0,0.0,0.0,0.0,0.0,0.0,0.0,0.0,0.0,0.0,0.0,0.0,0.0,0.0,0.0,0.0,0.0,0.0,0.0,0.0,0.0,0.0,0.0,0.0,0.0,0.0,0.0,0.0,0.0,0.0,0.0,0.0,0.0,0.0,0.0,0.0,0.0,0.0,0.0,0.0,0.0,0.0,0.0,0.0,0.0,0.0,0.0,0.0,0.0,0.0,0.0,0.0,0.0,0.0,0.0,0.0,0.0,0.0,0.0,0.0,0.0,0.0,0.0,0.0,0.0,0.0,0.0,0.0,0.0,0.0,0.0,0.0,0.0,0.0,0.0,0.0,0.0,0.0,0.0,0.0,0.0,0.0,0.0,0.0,-3.0398,-3.0417,-3.0417,-3.0436,-3.0398,-3.0398,0.0,0.0,0.0,0.0,0.0,0.0,0.0,0.0,0.0,0.0,0.0,0.0,0.0,0.0,0.0,0.0,0.0,0.0,0.0,0.0,0.0,0.0,0.0,0.0,0.0,0.0,0.0,0.0,0.0,0.0,0.0,0.0,0.0,0.0,0.0,0.0,0.0,0.0,0.0,0.0,0.0,0.0,0.0,0.0,0.0,0.0,0.0,0.0,0.0,0.0,0.0,0.0,0.0,0.0,0.0,0.0,0.0,0.0,0.0,0.0,0.0,0.0,0.0,0.0,0.0,0.0,0.0,0.0,0.0,0.0,0.0,0.0,0.0,0.0,0.0,0.0,0.0,0.0,0.0,0.0,0.0,0.0,0.0,0.0,0.0,0.0,0.0,0.0,0.0,0.0,0.0,0.0,0.0,0.0,0.0,0.0,0.0,0.0,0.0,0.0,0.0,0.0,0.0,0.0,0.0,0.0,0.0,0.0,0.0,-3.1218,-3.1742,-3.2011,-3.1987,-3.1518,-3.1229,0.0,0.0,0.0,0.0,0.0,0.0,0.0,0.0,0.0,0.0,0.0,0.0,0.0,0.0,0.0,0.0,0.0,0.0,0.0,0.0,0.0,0.0,0.0,0.0,0.0,0.0,0.0,0.0,0.0,0.0,0.0,0.0,0.0,0.0,0.0,0.0,0.0,0.0,0.0,0.0,0.0,0.0,0.0,0.0,0.0,0.0,0.0,0.0,0.0,0.0,0.0,0.0,0.0,0.0,0.0,0.0,0.0,0.0,0.0,0.0,0.0,0.0,0.0,0.0,0.0,0.0,0.0,0.0,0.0,0.0,0.0,0.0,0.0,0.0,0.0,0.0,0.0,0.0,0.0,0.0,0.0,0.0,0.0,0.0,0.0,0.0,0.0,0.0,0.0,0.0,0.0,0.0,0.0,0.0,0.0,0.0,0.0,0.0,0.0,0.0,0.0,0.0,0.0,0.0,0.0,0.0,0.0,0.0,0.0,-3.2095,0.0,-3.2928,-3.2928,-3.2403,-3.1987,0.0,0.0,0.0,0.0,0.0,0.0,0.0,0.0,0.0,0.0,0.0,0.0,0.0,0.0,0.0,0.0,0.0,0.0,0.0,0.0,0.0,0.0,0.0,0.0,0.0,0.0,0.0,0.0,0.0,0.0,0.0,0.0,0.0,0.0,0.0,0.0,0.0,0.0,0.0,0.0,0.0,0.0,0.0,0.0,0.0,0.0,0.0,0.0,0.0,0.0,0.0,0.0,0.0,0.0,0.0,0.0,0.0,0.0,0.0,0.0,0.0,0.0,0.0,0.0,0.0,0.0,0.0,0.0,0.0,0.0,0.0,0.0,0.0,0.0,0.0,0.0,0.0,0.0,0.0,0.0,0.0,0.0,0.0,0.0,0.0,0.0,0.0,0.0,0.0,0.0,0.0,0.0,0.0,0.0,0.0,0.0,0.0,0.0,0.0,0.0,0.0,0.0,0.0,0.0,0.0,0.0,0.0,0.0,-3.2172,-3.2979,-3.3128,-3.3236,-3.3064,-3.3109,-3.266,0.0,0.0,0.0,0.0,0.0,0.0,0.0,0.0,0.0,0.0,0.0,0.0,0.0,0.0,0.0,0.0,0.0,0.0,0.0,0.0,0.0,0.0,0.0,0.0,0.0,0.0,0.0,0.0,0.0,0.0,0.0,0.0,0.0,0.0,0.0,0.0,0.0,0.0,0.0,0.0,0.0,0.0,0.0,0.0,0.0,0.0,0.0,0.0,0.0,0.0,0.0,0.0,0.0,0.0,0.0,0.0,0.0,0.0,0.0,0.0,0.0,0.0,0.0,0.0,0.0,0.0,0.0,0.0,0.0,0.0,0.0,0.0,0.0,0.0,0.0,0.0,0.0,0.0,0.0,0.0,0.0,0.0,0.0,0.0,0.0,0.0,0.0,0.0,0.0,0.0,0.0,0.0,0.0,0.0,0.0,0.0,0.0,0.0,0.0,0.0,0.0,0.0,0.0,0.0,0.0,0.0,0.0,0.0,0.0,-3.4808,-3.5932,-3.6511,-3.6479,-3.5411,-3.4685,0.0,0.0,0.0,0.0,0.0,0.0,0.0,0.0,0.0,0.0,0.0,0.0,0.0,0.0,0.0,0.0,0.0,0.0,0.0,0.0,0.0,0.0,0.0,0.0,0.0,0.0,0.0,0.0,0.0,0.0,0.0,0.0,0.0,0.0,0.0,0.0,0.0,0.0,0.0,0.0,0.0,0.0,0.0,0.0,0.0,0.0,0.0,0.0,0.0,0.0,0.0,0.0,0.0,0.0,0.0,0.0,0.0,0.0,0.0,0.0,0.0,0.0,0.0,0.0,0.0,0.0,0.0,0.0,0.0,0.0,0.0,0.0,0.0,0.0,0.0,0.0,0.0,0.0,0.0,0.0,0.0,0.0,0.0,0.0,0.0,0.0,0.0,0.0,0.0,0.0,0.0,0.0,0.0,0.0,0.0,0.0,0.0,0.0,0.0,0.0,0.0,0.0,0.0,0.0,0.0,0.0,0.0,0.0,0.0,-3.7571,-3.8228,-3.8595,-3.8621,-3.7576,-3.6571,-3.5596,0.0,0.0,0.0,0.0,0.0,0.0,0.0,0.0,0.0,0.0,0.0,0.0,0.0,0.0,0.0,0.0,0.0,0.0,0.0,0.0,0.0,0.0,0.0,0.0,0.0,0.0,0.0,0.0,0.0,0.0,0.0,0.0,0.0,0.0,0.0,0.0,0.0,0.0,0.0,0.0,0.0,0.0,0.0,0.0,0.0,0.0,0.0,0.0,0.0,0.0,0.0,0.0,0.0,0.0,0.0,0.0,0.0,0.0,0.0,0.0,0.0,0.0,0.0,0.0,0.0,0.0,0.0,0.0,0.0,0.0,0.0,0.0,0.0,0.0,0.0,0.0,0.0,0.0,0.0,0.0,0.0,0.0,0.0,0.0,0.0,0.0,0.0,0.0,0.0,0.0,0.0,0.0,0.0,0.0,0.0,0.0,0.0,0.0,0.0,0.0,0.0,0.0,0.0,0.0,0.0,0.0,0.0,0.0,-4.0938,-4.0114,-3.9728,-3.9719,-3.956,-3.8342,0.0,0.0,0.0,0.0,0.0,0.0,0.0,0.0,0.0,0.0,0.0,0.0,0.0,0.0,0.0,0.0,0.0,0.0,0.0,0.0,0.0,0.0,0.0,0.0,0.0,0.0,0.0,0.0,0.0,0.0,0.0,0.0,0.0,0.0,0.0,0.0,0.0,0.0,0.0,0.0,0.0,0.0,0.0,0.0,0.0,0.0,0.0,0.0,0.0,0.0,0.0,0.0,0.0,0.0,0.0,0.0,0.0,0.0,0.0,0.0,0.0,0.0,0.0,0.0,0.0,0.0,0.0,0.0,0.0,0.0,0.0,0.0,0.0,0.0,0.0,0.0,0.0,0.0,0.0,0.0,0.0,0.0,0.0,0.0,0.0,0.0,0.0,0.0,0.0,0.0,0.0,0.0,0.0,0.0,0.0,0.0,0.0,0.0,0.0,0.0,0.0,0.0,0.0,0.0,0.0,0.0,0.0,0.0,0.0,-4.2671,-4.306,-4.2937,-4.2299,-4.1081,-4.0118,0.0,0.0,0.0,0.0,0.0,0.0,0.0,0.0,0.0,0.0,0.0,0.0,0.0,0.0,0.0,0.0,0.0,0.0,0.0,0.0,0.0,0.0,0.0,0.0,0.0,0.0,0.0,0.0,0.0,0.0,0.0,0.0,0.0,0.0,0.0,0.0,0.0,0.0,0.0,0.0,0.0,0.0,0.0,0.0,0.0,0.0,0.0,0.0,0.0,0.0,0.0,0.0,0.0,0.0,0.0,0.0,0.0,0.0,0.0,0.0,0.0,0.0,0.0,0.0,0.0,0.0,0.0,0.0,0.0,0.0,0.0,0.0,0.0,0.0,0.0,0.0,0.0,0.0,0.0,0.0,0.0,0.0,0.0,0.0,0.0,0.0,0.0,0.0,0.0,0.0,0.0,0.0,0.0,0.0,0.0,0.0,0.0,0.0,0.0,0.0,0.0,0.0,0.0,0.0,0.0,0.0,0.0,0.0,-4.2593,-4.3962,-4.4802,-4.4982,-4.4485,-4.2789,-4.155,0.0,0.0,0.0,0.0,0.0,0.0,0.0,0.0,0.0,0.0,0.0,0.0,0.0,0.0,0.0,0.0,0.0,0.0,0.0,0.0,0.0,0.0,0.0,0.0,0.0,0.0,0.0,0.0,0.0,0.0,0.0,0.0,0.0,0.0,0.0,0.0,0.0,0.0,0.0,0.0,0.0,0.0,0.0,0.0,0.0,0.0,0.0,0.0,0.0,0.0,0.0,0.0,0.0,0.0,0.0,0.0,0.0,0.0,0.0,0.0,0.0,0.0,0.0,0.0,0.0,0.0,0.0,0.0,0.0,0.0,0.0,0.0,0.0,0.0,0.0,0.0,0.0,0.0,0.0,0.0,0.0,0.0,0.0,0.0,0.0,0.0,0.0,0.0,0.0,0.0,0.0,0.0,0.0,0.0,0.0,0.0,0.0,0.0,0.0,0.0,0.0,0.0,0.0,0.0,0.0,0.0,0.0,0.0,-4.3938,-4.4773,-4.5641,-4.6123,-4.6065,-4.436,-4.268,0.0,0.0,0.0,0.0,0.0,0.0,0.0,0.0,0.0,0.0,0.0,0.0,0.0,0.0,0.0,0.0,0.0,0.0,0.0,0.0,0.0,0.0,0.0,0.0,0.0,0.0,0.0,0.0,0.0,0.0,0.0,0.0,0.0,0.0,0.0,0.0,0.0,0.0,0.0,0.0,0.0,0.0,0.0,0.0,0.0,0.0,0.0,0.0,0.0,0.0,0.0,0.0,0.0,0.0,0.0,0.0,0.0,0.0,0.0,0.0,0.0,0.0,0.0,0.0,0.0,0.0,0.0,0.0,0.0,0.0,0.0,0.0,0.0,0.0,0.0,0.0,0.0,0.0,0.0,0.0,0.0,0.0,0.0,0.0,0.0,0.0,0.0,0.0,0.0,0.0,0.0,0.0,0.0,0.0,0.0,0.0,0.0,0.0,0.0,0.0,0.0,0.0,0.0,0.0,0.0,0.0,0.0,0.0,-4.4004,-4.4851,-4.5675,-4.6123,-4.6104,-4.438,-4.3296,0.0,0.0,0.0,0.0,0.0,0.0,0.0,0.0,0.0,0.0,0.0,0.0,0.0,0.0,0.0,0.0,0.0,0.0,0.0,0.0,0.0,0.0,0.0,0.0,0.0,0.0,0.0,0.0,0.0,0.0,0.0,0.0,0.0,0.0,0.0,0.0,0.0,0.0,0.0,0.0,0.0,0.0,0.0,0.0,0.0,0.0,0.0,0.0,-3.3003,0.0,0.0,0.0,0.0,0.0,0.0,0.0,0.0,0.0,0.0,0.0,0.0,0.0,0.0,0.0,0.0,0.0,0.0,0.0,0.0,0.0,0.0,0.0,0.0,0.0,0.0,0.0,0.0,0.0,0.0,0.0,0.0,0.0,0.0,0.0,0.0,0.0,0.0,0.0,0.0,0.0,0.0,0.0,0.0,0.0,0.0,0.0,0.0,0.0,0.0,0.0,0.0,0.0,0.0,0.0,0.0,0.0,0.0,0.0,-4.425,-4.5519,-4.5968,-4.6201,-4.6143,-4.49,-4.4001,0.0,0.0,0.0,0.0,0.0,0.0,0.0,0.0,0.0,0.0,0.0,0.0,0.0,0.0,0.0,0.0,0.0,0.0,0.0,0.0,0.0,0.0,0.0,0.0,0.0,0.0,0.0,0.0,0.0,0.0,0.0,0.0,0.0,0.0,0.0,0.0,0.0,0.0,0.0,0.0,0.0,0.0,0.0,0.0,0.0,0.0,0.0,0.0,0.0,0.0,0.0,0.0,0.0,0.0,0.0,0.0,0.0,0.0,0.0,0.0,0.0,0.0,0.0,0.0,0.0,0.0,0.0,0.0,0.0,0.0,0.0,0.0,0.0,0.0,0.0,0.0,0.0,0.0,0.0,0.0,0.0,0.0,0.0,0.0,0.0,0.0,0.0,0.0,0.0,0.0,0.0,0.0,0.0,0.0,0.0,0.0,0.0,0.0,0.0,0.0,0.0,0.0,0.0,0.0,0.0,0.0,0.0,-4.381,-4.4689,-4.6209,-4.6288,-4.631,-4.629,-4.5605,-4.4686,-4.3637,0.0,0.0,0.0,0.0,0.0,0.0,0.0,0.0,0.0,0.0,0.0,0.0,0.0,0.0,0.0,0.0,0.0,0.0,0.0,0.0,0.0,0.0,0.0,0.0,0.0,0.0,0.0,0.0,0.0,0.0,0.0,0.0,0.0,0.0,0.0,0.0,0.0,0.0,-2.8437,-3.0664,0.0,0.0,0.0,0.0,0.0,0.0,0.0,0.0,-3.6283,0.0,0.0,0.0,0.0,0.0,0.0,0.0,0.0,0.0,0.0,0.0,0.0,0.0,0.0,0.0,0.0,0.0,0.0,0.0,0.0,0.0,0.0,0.0,0.0,0.0,0.0,0.0,0.0,0.0,0.0,0.0,0.0,0.0,0.0,0.0,0.0,0.0,0.0,0.0,0.0,0.0,0.0,0.0,0.0,0.0,0.0,0.0,0.0,0.0,0.0,0.0,0.0,0.0,0.0,0.0,0.0,-4.3651,-4.4413,-4.5269,-4.6268,-4.6301,-4.6297,-4.6297,-4.615,-4.5332,-4.3729,0.0,0.0,0.0,0.0,0.0,0.0,0.0,0.0,0.0,0.0,0.0,0.0,0.0,0.0,0.0,0.0,0.0,0.0,0.0,0.0,0.0,0.0,0.0,0.0,0.0,0.0,0.0,0.0,0.0,0.0,0.0,0.0,0.0,0.0,0.0,0.0,0.0,0.0,0.0,-3.1382,-3.2703,0.0,0.0,0.0,0.0,0.0,0.0,0.0,0.0,-3.7285,0.0,0.0,0.0,0.0,0.0,0.0,0.0,0.0,0.0,0.0,0.0,0.0,0.0,0.0,0.0,0.0,0.0,0.0,0.0,0.0,0.0,0.0,0.0,0.0,0.0,0.0,0.0,0.0,0.0,0.0,0.0,0.0,0.0,0.0,0.0,0.0,0.0,0.0,0.0,0.0,0.0,0.0,0.0,0.0,0.0,0.0,0.0,0.0,0.0,0.0,0.0,0.0,0.0,0.0,0.0,-4.3656,-4.4546,-4.5444,-4.625,-4.6289,-4.6289,-4.6289,-4.6289,-4.5469,0.0,0.0,0.0,0.0,0.0,0.0,0.0,0.0,0.0,0.0,0.0,0.0,0.0,0.0,0.0,0.0,0.0,0.0,0.0,0.0,0.0,0.0,0.0,0.0,0.0,0.0,0.0,0.0,0.0,0.0,0.0,0.0,0.0,0.0,0.0,0.0,0.0,0.0,0.0,0.0,-3.285,-3.414,-3.6246,0.0,0.0,0.0,0.0,0.0,0.0,-3.849,-3.7909,0.0,0.0,0.0,0.0,0.0,0.0,0.0,0.0,0.0,0.0,0.0,0.0,0.0,0.0,0.0,0.0,0.0,0.0,0.0,0.0,0.0,0.0,0.0,0.0,0.0,0.0,0.0,0.0,0.0,0.0,0.0,0.0,0.0,0.0,0.0,0.0,0.0,0.0,0.0,0.0,0.0,0.0,0.0,0.0,0.0,0.0,0.0,0.0,0.0,0.0,0.0,0.0,0.0,0.0,0.0,-4.3689,-4.4719,-4.5595,-4.6269,-4.6289,-4.6289,-4.6289,-4.6289,-4.5488,0.0,0.0,0.0,0.0,0.0,0.0,0.0,0.0,0.0,0.0,0.0,0.0,0.0,0.0,0.0,0.0,0.0,0.0,0.0,0.0,0.0,0.0,0.0,0.0,0.0,0.0,0.0,0.0,0.0,0.0,0.0,0.0,0.0,0.0,0.0,0.0,0.0,0.0,0.0,0.0,0.0,-3.5694,-3.7957,-3.8341,0.0,0.0,0.0,0.0,-3.9903,-3.932,0.0,0.0,0.0,0.0,0.0,0.0,0.0,0.0,0.0,0.0,0.0,0.0,0.0,0.0,0.0,0.0,0.0,0.0,0.0,0.0,0.0,0.0,0.0,0.0,0.0,0.0,0.0,0.0,0.0,0.0,0.0,0.0,0.0,0.0,0.0,0.0,0.0,0.0,0.0,0.0,0.0,0.0,0.0,0.0,0.0,0.0,0.0,0.0,0.0,0.0,0.0,0.0,0.0,0.0,0.0,0.0,-4.3759,-4.5314,-4.6219,-4.6289,-4.6289,-4.6289,-4.6289,-4.6289,-4.5488,0.0,0.0,0.0,0.0,0.0,0.0,0.0,0.0,0.0,0.0,0.0,0.0,0.0,0.0,0.0,0.0,0.0,0.0,0.0,0.0,0.0,0.0,0.0,0.0,0.0,0.0,0.0,0.0,0.0,0.0,0.0,0.0,0.0,0.0,0.0,0.0,0.0,0.0,0.0,0.0,0.0,-3.6312,-3.8055,-3.8297,-3.8569,0.0,0.0,-3.9799,-4.071,-4.0179,0.0,0.0,0.0,0.0,0.0,0.0,0.0,0.0,0.0,0.0,0.0,0.0,0.0,0.0,0.0,0.0,0.0,0.0,0.0,0.0,0.0,0.0,0.0,0.0,0.0,0.0,0.0,0.0,0.0,0.0,0.0,0.0,0.0,0.0,0.0,0.0,0.0,0.0,0.0,0.0,0.0,0.0,0.0,0.0,0.0,0.0,0.0,0.0,0.0,0.0,0.0,0.0,0.0,0.0,0.0,-4.371,-4.3763,-4.5424,-4.6306,-4.6289,-4.6289,-4.6289,-4.6289,-4.6289,-4.5488,0.0,0.0,0.0,0.0,0.0,0.0,0.0,0.0,0.0,0.0,0.0,0.0,0.0,0.0,0.0,0.0,0.0,0.0,0.0,0.0,0.0,0.0,0.0,0.0,0.0,0.0,0.0,0.0,0.0,0.0,0.0,0.0,0.0,0.0,0.0,0.0,0.0,0.0,0.0,0.0,0.0,0.0,-3.8142,-3.911,0.0,0.0,0.0,-4.0441,-4.0941,0.0,0.0,0.0,0.0,0.0,0.0,0.0,0.0,0.0,0.0,0.0,0.0,0.0,0.0,0.0,0.0,0.0,0.0,0.0,0.0,0.0,0.0,0.0,0.0,0.0,0.0,0.0,0.0,0.0,0.0,0.0,0.0,0.0,0.0,0.0,0.0,0.0,0.0,0.0,0.0,0.0,0.0,0.0,0.0,0.0,0.0,0.0,0.0,0.0,0.0,0.0,0.0,0.0,0.0,0.0,0.0,0.0,-4.3741,-4.5429,-4.6289,-4.6289,-4.6289,-4.6289,-4.6289,-4.6289,0.0,0.0,0.0,0.0,0.0,0.0,0.0,0.0,0.0,0.0,0.0,0.0,0.0,0.0,0.0,0.0,0.0,0.0,0.0,0.0,0.0,0.0,0.0,0.0,0.0,0.0,0.0,-3.4492,0.0,0.0,0.0,0.0,0.0,0.0,0.0,0.0,0.0,0.0,0.0,0.0,0.0,0.0,-3.7637,-3.8219,-3.9727,-4.0808,0.0,0.0,-4.0834,-4.0954,-4.0921,-4.0649,0.0,0.0,0.0,0.0,0.0,0.0,0.0,0.0,0.0,0.0,0.0,0.0,0.0,0.0,0.0,0.0,0.0,0.0,0.0,0.0,0.0,0.0,0.0,0.0,0.0,0.0,0.0,0.0,0.0,0.0,0.0,0.0,0.0,0.0,0.0,0.0,0.0,0.0,0.0,0.0,0.0,0.0,0.0,0.0,0.0,0.0,0.0,0.0,0.0,0.0,0.0,0.0,0.0,0.0,0.0,-4.3749,-4.5407,-4.6289,-4.6289,-4.6289,-4.6289,-4.6289,-4.6289,-4.5859,0.0,0.0,0.0,0.0,0.0,0.0,0.0,0.0,0.0,0.0,0.0,0.0,0.0,0.0,0.0,0.0,0.0,0.0,0.0,0.0,0.0,0.0,0.0,0.0,0.0,0.0,0.0,0.0,0.0,0.0,0.0,0.0,0.0,0.0,0.0,0.0,0.0,0.0,0.0,0.0,0.0,-3.8239,-3.8297,-3.9735,-4.0803,0.0,0.0,-4.0822,-4.0892,-4.0897,-4.0634,-3.9824,0.0,0.0,0.0,0.0,0.0,0.0,0.0,0.0,0.0,0.0,0.0,0.0,0.0,0.0,0.0,0.0,0.0,0.0,0.0,0.0,0.0,0.0,0.0,0.0,0.0,0.0,0.0,0.0,0.0,0.0,0.0,0.0,0.0,0.0,0.0,0.0,0.0,0.0,0.0,0.0,0.0,0.0,0.0,0.0,0.0,0.0,0.0,0.0,0.0,0.0,0.0,0.0,0.0,-4.3961,-4.451,-4.57,-4.6289,-4.6289,-4.6289,-4.6289,-4.6289,-4.6289,-4.5879,0.0,0.0,0.0,0.0,0.0,0.0,0.0,0.0,0.0,0.0,0.0,0.0,0.0,0.0,0.0,0.0,0.0,0.0,0.0,0.0,0.0,0.0,0.0,0.0,0.0,0.0,0.0,0.0,-3.9609,-3.9512,-3.7793,0.0,0.0,0.0,0.0,0.0,0.0,0.0,0.0,0.0,0.0,-3.9073,-3.9041,-4.0041,0.0,0.0,-4.079,-4.0796,-4.0823,-4.0828,-4.0743,-4.0532,-4.0018,0.0,0.0,0.0,0.0,0.0,0.0,0.0,0.0,0.0,0.0,0.0,0.0,0.0,0.0,0.0,0.0,0.0,0.0,0.0,0.0,0.0,0.0,0.0,0.0,0.0,0.0,0.0,0.0,0.0,0.0,0.0,0.0,0.0,0.0,0.0,0.0,0.0,0.0,0.0,0.0,0.0,0.0,0.0,0.0,0.0,0.0,0.0,0.0,0.0,0.0,0.0,0.0,-4.4123,-4.4989,-4.5858,-4.6289,-4.6289,-4.6289,-4.6289,-4.6289,-4.6289,-4.6016,0.0,0.0,0.0,0.0,0.0,0.0,0.0,0.0,0.0,0.0,0.0,0.0,0.0,0.0,0.0,0.0,0.0,0.0,0.0,0.0,0.0,0.0,0.0,0.0,0.0,0.0,0.0,0.0,-4.1562,-4.0976,-3.9531,0.0,0.0,0.0,0.0,0.0,0.0,0.0,0.0,0.0,0.0,-3.9588,-3.9575,-4.0266,-4.0815,-4.0808,-4.0796,-4.0788,-4.0809,-4.0798,-4.0828,-4.0926,0.0,0.0,0.0,0.0,0.0,0.0,0.0,0.0,0.0,0.0,0.0,0.0,0.0,0.0,0.0,0.0,0.0,0.0,0.0,0.0,0.0,0.0,0.0,0.0,0.0,0.0,0.0,0.0,0.0,0.0,-3.4686,0.0,0.0,0.0,0.0,0.0,0.0,0.0,0.0,0.0,0.0,0.0,0.0,0.0,0.0,0.0,0.0,0.0,0.0,0.0,0.0,0.0,0.0,-4.415,-4.5,-4.5879,-4.6289,-4.6289,-4.6289,-4.6289,-4.6289,-4.6289,-4.6289,-4.625,0.0,0.0,0.0,0.0,0.0,0.0,0.0,0.0,0.0,0.0,0.0,0.0,0.0,0.0,0.0,0.0,0.0,0.0,0.0,0.0,0.0,0.0,0.0,0.0,0.0,0.0,-4.2305,-4.2383,-4.2031,0.0,0.0,0.0,0.0,0.0,0.0,0.0,0.0,0.0,0.0,-3.9112,-3.9626,-3.9694,-4.035,-4.0812,-4.0796,-4.0804,-4.0812,-4.0807,-4.08,-4.0796,0.0,0.0,0.0,0.0,0.0,0.0,0.0,0.0,0.0,0.0,0.0,0.0,0.0,0.0,0.0,0.0,0.0,0.0,0.0,0.0,0.0,0.0,0.0,0.0,0.0,0.0,0.0,-3.563,-3.7975,0.0,0.0,0.0,0.0,0.0,0.0,0.0,0.0,0.0,0.0,0.0,-4.2829,-4.2848,0.0,0.0,0.0,0.0,0.0,0.0,0.0,0.0,0.0,0.0,0.0,0.0,-4.4999,-4.584,-4.6152,-4.6289,-4.6289,-4.6289,-4.6289,-4.6289,-4.6289,-4.6289,-4.6289,0.0,0.0,0.0,0.0,0.0,0.0,0.0,0.0,0.0,0.0,0.0,0.0,0.0,0.0,0.0,0.0,0.0,0.0,0.0,0.0,0.0,0.0,0.0,0.0,0.0,-4.3594,0.0,0.0,0.0,0.0,0.0,0.0,0.0,0.0,0.0,0.0,0.0,-3.9071,-3.9334,-4.0038,-4.0519,-4.0507,-4.0714,-4.0858,0.0,0.0,0.0,0.0,0.0,0.0,0.0,0.0,0.0,0.0,0.0,0.0,0.0,0.0,-3.9879,-3.761,-3.7423,-3.7415,-3.6829,0.0,0.0,0.0,0.0,0.0,0.0,0.0,0.0,0.0,0.0,0.0,0.0,0.0,0.0,-3.8307,0.0,-4.0743,0.0,0.0,0.0,0.0,0.0,0.0,0.0,0.0,-4.4195,-4.4605,-4.4601,-4.4601,-4.462,0.0,-4.4608,-4.4316,0.0,0.0,0.0,0.0,0.0,0.0,0.0,0.0,-4.543,-4.625,-4.6289,-4.6289,-4.6289,-4.6289,-4.6289,-4.6289,-4.6289,-4.6289,-4.6289,-4.5742,-4.5312,0.0,0.0,0.0,0.0,0.0,0.0,0.0,0.0,0.0,0.0,0.0,0.0,0.0,0.0,0.0,0.0,0.0,0.0,0.0,0.0,0.0,0.0,0.0,-4.498,0.0,0.0,0.0,0.0,0.0,0.0,0.0,0.0,0.0,-3.9609,-4.0194,-4.0818,-4.1129,-4.1582,-4.19,-4.187,0.0,0.0,0.0,0.0,0.0,0.0,0.0,-4.171,-4.172,-4.1904,-4.2215,-4.2714,-4.3003,-4.3166,-4.3166,0.0,0.0,-3.9875,-3.9533,-3.9461,-3.8604,-3.8219,-3.8007,-3.8007,-3.7973,-3.8035,0.0,0.0,0.0,0.0,0.0,0.0,0.0,0.0,-4.0682,-4.1601,0.0,-4.255,0.0,0.0,0.0,0.0,0.0,-4.4245,0.0,0.0,-4.5877,-4.6289,-4.6269,-4.625,-4.6269,-4.6289,-4.625,-4.625,-4.6152,-4.4609,0.0,0.0,0.0,0.0,0.0,0.0,-4.5469,-4.6269,-4.6289,-4.6289,-4.6289,-4.6289,-4.6289,-4.6289,-4.6289,-4.6289,-4.6289,-4.6289,-4.5918,-4.5098,-4.5,0.0,0.0,0.0,0.0,0.0,0.0,0.0,0.0,0.0,0.0,0.0,0.0,0.0,0.0,0.0,0.0,0.0,0.0,0.0,0.0,-4.5801,0.0,0.0,0.0,0.0,0.0,0.0,0.0,0.0,0.0,0.0,-4.1445,-4.1973,-4.2734,-4.3555,0.0,0.0,0.0,0.0,-4.3514,-4.3537,-4.3525,-4.3489,-4.3556,-4.3442,-4.3358,-4.3372,0.0,0.0,-4.4295,-4.3682,-4.322,-4.3201,-4.3855,-4.3852,-4.2248,-4.1193,-4.0373,-3.9546,-3.8777,-3.8123,-3.8104,-3.8238,-3.843,-3.9901,0.0,0.0,0.0,0.0,-3.7179,-3.8811,-4.1446,-4.1844,-4.3192,-4.5096,-4.5155,0.0,0.0,0.0,0.0,0.0,0.0,-4.5916,-4.5936,-4.6172,-4.6289,-4.6289,-4.6289,-4.6289,-4.6289,-4.6289,-4.6289,-4.6269,-4.5801,-4.5566,-4.5566,0.0,0.0,0.0,0.0,-4.6035,-4.6289,-4.6289,-4.6289,-4.6289,-4.6289,-4.6289,-4.6289,-4.6289,-4.6289,-4.6289,-4.6289,-4.6191,-4.5918,-4.5332,0.0,0.0,0.0,0.0,0.0,0.0,0.0,0.0,0.0,0.0,0.0,0.0,0.0,0.0,0.0,0.0,0.0,0.0,0.0,-4.5742,-4.6152,-4.5859,0.0,0.0,0.0,0.0,0.0,0.0,0.0,0.0,0.0,-4.3945,-4.3574,-4.3418,0.0,0.0,-4.3668,-4.3698,-4.3665,-4.3623,-4.3617,-4.3583,0.0,-4.3607,-4.352,-4.3458,-4.347,-4.402,-4.4442,-4.4395,-4.4691,-4.4944,-4.4891,-4.5066,-4.4891,-4.3833,-4.2948,-4.2085,-4.1258,-4.0392,-3.9796,-3.9796,-3.9777,-3.9835,-4.4601,-4.2086,-4.0075,-3.9823,-4.0713,-4.0808,-4.2286,-4.4686,-4.4841,-4.5611,-4.6738,-4.6797,-4.6328,-4.5527,-4.5527,0.0,0.0,0.0,-4.6289,-4.6289,-4.6289,-4.6289,-4.6289,-4.6289,-4.6289,-4.6289,-4.6289,-4.6289,-4.6289,-4.6289,-4.6289,-4.6289,0.0,0.0,-4.6289,-4.6289,-4.6289,-4.6289,-4.6289,-4.6289,-4.6289,-4.6289,-4.6289,-4.6289,-4.6289,-4.6289,-4.6289,-4.6289,-4.6289,-4.6289,-4.5801,-4.5371,0.0,0.0,0.0,0.0,0.0,0.0,0.0,0.0,0.0,0.0,0.0,-3.8848,0.0,0.0,0.0,0.0,-4.4219,-4.5156,-4.6211,-4.6289,0.0,0.0,0.0,0.0,0.0,0.0,0.0,-4.418,-4.4687,-4.5137,-4.5449,-4.5058,-4.4726,-4.4726,-4.4726,-4.4746,-4.4725,0.0,-4.4719,-4.4675,-4.4646,-4.4624,-4.463,-4.4545,-4.4472,-4.4408,-4.4728,-4.4974,-4.4947,-4.5379,-4.5673,-4.564,-4.5622,-4.5413,-4.4913,-4.4143,-4.3181,-4.2027,-4.1104,-4.0527,-4.0489,-4.0489,-4.0489,-4.8604,-4.8198,-4.3576,-4.2899,-4.4871,-4.4976,-4.6363,-4.8557,-4.8635,-4.8319,-4.7694,-4.7695,-4.7266,-4.6504,-4.6523,0.0,-4.6387,-4.6406,-4.6367,-4.6289,-4.6289,-4.6289,-4.6289,-4.6289,-4.6289,-4.6289,-4.6289,-4.6289,-4.6289,-4.6289,-4.6289,-4.6289,-4.6289,-4.6289,-4.6289,-4.6289,-4.6289,-4.6289,-4.6289,-4.6289,-4.6289,-4.6289,-4.6289,-4.6289,-4.6289,-4.6289,-4.6289,-4.6289,-4.6289,-4.6289,-4.6289,-4.5918,-4.5156,0.0,0.0,0.0,0.0,0.0,0.0,0.0,0.0,0.0,0.0,0.0,0.0,0.0,0.0,0.0,-4.582,0.0,-4.6289,-4.6289,0.0,0.0,0.0,-4.4785,-4.3984,-4.3906,-4.4219,-4.5019,0.0,0.0,-4.6211,-4.6289,-4.6289,-4.6289,-4.6289,-4.6289,-4.6289,-4.623,-4.6289,-4.6186,-4.6206,-4.6186,-4.6025,-4.5949,-4.5804,-4.5678,-4.5815,-4.5742,-4.5658,-4.5684,-4.569,-4.569,-4.5657,-4.5603,-4.5603,-4.4853,-4.3797,-4.2239,-4.1239,-4.0604,-4.0508,-4.0489,-4.0489,-5.0306,-5.021,-4.901,-4.8101,-4.7502,-4.756,-4.7932,-4.8438,-4.8613,-4.8573,-4.8362,-4.8529,-4.8476,-4.8281,-4.8281,-4.791,-4.7285,-4.7285,-4.6933,-4.6308,-4.6289,-4.6289,-4.6289,-4.6289,-4.6289,-4.6289,-4.6289,-4.6289,-4.6289,-4.6289,-4.6289,-4.6289,-4.6289,-4.6289,-4.6289,-4.6289,-4.6289,-4.6289,-4.6289,-4.6289,-4.6289,-4.6289,-4.6289,-4.6289,-4.6289,-4.6289,-4.6289,-4.6301,-4.6293,-4.6293,-4.6307,-4.6211,-4.5996,-4.536,0.0,0.0,0.0,0.0,0.0,0.0,0.0,0.0,0.0,-4.2519,-4.4258,0.0,-4.5762,0.0,-4.6172,-4.6289,-4.6289,-4.6289,0.0,0.0,-4.5976,-4.5918,-4.5683,-4.5683,-4.5762,-4.5976,-4.5996,-4.6074,-4.6289,-4.6289,-4.6289,-4.6289,-4.6289,-4.6289,-4.6289,-4.6289,-4.6289,-4.6306,-4.6281,-4.6255,-4.6197,-4.6084,-4.597,-4.58,-4.5805,-4.5791,-4.5781,-4.5765,-4.577,-4.57,-4.5684,-4.5687,-4.5673,-4.4963,-4.4061,-4.3006,-4.2104,-4.1277,-4.0642,-4.0489,-4.0489,-5.0906,-5.0906,-5.0906,-5.0364,-4.9533,-4.9552,-4.9571,-4.9625,-4.9749,-4.9601,-4.9228,-4.9001,-4.8887,-4.8887,-4.8887,-4.8633,-4.8183,-4.8183,-4.793,-4.748,-4.7441,-4.7246,-4.6875,-4.6875,-4.668,-4.6289,-4.6289,-4.6289,-4.6289,-4.6289,-4.6289,-4.6289,-4.6289,-4.6289,-4.6289,-4.6289,-4.6289,-4.6289,-4.6289,-4.6289,-4.6289,-4.6289,-4.6289,-4.6289,-4.6289,-4.6289,-4.6303,-4.629,-4.63,-4.63,-4.6297,-4.6305,-4.6287,-4.5846,-4.5402,0.0,0.0,0.0,0.0,0.0,0.0,0.0,0.0,0.0,0.0,0.0,-4.6289,-4.6289,-4.6289,-4.6289,-4.6289,-4.6289,-4.6289,-4.6289,-4.6289,-4.6289,-4.6289,-4.6289,-4.6289,-4.6289,-4.6289,-4.6289,-4.6289,-4.6289,-4.6289,-4.6289,-4.6289,-4.6289,-4.6289,-4.6289,-4.6305,-4.6293,-4.6288,-4.622,-4.6123,-4.6046,-4.5955,-4.5838,-4.58,-4.5819,-4.581,-4.5795,-4.58,-4.5731,-4.5715,-4.568,-4.5648,-4.534,-4.4723,-4.3882,-4.3018,-4.1982,-4.0773,-4.0489,-4.0489,-5.0906,-5.0906,-5.0906,-5.0906,-5.0906,-5.0906,-5.0964,-5.108,-5.1177,-5.0821,-5.0137,-4.9512,-4.9219,-4.9219,-4.9219,-4.916,-4.9062,-4.9062,-4.9004,-4.8906,-4.8887,-4.8516,-4.7773,-4.7773,-4.7305,-4.6484,-4.6465,-4.6426,-4.6308,-4.6289,-4.6289,-4.6289,-4.6289,-4.6289,-4.6289,-4.6289,-4.6289,-4.6289,-4.6289,-4.6289,-4.6289,-4.6289,-4.6289,-4.6289,-4.6289,-4.6305,-4.6303,-4.63,-4.63,-4.63,-4.63,-4.6287,-4.63,-4.629,-4.5968,0.0,-4.5168,0.0,0.0,0.0,0.0,0.0,0.0,0.0,0.0,-4.6289,-4.6289,-4.6289,-4.6289,-4.6289,-4.6289,-4.6289,-4.6289,-4.6289,-4.6289,-4.6289,-4.6289,-4.6289,-4.6289,-4.6289,-4.6289,-4.6289,-4.6289,-4.6289,-4.6289,-4.6289,-4.6289,-4.6289,-4.6289,-4.6289,-4.6306,-4.63,-4.6239,-4.6143,-4.6046,-4.6007,-4.5916,-4.5819,-4.58,-4.58,-4.58,-4.581,-4.5815,-4.5795,-4.5746,-4.5712,-4.5715,-4.5715,-4.5426,-4.46,-4.3798,-4.2745,-4.1193,-4.06,-4.0489,-5.0906,-5.0906,-5.0906,-5.0906,-5.0906,-5.0906,-5.0906,-5.0964,-5.1138,-5.1172,-5.1113,-5.0976,-5.0918,-5.0918,-5.0918,-5.0566,-4.9961,-4.9961,-4.959,-4.8887,-4.8887,-4.8828,-4.8652,-4.8652,-4.8183,-4.7383,-4.7363,-4.6992,-4.6289,-4.6289,-4.6289,-4.6289,-4.63,-4.629,-4.629,0.0,0.0,0.0,-4.6301,-4.629,-4.629,-4.6306,-4.6289,-4.6289,-4.6301,0.0,-4.63,-4.63,-4.63,-4.63,-4.63,0.0,0.0,0.0,0.0,0.0,0.0,0.0,0.0,0.0,0.0,0.0,-4.6053,-4.6124,-4.6269,-4.6289,-4.6289,-4.6289,-4.6289,-4.6289,-4.6289,-4.6289,-4.6289,-4.6289,-4.6289,-4.6289,-4.6289,-4.6289,-4.6289,-4.6289,-4.6289,-4.6289,-4.6289,-4.6289,-4.6289,-4.6289,-4.6289,-4.6289,-4.6289,-4.6289,-4.6289,-4.6278,-4.6195,-4.6085,-4.6007,-4.5896,-4.5838,-4.58,-4.58,-4.58,-4.58,-4.58,-4.5819,-4.5819,-4.5766,-4.5771,-4.5781,-4.58,-4.5514,-4.4673,-4.4349,-4.3717,-4.1994,-4.1039,-4.0489,-5.0945,0.0,-5.1003,-5.1003,0.0,-5.1061,-5.1041,-5.1061,-5.1157,-5.1269,-5.1387,-5.1387,-5.1387,-5.1387,-5.1387,-5.1191,-5.0801,-5.0781,-5.0566,-5.0156,-5.0137,-4.9922,-4.9531,-4.9531,-4.9082,-4.8223,-4.7793,-4.7363,-4.6933,-4.6501,-4.6301,-4.6301,-4.6295,-4.629,-4.63,-4.629,-4.63,-4.6307,-4.63,-4.629,-4.6303,-4.6295,-4.6301,-4.6301,-4.629,0.0,0.0,0.0,0.0,0.0,0.0,0.0,0.0,-4.63,0.0,-4.6261,-4.629,-4.63,-4.6261,-4.628,-4.63,-4.63,-4.63,-4.6293,-4.6307,-4.6289,-4.6289,-4.6289,-4.6289,-4.6289,-4.6289,-4.6289,-4.6289,-4.6289,-4.6289,-4.6289,-4.6289,-4.6289,-4.6289,-4.6289,-4.6289,-4.6289,-4.6289,-4.6289,-4.6289,-4.6289,-4.6289,-4.6289,-4.6289,-4.6292,-4.6286,-4.6221,-4.6113,-4.6007,-4.5916,-4.5858,-4.58,-4.58,-4.58,-4.58,-4.58,-4.58,-4.58,-4.58,-4.58,-4.5819,-4.5805,-4.581,-4.5675,-4.5235,-4.4781,-4.4109,-4.2802,-4.1832,-4.105,-5.1003,-5.108,-5.1121,-5.115,-5.1208,-5.1208,-5.1203,-5.1215,0.0,0.0,0.0,-5.1387,-5.1387,-5.1387,-5.1387,-5.1387,-5.1387,-5.1387,-5.1387,-5.1387,-5.1387,-5.1055,-5.041,-5.0391,-4.998,-4.9101,-4.8262,-4.7754,-4.7557,-4.6722,-4.63,-4.6303,-4.6295,-4.6295,-4.6303,-4.63,-4.6287,-4.6297,-4.63,-4.6295,-4.63,-4.63,-4.63,-4.63,-4.63,-4.63,-4.63,-4.63,-4.63,-4.63,-4.6287,-4.6306,-4.6303,-4.6293,-4.6264,-4.6211,-4.6243,-4.627,-4.6202,-4.6261,-4.63,-4.63,-4.63,-4.6287,-4.6301,-4.6306,-4.6289,-4.6289,-4.6289,-4.6289,-4.6289,-4.6289,-4.6289,-4.6289,-4.6289,-4.6289,-4.6289,-4.6289,-4.6289,-4.6289,-4.6289,-4.6289,-4.6289,-4.6289,-4.6289,-4.6289,-4.6289,-4.6286,-4.6287,-4.6268,-4.6228,-4.6105,-4.6034,-4.5955,-4.5838,-4.58,-4.58,-4.58,-4.58,-4.58,-4.58,-4.58,-4.58,-4.58,-4.58,-4.58,-4.58,-4.58,-4.58,-4.58,-4.5244,-4.4481,-4.3631,-4.2753,-4.1837,-5.1099,-5.1115,-5.1169,-5.118,-5.12,-5.12,-5.1233,-5.1273,-5.1273,-5.1327,-5.1387,-5.1387,-5.1387,-5.1387,-5.1387,-5.1387,-5.1387,-5.1387,-5.1387,-5.1387,-5.1387,-5.1328,-5.123,-5.123,-5.082,-5.0,-4.9121,-4.8337,-4.7578,-4.6733,-4.63,-4.63,-4.6303,-4.6303,-4.63,-4.63,-4.6303,-4.6303,-4.6303,-4.6303,-4.63,-4.63,-4.63,-4.63,-4.63,-4.63,-4.63,-4.63,-4.63,-4.6303,-4.6245,-4.6246,-4.6306,-4.623,-4.6204,-4.6211,-4.6211,-4.621,-4.6206,-4.6202,-4.6241,-4.63,-4.63,-4.6287,-4.63,-4.6295,-4.6293,-4.6303,-4.6288,-4.6289,-4.6289,-4.6289,-4.6289,-4.6289,-4.6289,-4.6289,-4.6289,-4.6289,-4.6289,-4.6289,-4.6289,-4.6289,-4.6289,-4.6289,-4.6289,-4.6289,-4.6289,-4.629,-4.624,-4.6197,-4.6156,-4.6048,-4.5996,-4.5949,-4.5838,-4.58,-4.58,-4.58,-4.58,-4.58,-4.58,-4.58,-4.58,-4.58,-4.58,-4.58,-4.58,-4.58,-4.58,-4.578,-4.5606,-4.5264,-4.4452,-4.3568,-4.251,-5.1125,-5.1163,-5.1229,-5.1287,-5.1316,-5.1288,-5.1327,-5.1358,-5.1356,-5.1362,-5.1387,-5.1387,-5.1387,-5.1387,-5.1387,-5.1387,-5.1387,-5.1387,-5.1387,-5.1387,-5.1387,-5.1387,-5.1387,-5.1387,-5.1211,-5.0781,-4.9527,-4.8677,-4.8216,-4.6967,-4.63,-4.63,-4.63,-4.63,-4.63,-4.63,-4.63,-4.63,-4.63,-4.63,-4.63,-4.63,-4.63,-4.63,-4.63,-4.63,-4.63,-4.63,-4.63,-4.63,-4.6226,-4.621,-4.6246,-4.6205,-4.6183,-4.616,-4.6173,-4.6173,-4.6136,-4.6175,-4.6207,-4.6249,-4.6248,-4.6248,-4.6248,-4.6282,-4.6303,-4.6293,-4.6297,-4.6303,-4.6306,-4.6307,-4.6288,-4.6289,-4.6289,-4.6289,-4.6289,-4.6289,-4.6289,-4.6289,-4.6289,-4.6289,-4.6289,-4.6289,-4.6289,-4.6289,-4.627,-4.6235,-4.6163,-4.6131,-4.6073,-4.6007,-4.5916,-4.5858,-4.5819,-4.58,-4.58,-4.58,-4.58,-4.58,-4.58,-4.58,-4.58,-4.58,-4.58,-4.58,-4.58,-4.58,-4.58,-4.58,-4.58,-4.5471,-4.4717,-4.3576,-4.2176,-5.1477,-5.1512,-5.1381,-5.1355,-5.1386,-5.1393,-5.1392,-5.14,-5.1402,-5.1387,-5.1387,-5.1387,-5.1387,-5.1387,-5.1387,-5.1387,-5.1387,-5.1387,-5.1387,-5.1387,-5.1387,-5.1386,-5.1386,-5.1385,-5.1307,-5.0956,-4.9597,-4.8805,-4.845,-4.7045,-4.63,-4.63,-4.63,-4.63,-4.63,-4.63,-4.63,-4.63,-4.63,-4.63,-4.63,-4.63,-4.63,-4.63,-4.63,-4.63,-4.63,-4.63,-4.6306,-4.6276,-4.623,-4.6209,-4.6209,-4.6163,-4.6156,-4.6105,-4.6137,-4.6131,-4.6105,-4.615,-4.6206,-4.6211,-4.6198,-4.6205,-4.6212,-4.625,-4.628,-4.6295,-4.629,-4.6293,-4.6268,-4.6303,-4.6301,-4.6287,-4.6289,-4.6269,-4.6289,-4.6286,-4.6289,-4.6289,-4.6289,-4.6289,-4.63,-4.6295,-4.6269,-4.625,-4.6228,-4.6169,-4.6111,-4.6033,-4.6003,-4.5944,-4.5872,-4.58,-4.58,-4.58,-4.58,-4.58,-4.58,-4.58,-4.58,-4.58,-4.58,-4.58,-4.58,-4.58,-4.58,-4.58,-4.58,-4.58,-4.58,-4.5548,-4.4736,-4.3479,-4.2093,-5.2462,-5.2349,-5.1693,-5.1385,-5.1386,-5.1402,-5.1398,-5.1387,-5.1387,-5.1387,-5.1387,-5.1387,-5.1387,-5.1387,-5.1387,-5.1387,-5.1387,-5.1387,-5.1387,-5.1387,-5.1387,-5.1384,-5.1385,-5.1382,-5.0978,-5.0228,-4.9309,-4.8443,-4.7767,-4.6788,-4.63,-4.63,-4.63,-4.63,-4.63,-4.63,-4.63,-4.63,-4.63,-4.63,-4.63,-4.63,-4.63,-4.63,-4.63,-4.63,-4.63,-4.63,-4.6278,-4.623,-4.62,-4.6209,-4.6202,-4.6091,-4.6046,-4.6091,-4.6035,-4.6037,-4.6095,-4.6183,-4.6195,-4.6201,-4.6201,-4.6206,-4.6199,-4.6209,-4.62,-4.6209,-4.6262,-4.6265,-4.62,-4.6268,-4.6273,-4.6239,-4.6225,-4.6209,-4.6212,-4.6218,-4.6211,-4.6211,-4.6269,-4.6297,-4.6293,-4.6266,-4.6232,-4.6211,-4.6189,-4.6166,-4.6104,-4.6026,-4.5964,-4.5932,-4.5827,-4.5814,-4.58,-4.58,-4.58,-4.58,-4.58,-4.58,-4.58,-4.58,-4.58,-4.58,-4.58,-4.58,-4.58,-4.58,-4.58,-4.58,-4.5761,-4.5568,-4.4755,-4.3866,-4.2905,-5.262,-5.2511,-5.1737,-5.1385,-5.1396,-5.1394,-5.1402,-5.1387,-5.1387,-5.1385,-5.1396,-5.1394,-5.1396,-5.1396,-5.1402,-5.1384,-5.1384,-5.1384,-5.1384,-5.1384,-5.1384,-5.14,-5.1352,-5.0836,-5.0426,-5.0002,-4.8772,-4.7969,-4.7514,-4.6729,-4.63,-4.63,-4.63,-4.63,-4.63,-4.63,-4.63,-4.63,-4.63,-4.63,-4.63,-4.63,-4.63,-4.63,-4.63,-4.63,-4.6306,-4.6268,-4.6229,-4.6207,-4.6175,-4.6142,-4.6142,-4.6054,-4.6017,-4.6036,-4.6027,-4.6016,-4.6035,-4.6063,-4.6072,-4.6085,-4.6123,-4.6125,-4.6091,-4.6153,-4.6191,-4.615,-4.6209,-4.6225,-4.6209,-4.6223,-4.623,-4.6211,-4.6202,-4.6201,-4.6212,-4.6205,-4.6201,-4.6202,-4.6209,-4.6253,-4.6254,-4.6211,-4.6212,-4.6199,-4.6169,-4.6134,-4.6088,-4.6014,-4.5932,-4.5906,-4.5847,-4.5814,-4.58,-4.58,-4.58,-4.58,-4.58,-4.58,-4.58,-4.58,-4.58,-4.58,-4.58,-4.58,-4.58,-4.58,-4.58,-4.58,-4.58,-4.5684,-4.5355,-4.4639,-4.3808,-5.2986,-5.2815,-5.1867,-5.1396,-5.1394,-5.1394,-5.1389,-5.1384,-5.1386,-5.14,-5.1382,-5.1398,-5.1394,-5.1398,-5.1389,-5.1394,-5.1394,-5.1394,-5.1394,-5.1394,-5.1394,-5.1277,-5.1003,-5.0426,-4.9852,-4.9286,-4.8193,-4.7494,-4.7217,-4.6651,-4.63,-4.63,-4.63,-4.63,-4.63,-4.63,-4.63,-4.6319,-4.6515,-4.6651,-4.669,-4.6866,-4.6768,-4.6358,-4.63,-4.63,-4.6303,-4.6248,-4.6202,-4.6199,-4.615,-4.6091,-4.6068,-4.6027,-4.5977,-4.5977,-4.5977,-4.5977,-4.5977,-4.5977,-4.5977,-4.5988,-4.6054,-4.6044,-4.6027,-4.6091,-4.6118,-4.6085,-4.6123,-4.6142,-4.6167,-4.6191,-4.6202,-4.6163,-4.6179,-4.6176,-4.6173,-4.6182,-4.6173,-4.6196,-4.619,-4.619,-4.6176,-4.6171,-4.6162,-4.6124,-4.6104,-4.6074,-4.6061,-4.5999,-4.5937,-4.5899,-4.586,-4.5833,-4.5814,-4.58,-4.58,-4.58,-4.58,-4.58,-4.58,-4.58,-4.58,-4.58,-4.58,-4.58,-4.58,-4.58,-4.58,-4.58,-4.58,-4.58,-4.5703,-4.5104,-4.4446,-5.3944,-5.3649,-5.2111,-5.1418,-5.1394,-5.1394,-5.1394,-5.1402,-5.1394,-5.1398,-5.1394,-5.1402,-5.1394,-5.1394,-5.1398,-5.1394,-5.1398,-5.1398,-5.1398,-5.1398,-5.1359,-5.0949,-5.0188,-5.0087,-4.9267,-4.7998,-4.7647,-4.712,-4.6456,-4.6339,-4.63,-4.6319,-4.6378,-4.6358,-4.6436,-4.6475,-4.6339,-4.6554,-4.7178,-4.7549,-4.7627,-4.8271,-4.7842,-4.6593,-4.6358,-4.6436,-4.6387,-4.6286,-4.6265,-4.6251,-4.6236,-4.6138,-4.6085,-4.6085,-4.6113,-4.6094,-4.6085,-4.6055,-4.6104,-4.6162,-4.6133,-4.6085,-4.6221,-4.6085,-4.626,-4.628,-4.6241,-4.6055,-4.6124,-4.6154,-4.6095,-4.6157,-4.6176,-4.6113,-4.6088,-4.6099,-4.6095,-4.6104,-4.6124,-4.6124,-4.6154,-4.6154,-4.6124,-4.6104,-4.6085,-4.6035,-4.5997,-4.5997,-4.6005,-4.5983,-4.596,-4.5925,-4.5887,-4.586,-4.5814,-4.58,-4.58,-4.5858,-4.5896,-4.5896,-4.5819,-4.58,-4.5877,-4.5877,-4.5974,-4.5993,-4.5858,-4.58,-4.58,-4.58,-4.58,-4.58,-4.58,-4.5142,-4.4601,-5.3327,-5.2351,-5.227,-5.1913,-5.1414,-5.1394,-5.1394,-5.1394,-5.1402,-5.1385,-5.1382,-5.1398,-5.1394,-5.1394,-5.1394,-5.1394,-5.1394,-5.1394,-5.1394,-5.1336,-5.0828,-5.0399,-5.0028,-4.9052,-4.8252,-4.7627,-4.7042,-4.6612,-4.6339,-4.63,-4.6593,-4.7061,-4.7139,-4.7373,-4.7803,-4.79,-4.79,-4.7939,-4.8232,-4.8369,-4.8388,-4.8662,-4.8486,-4.7939,-4.79,-4.79,-4.7904,-4.7842,-4.7801,-4.7794,-4.7728,-4.7689,-4.7678,-4.7648,-4.7667,-4.7667,-4.7658,-4.765,-4.7669,-4.7669,-4.7658,-4.7667,-4.7648,-4.7609,-4.7667,-4.7648,-4.7434,-4.6987,-4.6832,-4.6657,-4.6143,-4.6074,-4.6083,-4.6047,-4.6037,-4.6047,-4.6037,-4.6035,-4.6016,-4.6035,-4.6035,-4.6055,-4.6035,-4.6035,-4.6016,-4.5997,-4.5977,-4.5997,-4.5994,-4.5972,-4.5937,-4.588,-4.5874,-4.5833,-4.5814,-4.58,-4.5838,-4.6013,-4.6129,-4.6477,-4.6554,-4.6883,-4.7038,-4.6399,-4.6361,-4.6148,-4.5993,-4.58,-4.58,-4.58,-4.58,-4.58,-4.58,-4.5394,-4.5026,-5.3155,-5.2019,-5.2462,-5.2186,-5.1433,-5.1394,-5.1394,-5.1394,-5.1394,-5.1394,-5.1394,-5.1394,-5.1394,-5.1394,-5.1394,-5.1394,-5.1394,-5.1394,-5.1258,-5.0945,-5.036,-4.9829,-4.9169,-4.8135,-4.7608,-4.7588,-4.7315,-4.712,-4.71,-4.71,-4.7412,-4.7959,-4.7978,-4.8232,-4.872,-4.8798,-4.8798,-4.8837,-4.9072,-4.9208,-4.9247,-4.9501,-4.9638,-4.9638,-4.9638,-4.9345,-4.8841,-4.874,-4.8699,-4.8708,-4.8638,-4.858,-4.858,-4.858,-4.858,-4.858,-4.8572,-4.8582,-4.8582,-4.8572,-4.8591,-4.8588,-4.858,-4.858,-4.858,-4.858,-4.8269,-4.7861,-4.7706,-4.7376,-4.6676,-4.6443,-4.6307,-4.6074,-4.5977,-4.5977,-4.5977,-4.5997,-4.5997,-4.5997,-4.5997,-4.5997,-4.5977,-4.5997,-4.5977,-4.5977,-4.5977,-4.5986,-4.5994,-4.596,-4.5917,-4.5899,-4.5874,-4.5827,-4.5814,-4.58,-4.58,-4.5955,-4.6129,-4.6612,-4.7038,-4.7521,-4.7618,-4.7018,-4.6593,-4.6322,-4.609,-4.5877,-4.58,-4.58,-4.58,-4.58,-4.58,-4.58,-4.5452,-5.3458,-5.2624,-5.2702,-5.2195,-5.1453,-5.1394,-5.1394,-5.1394,-5.1394,-5.1394,-5.1394,-5.1394,-5.1394,-5.1394,-5.1394,-5.1394,-5.1394,-5.1394,-5.1023,-5.0379,-5.0184,-4.9321,-4.8076,-4.7881,-4.7744,-4.7764,-4.8388,-4.8681,-4.8584,-4.8545,-4.8623,-4.8779,-4.8798,-4.8915,-4.8896,-4.9072,-4.8954,-4.915,-4.9755,-5.0106,-5.0204,-5.0809,-5.1141,-5.1219,-5.1203,-5.05,-4.9013,-4.8903,-4.8932,-4.8879,-4.8802,-4.8658,-4.8832,-4.8832,-4.8716,-4.8832,-4.8735,-4.8677,-4.8716,-4.8802,-4.8887,-4.8907,-4.8743,-4.8891,-4.8968,-4.8871,-4.8794,-4.8638,-4.858,-4.8269,-4.7512,-4.7201,-4.6851,-4.6171,-4.5977,-4.5977,-4.5977,-4.5977,-4.5977,-4.5977,-4.5977,-4.5977,-4.5977,-4.5977,-4.5977,-4.5977,-4.5977,-4.5997,-4.5986,-4.5972,-4.596,-4.5925,-4.5887,-4.5827,-4.5814,-4.58,-4.58,-4.5838,-4.6013,-4.6322,-4.6651,-4.7076,-4.7289,-4.6864,-4.6317,-4.6046,-4.6021,-4.5847,-4.5814,-4.5814,-4.5814,-4.58,-4.58,-4.58,-4.58,-5.3135,-5.1941,-5.2468,-5.2195,-5.1433,-5.1394,-5.1394,-5.1394,-5.1394,-5.1394,-5.1394,-5.1394,-5.1394,-5.1394,-5.1394,-5.1394,-5.1394,-5.1394,-5.1238,-5.0926,-5.0379,-4.9829,-4.9267,-4.8701,-4.8427,-4.8466,-4.8662,-4.8818,-4.8837,-4.8837,-4.9052,-4.9579,-4.9696,-5.0008,-5.0496,-5.0594,-5.0594,-5.0633,-5.0848,-5.0984,-5.1004,-5.1258,-5.1394,-5.1398,-5.1396,-5.1086,-5.0621,-5.0532,-5.0474,-5.0386,-5.0425,-5.0386,-5.0386,-5.0386,-5.0386,-5.0386,-5.0386,-5.0406,-5.0386,-5.0355,-5.0316,-5.0375,-5.0355,-5.0386,-5.0386,-5.0328,-5.0056,-4.9609,-4.9473,-4.9124,-4.8327,-4.7628,-4.7026,-4.6094,-4.5977,-4.5977,-4.5997,-4.6016,-4.5977,-4.5977,-4.5977,-4.5977,-4.5997,-4.5997,-4.5977,-4.5997,-4.5997,-4.5986,-4.5953,-4.5941,-4.5905,-4.5854,-4.5827,-4.5827,-4.5814,-4.58,-4.58,-4.5877,-4.6032,-4.6129,-4.6419,-4.6723,-4.6897,-4.6723,-4.6176,-4.5905,-4.5866,-4.5847,-4.5814,-4.5814,-4.58,-4.58,-4.58,-4.58,-4.58,-5.2897,-5.198,-5.2468,-5.2195,-5.1433,-5.1394,-5.1394,-5.1394,-5.1394,-5.1394,-5.1394,-5.1394,-5.1394,-5.1394,-5.1394,-5.1394,-5.1394,-5.1394,-5.1394,-5.1258,-5.0496,-4.9969,-4.9716,-4.9462,-4.9286,-4.9364,-4.9618,-4.9755,-4.9774,-4.9774,-5.0067,-5.0516,-5.0575,-5.0828,-5.1355,-5.1394,-5.1394,-5.1394,-5.1375,-5.1394,-5.1394,-5.1394,-5.1394,-5.1398,-5.1394,-5.1394,-5.1402,-5.1344,-5.1265,-5.1208,-5.1202,-5.1202,-5.1202,-5.1183,-5.1202,-5.1202,-5.1202,-5.1183,-5.1202,-5.1105,-5.1202,-5.1202,-5.1202,-5.1202,-5.1202,-5.1202,-5.0891,-5.0503,-5.0367,-5.0017,-4.9182,-4.8658,-4.79,-4.7065,-4.6346,-4.6055,-4.6035,-4.6307,-4.6482,-4.654,-4.6521,-4.6482,-4.6463,-4.6113,-4.6035,-4.5997,-4.5986,-4.5994,-4.5949,-4.5925,-4.5867,-4.5827,-4.5827,-4.5814,-4.5814,-4.58,-4.58,-4.5935,-4.609,-4.6129,-4.6283,-4.664,-4.6872,-4.6466,-4.5963,-4.5872,-4.5847,-4.5847,-4.5833,-4.5814,-4.58,-4.58,-4.58,-4.58,-4.58,-5.2624,-5.2624,-5.2624,-5.2117,-5.1433,-5.1394,-5.1394,-5.1394,-5.1394,-5.1394,-5.1394,-5.1394,-5.1394,-5.1394,-5.1394,-5.1394,-5.1394,-5.1394,-5.1394,-5.1199,-5.0614,-4.9989,-4.952,-4.993,-5.0165,-5.0282,-5.0887,-5.1219,-5.1082,-5.1102,-5.1394,-5.1277,-5.1258,-5.1355,-5.1394,-5.1394,-5.1394,-5.1394,-5.1394,-5.1394,-5.1394,-5.1394,-5.1394,-5.1394,-5.1398,-5.1398,-5.1385,-5.134,-5.1264,-5.1217,-5.1202,-5.1202,-5.1202,-5.1202,-5.1202,-5.1202,-5.1202,-5.1202,-5.1202,-5.1202,-5.1202,-5.1202,-5.1202,-5.1202,-5.1202,-5.1202,-5.1183,-5.1066,-5.1086,-5.0794,-5.0134,-4.9745,-4.9299,-4.8541,-4.724,-4.6482,-4.6268,-4.6948,-4.724,-4.724,-4.7279,-4.722,-4.7007,-4.6385,-4.6094,-4.5997,-4.5986,-4.5983,-4.596,-4.5925,-4.5906,-4.586,-4.5814,-4.5814,-4.58,-4.58,-4.58,-4.5872,-4.6027,-4.6079,-4.6118,-4.6402,-4.6803,-4.6396,-4.5957,-4.5866,-4.5814,-4.5847,-4.5847,-4.5814,-4.58,-4.58,-4.58,-4.58,-4.58,-5.1746,-5.1726,-5.1746,-5.1609,-5.1394,-5.1394,-5.1394,-5.1394,-5.1394,-5.1394,-5.1394,-5.1394,-5.1394,-5.1394,-5.1394,-5.1394,-5.1394,-5.1394,-5.1394,-5.1375,-5.1199,-5.0984,-5.077,-5.0906,-5.1023,-5.1082,-5.1238,-5.1394,-5.1394,-5.1394,-5.1394,-5.1394,-5.1394,-5.1394,-5.1394,-5.1394,-5.1394,-5.1394,-5.1394,-5.1394,-5.1394,-5.1394,-5.1394,-5.1394,-5.1394,-5.1394,-5.1389,-5.1299,-5.122,-5.1214,-5.1202,-5.1202,-5.1202,-5.1202,-5.1202,-5.1202,-5.1202,-5.1202,-5.1202,-5.1202,-5.1202,-5.1202,-5.1202,-5.1202,-5.1202,-5.1202,-5.1202,-5.1202,-5.1202,-5.1105,-5.0775,-5.0289,-4.9571,-4.8735,-4.8191,-4.7881,-4.7842,-4.8075,-4.8055,-4.7453,-4.7395,-4.7162,-4.6676,-4.6307,-4.6035,-4.6016,-4.5986,-4.5975,-4.5929,-4.5905,-4.5887,-4.5847,-4.58,-4.58,-4.58,-4.58,-4.58,-4.5814,-4.5886,-4.5951,-4.597,-4.6061,-4.6519,-4.6707,-4.61,-4.5841,-4.586,-4.5893,-4.5847,-4.5814,-4.58,-4.58,-4.58,-4.58,-4.58,-5.1726,-5.1394,-5.1394,-5.1394,-5.1394,-5.1394,-5.1394,-5.1394,-5.1394,-5.1394,-5.1394,-5.1394,-5.1394,-5.1394,-5.1394,-5.1394,-5.1394,-5.1394,-5.1394,-5.1394,-5.1375,-5.1355,-5.1355,-5.1394,-5.1394,-5.1394,-5.1394,-5.1394,-5.1394,-5.1394,-5.1394,-5.1394,-5.1394,-5.1394,-5.1394,-5.1394,-5.1394,-5.1394,-5.1394,-5.1394,-5.1394,-5.1394,-5.1394,-5.1394,-5.1394,-5.1389,-5.1346,-5.1277,-5.1248,-5.1201,-5.1217,-5.1202,-5.1202,-5.1202,-5.1202,-5.1202,-5.1202,-5.1202,-5.1202,-5.1202,-5.1202,-5.1202,-5.1202,-5.1202,-5.1202,-5.1202,-5.1202,-5.1202,-5.1202,-5.1202,-5.1125,-5.0717,-5.025,-4.9881,-4.9687,-4.9396,-4.8735,-4.8891,-4.8871,-4.8541,-4.8347,-4.8036,-4.7162,-4.6773,-4.6366,-4.6113,-4.5975,-4.5953,-4.5898,-4.5873,-4.5867,-4.5827,-4.58,-4.58,-4.58,-4.58,-4.5827,-4.5827,-4.5854,-4.5919,-4.5899,-4.5893,-4.6132,-4.6384,-4.6074,-4.5867,-4.5874,-4.586,-4.5847,-4.5814,-4.58,-4.58,-4.58,-4.58,-4.58,-5.2117,-5.1394,-5.1492,-5.1492,-5.1433,-5.1492,-5.1531,-5.1394,-5.1394,-5.1394,-5.1394,-5.1394,-5.1394,-5.1394,-5.1394,-5.1394,-5.1394,-5.1394,-5.1394,-5.1394,-5.1394,-5.1394,-5.1394,-5.1394,-5.1394,-5.1394,-5.1394,-5.1394,-5.1394,-5.1394,-5.1394,-5.1394,-5.1394,-5.1394,-5.1394,-5.1394,-5.1394,-5.1394,-5.1394,-5.1394,-5.1394,-5.1394,-5.1394,-5.1394,-5.1394,-5.1386,-5.1324,-5.1291,-5.1265,-5.1203,-5.121,-5.1202,-5.1202,-5.1202,-5.1202,-5.1202,-5.1202,-5.1202,-5.1202,-5.1202,-5.1202,-5.1202,-5.1202,-5.1202,-5.1202,-5.1202,-5.1202,-5.1202,-5.1202,-5.1202,-5.1202,-5.1163,-5.1066,-5.0891,-5.1027,-5.0367,-4.9473,-4.9571,-4.9998,-4.9893,-4.9843,-4.9454,-4.8599,-4.7803,-4.6968,-4.6094,-4.5975,-4.5941,-4.5905,-4.588,-4.5854,-4.5814,-4.58,-4.58,-4.58,-4.58,-4.5827,-4.5854,-4.5912,-4.5937,-4.5905,-4.5893,-4.5899,-4.5887,-4.5887,-4.586,-4.5827,-4.5814,-4.5814,-4.58,-4.58,-4.58,-4.58,-4.58,-4.58,-5.157,-5.1472,-5.2136,-5.2019,-5.157,-5.2097,-5.2019,-5.1394,-5.1394,-5.1394,-5.1394,-5.1394,-5.1394,-5.1394,-5.1394,-5.1394,-5.1394,-5.1394,-5.1394,-5.1394,-5.1394,-5.1394,-5.1394,-5.1394,-5.1394,-5.1394,-5.1394,-5.1394,-5.1394,-5.1394,-5.1394,-5.1394,-5.1394,-5.1394,-5.1394,-5.1394,-5.1394,-5.1394,-5.1394,-5.1394,-5.1394,-5.1394,-5.1394,-5.1394,-5.1394,-5.1385,-5.1371,-5.1273,-5.121,-5.1209,-5.121,-5.1202,-5.1202,-5.1202,-5.1202,-5.1202,-5.1202,-5.1202,-5.1202,-5.1202,-5.1202,-5.1202,-5.1202,-5.1202,-5.1202,-5.1202,-5.1202,-5.1202,-5.1202,-5.1202,-5.1202,-5.1202,-5.1202,-5.1202,-5.1202,-5.1066,-5.0736,-5.0755,-5.0581,-5.0134,-4.9881,-4.9337,-4.79,-4.7609,-4.6909,-4.621,-4.5975,-4.596,-4.5925,-4.5867,-4.5841,-4.58,-4.58,-4.58,-4.5814,-4.5814,-4.5854,-4.588,-4.5937,-4.5937,-4.5905,-4.5905,-4.5919,-4.5906,-4.5893,-4.586,-4.5814,-4.58,-4.58,-4.58,-4.58,-4.58,-4.58,-4.58,-4.58,-5.1765,-5.1453,-5.1902,-5.1824,-5.1531,-5.1882,-5.1824,-5.1453,-5.1394,-5.1394,-5.1394,-5.1394,-5.1394,-5.1394,-5.1394,-5.1394,-5.1394,-5.1394,-5.1394,-5.1394,-5.1394,-5.1394,-5.1394,-5.1394,-5.1394,-5.1394,-5.1394,-5.1394,-5.1394,-5.1394,-5.1394,-5.1394,-5.1394,-5.1394,-5.1394,-5.1394,-5.1394,-5.1394,-5.1394,-5.1394,-5.1394,-5.1394,-5.1394,-5.1394,-5.1398,-5.1382,-5.134,-5.1258,-5.1219,-5.121,-5.1217,-5.1202,-5.1202,-5.1202,-5.1202,-5.1202,-5.1202,-5.1202,-5.1202,-5.1202,-5.1202,-5.1202,-5.1202,-5.1202,-5.1202,-5.1202,-5.1202,-5.1202,-5.1202,-5.1202,-5.1202,-5.1202,-5.1202,-5.1202,-5.1202,-5.1202,-5.1202,-5.1202,-5.1066,-5.0503,-5.0173,-4.9318,-4.8405,-4.7609,-4.689,-4.6191,-4.5953,-4.5917,-4.5905,-4.5867,-4.5827,-4.58,-4.58,-4.58,-4.5814,-4.5822,-4.5861,-4.5905,-4.5949,-4.5937,-4.5912,-4.5912,-4.5919,-4.5906,-4.586,-4.5847,-4.58,-4.58,-4.58,-4.58,-4.58,-4.58,-4.58,-4.58,-4.58,-5.2078,-5.1414,-5.1531,-5.1531,-5.1433,-5.157,-5.157,-5.1394,-5.1394,-5.1394,-5.1394,-5.1394,-5.1394,-5.1394,-5.1394,-5.1394,-5.1394,-5.1394,-5.1394,-5.1394,-5.1394,-5.1394,-5.1394,-5.1394,-5.1394,-5.1394,-5.1394,-5.1394,-5.1394,-5.1394,-5.1394,-5.1394,-5.1394,-5.1394,-5.1394,-5.1394,-5.1394,-5.1394,-5.1394,-5.1394,-5.1394,-5.1394,-5.1394,-5.1394,-5.1375,-5.1347,-5.1294,-5.124,-5.1202,-5.1202,-5.1202,-5.1202,-5.1202,-5.1202,-5.1202,-5.1202,-5.1202,-5.1202,-5.1202,-5.1202,-5.1202,-5.1202,-5.1202,-5.1202,-5.1202,-5.1202,-5.1202,-5.1202,-5.1202,-5.1202,-5.1202,-5.1202,-5.1202,-5.1202,-5.1202,-5.1202,-5.1183,-5.1125,-5.0853,-5.0775,-5.0173,-4.9357,-4.8444,-4.7589,-4.6871,-4.6258,-4.6038,-4.5886,-4.5893,-4.5867,-4.5827,-4.58,-4.58,-4.5847,-4.5847,-4.5867,-4.5905,-4.5917,-4.596,-4.5937,-4.5899,-4.5887,-4.5874,-4.5847,-4.5814,-4.58,-4.58,-4.58,-4.58,-4.58,-4.58,-4.58,-4.58,-4.58,-4.578,-5.1531,-5.1453,-5.2195,-5.2078,-5.157,-5.2156,-5.1999,-5.1453,-5.1394,-5.1394,-5.1394,-5.1394,-5.1394,-5.1394,-5.1394,-5.1394,-5.1394,-5.1394,-5.1394,-5.1394,-5.1394,-5.1394,-5.1394,-5.1394,-5.1394,-5.1394,-5.1394,-5.1394,-5.1394,-5.1394,-5.1394,-5.1394,-5.1394,-5.1394,-5.1394,-5.1394,-5.1394,-5.1394,-5.1394,-5.1394,-5.1394,-5.1394,-5.1402,-5.1385,-5.1355,-5.1281,-5.1253,-5.1217,-5.1202,-5.1202,-5.1202,-5.1202,-5.1202,-5.1202,-5.1202,-5.1202,-5.1202,-5.1202,-5.1202,-5.1202,-5.1202,-5.1202,-5.1202,-5.1202,-5.1202,-5.1202,-5.1202,-5.1202,-5.1202,-5.1202,-5.1202,-5.1202,-5.1202,-5.1202,-5.1202,-5.1202,-5.1086,-5.0775,-5.0328,-5.027,-4.9881,-4.9337,-4.8258,-4.7365,-4.6724,-4.6208,-4.5999,-4.5905,-4.5893,-4.5854,-4.5814,-4.58,-4.58,-4.5847,-4.5893,-4.5925,-4.596,-4.5929,-4.596,-4.5917,-4.588,-4.5841,-4.5814,-4.5814,-4.58,-4.58,-4.58,-4.58,-4.58,-4.58,-4.58,-4.58,-4.5742,-4.5703,-4.5606,-5.1394,-5.1453,-5.1863,-5.1785,-5.1511,-5.1843,-5.1804,-5.1433,-5.1394,-5.1394,-5.1394,-5.1394,-5.1394,-5.1394,-5.1394,-5.1394,-5.1394,-5.1394,-5.1394,-5.1394,-5.1394,-5.1394,-5.1394,-5.1394,-5.1394,-5.1394,-5.1394,-5.1394,-5.1394,-5.1394,-5.1394,-5.1394,-5.1394,-5.1394,-5.1394,-5.1394,-5.1394,-5.1394,-5.1394,-5.1394,-5.1394,-5.1394,-5.1389,-5.1367,-5.1313,-5.1232,-5.122,-5.1202,-5.1202,-5.1202,-5.1202,-5.1202,-5.1202,-5.1202,-5.1202,-5.1202,-5.1202,-5.1202,-5.1202,-5.1202,-5.1202,-5.1202,-5.1202,-5.1202,-5.1202,-5.1202,-5.1202,-5.1202,-5.1202,-5.1202,-5.1202,-5.1202,-5.1202,-5.1202,-5.1202,-5.1202,-5.1125,-5.0775,-5.0367,-4.9804,-4.893,-4.8297,-4.7703,-4.6965,-4.648,-4.6147,-4.5949,-4.5905,-4.5893,-4.5854,-4.58,-4.5833,-4.5847,-4.5887,-4.5932,-4.5968,-4.6003,-4.5972,-4.5949,-4.5917,-4.588,-4.5841,-4.5814,-4.58,-4.58,-4.58,-4.58,-4.58,-4.58,-4.58,-4.5742,-4.5703,-4.5645,-4.5568,-4.5316,-5.1394,-5.1394,-5.1394,-5.1394,-5.1394,-5.1394,-5.1414,-5.1394,-5.1394,-5.1394,-5.1394,-5.1394,-5.1394,-5.1394,-5.1394,-5.1394,-5.1394,-5.1394,-5.1394,-5.1394,-5.1394,-5.1394,-5.1394,-5.1394,-5.1394,-5.1394,-5.1394,-5.1394,-5.1394,-5.1394,-5.1394,-5.1394,-5.1394,-5.1394,-5.1394,-5.1394,-5.1394,-5.1394,-5.1394,-5.1394,-5.1382,-5.1382,-5.1363,-5.1359,-5.1258,-5.1214,-5.1202,-5.1202,-5.1202,-5.1202,-5.1202,-5.1202,-5.1202,-5.1202,-5.1202,-5.1202,-5.1202,-5.1202,-5.1202,-5.1202,-5.1202,-5.1202,-5.1202,-5.1202,-5.1202,-5.1202,-5.1202,-5.1202,-5.1202,-5.1202,-5.1202,-5.1202,-5.1202,-5.1202,-5.1202,-5.1202,-5.1125,-5.0833,-5.0386,-4.9512,-4.8191,-4.7539,-4.7256,-4.6674,-4.6219,-4.6127,-4.5929,-4.5893,-4.5899,-4.5841,-4.5814,-4.5847,-4.5874,-4.5925,-4.5949,-4.5972,-4.5983,-4.5991,-4.5949,-4.5905,-4.5867,-4.5827,-4.5814,-4.58,-4.58,-4.58,-4.58,-4.58,-4.58,-4.5761,-4.5664,-4.549,-4.5258,-4.478,-4.4341,-5.1394,-5.1394,-5.1394,-5.1394,-5.1394,-5.1394,-5.1394,-5.1394,-5.1394,-5.1394,-5.1394,-5.1394,-5.1394,-5.1394,-5.1394,-5.1394,-5.1394,-5.1394,-5.1394,-5.1394,-5.1394,-5.1394,-5.1394,-5.1394,-5.1394,-5.1394,-5.1394,-5.1394,-5.1394,-5.1394,-5.1394,-5.1394,-5.1394,-5.1394,-5.1394,-5.1394,-5.1394,-5.1394,-5.1394,-5.1389,-5.1384,-5.1335,-5.1289,-5.1238,-5.1228,-5.1202,-5.1202,-5.1202,-5.1202,-5.1202,-5.1202,-5.1202,-5.1202,-5.1202,-5.1202,-5.1202,-5.1202,-5.1202,-5.1202,-5.1202,-5.1202,-5.1202,-5.1202,-5.1202,-5.1202,-5.1202,-5.1202,-5.1202,-5.1202,-5.1202,-5.1202,-5.1202,-5.1202,-5.1202,-5.1202,-5.1202,-5.1163,-5.095,-5.0484,-4.9668,-4.8502,-4.7784,-4.7306,-4.6607,-4.6005,-4.5972,-4.5949,-4.5912,-4.5887,-4.5847,-4.5827,-4.5874,-4.5912,-4.5949,-4.5972,-4.5994,-4.5994,-4.5983,-4.596,-4.5905,-4.588,-4.586,-4.5814,-4.58,-4.5761,-4.5645,-4.5548,-4.5568,-4.5722,-4.551,-4.5123,-4.4891,-4.4717,-4.4128,-4.339,-5.1394,-5.1394,-5.1394,-5.1394,-5.1394,-5.1394,-5.1394,-5.1394,-5.1394,-5.1394,-5.1394,-5.1394,-5.1394,-5.1394,-5.1394,-5.1394,-5.1394,-5.1394,-5.1394,-5.1394,-5.1394,-5.1394,-5.1394,-5.1394,-5.1394,-5.1394,-5.1394,-5.1394,-5.1394,-5.1394,-5.1394,-5.1394,-5.1394,-5.1394,-5.1394,-5.1394,-5.1394,-5.1394,-5.1398,-5.1394,-5.1367,-5.1328,-5.1285,-5.1219,-5.1219,-5.1206,-5.1202,-5.1202,-5.1202,-5.1202,-5.1202,-5.1202,-5.1202,-5.1202,-5.1202,-5.1202,-5.1202,-5.1202,-5.1202,-5.1202,-5.1202,-5.1202,-5.1202,-5.1202,-5.1202,-5.1202,-5.1202,-5.1202,-5.1202,-5.1202,-5.1202,-5.1202,-5.1202,-5.1202,-5.1202,-5.1202,-5.1163,-5.095,-5.0542,-4.9687,-4.8871,-4.8153,-4.7384,-4.656,-4.6033,-4.5937,-4.5925,-4.5893,-4.5887,-4.586,-4.5874,-4.588,-4.5937,-4.5972,-4.5994,-4.5997,-4.5986,-4.5994,-4.6003,-4.5949,-4.5912,-4.5887,-4.5711,-4.5504,-4.5297,-4.522,-4.5181,-4.5084,-4.5026,-4.4736,-4.4427,-4.4076,-4.3719,-4.2969,-4.2217,-5.1394,-5.1394,-5.1394,-5.1394,-5.1394,-5.1394,-5.1394,-5.1394,-5.1394,-5.1394,-5.1394,-5.1394,-5.1394,-5.1394,-5.1394,-5.1394,-5.1394,-5.1394,-5.1394,-5.1394,-5.1394,-5.1394,-5.1394,-5.1394,-5.1394,-5.1394,-5.1394,-5.1394,-5.1394,-5.1394,-5.1394,-5.1394,-5.1394,-5.1394,-5.1394,-5.1394,-5.1394,-5.1394,-5.1385,-5.1384,-5.1346,-5.131,-5.1269,-5.1232,-5.121,-5.1202,-5.1202,-5.1202,-5.1202,-5.1202,-5.1202,-5.1202,-5.1202,-5.1202,-5.1202,-5.1202,-5.1202,-5.1202,-5.1202,-5.1202,-5.1202,-5.1202,-5.1202,-5.1202,-5.1202,-5.1202,-5.1202,-5.1202,-5.1202,-5.1202,-5.1202,-5.1202,-5.1202,-5.1202,-5.1202,-5.1202,-5.1183,-5.1027,-5.0853,-5.0289,-4.9435,-4.8463,-4.7628,-4.6618,-4.61,-4.5951,-4.5887,-4.5867,-4.5867,-4.5874,-4.5912,-4.5937,-4.5953,-4.5994,-4.5986,-4.5997,-4.5997,-4.5947,-4.5956,-4.5922,-4.5854,-4.5596,-4.5338,-4.5098,-4.4775,-4.4485,-4.4272,-4.4272,-4.4253,-4.3949,-4.3593,-4.3076,-4.2533,-4.1857,-4.1299,-5.1394,-5.1394,-5.1394,-5.1394,-5.1394,-5.1394,-5.1394,-5.1394,-5.1394,-5.1394,-5.1394,-5.1394,-5.1394,-5.1394,-5.1394,-5.1394,-5.1394,-5.1394,-5.1394,-5.1394,-5.1394,-5.1394,-5.1394,-5.1394,-5.1394,-5.1394,-5.1394,-5.1394,-5.1394,-5.1394,-5.1394,-5.1394,-5.1394,-5.1394,-5.1398,-5.1402,-5.1382,-5.1391,-5.1402,-5.1346,-5.1291,-5.1249,-5.1213,-5.123,-5.1206,-5.1202,-5.1202,-5.1202,-5.1202,-5.1202,-5.1202,-5.1202,-5.1202,-5.1202,-5.1202,-5.1202,-5.1202,-5.1202,-5.1202,-5.1202,-5.1202,-5.1202,-5.1202,-5.1202,-5.1202,-5.1202,-5.1202,-5.1202,-5.1202,-5.1202,-5.1202,-5.1202,-5.1202,-5.1202,-5.1202,-5.1202,-5.1202,-5.1202,-5.1008,-5.0755,-4.9901,-4.8677,-4.7714,-4.6666,-4.6119,-4.5932,-4.5887,-4.5899,-4.5912,-4.5912,-4.5968,-4.5972,-4.5975,-4.5997,-4.5997,-4.5997,-4.5997,-4.5869,-4.577,-4.5755,-4.5725,-4.5389,-4.4718,-4.4388,-4.3993,-4.3678,-4.3297,-4.3067,-4.2922,-4.3004,-4.2724,-4.2063,-4.1644,-4.117,-4.0708,-5.1394,-5.1394,-5.1394,-5.1394,-5.1394,-5.1394,-5.1394,-5.1394,-5.1394,-5.1394,-5.1394,-5.1394,-5.1394,-5.1394,-5.1394,-5.1394,-5.1394,-5.1394,-5.1394,-5.1394,-5.1394,-5.1394,-5.1394,-5.1394,-5.1394,-5.1394,-5.1394,-5.1394,-5.1394,-5.1394,-5.1394,-5.1394,-5.1394,-5.1394,-5.1398,-5.1387,-5.1387,-5.1385,-5.1365,-5.1301,-5.1249,-5.1221,-5.1206,-5.1206,-5.1202,-5.1202,-5.1202,-5.1202,-5.1202,-5.1202,-5.1202,-5.1202,-5.1202,-5.1202,-5.1202,-5.1202,-5.1202,-5.1202,-5.1202,-5.1202,-5.1202,-5.1202,-5.1202,-5.1202,-5.1202,-5.1202,-5.1202,-5.1202,-5.1202,-5.1202,-5.1202,-5.1202,-5.1202,-5.1202,-5.1202,-5.1202,-5.1202,-5.1202,-5.0853,-5.0464,-4.9551,-4.8444,-4.7548,-4.6682,-4.6271,-4.5925,-4.5912,-4.5899,-4.5912,-4.5937,-4.5972,-4.5983,-4.5986,-4.5997,-4.5997,-4.5997,-4.5977,-4.5753,-4.5517,-4.5289,-4.5079,-4.4415,-4.3808,-4.3518,-4.3101,-4.2594,-4.2144,-4.17,-4.1681,-4.1998,-4.161,-4.0861,-4.0577,-4.0615,-4.0583,-5.1394,-5.1394,-5.1394,-5.1394,-5.1394,-5.1394,-5.1394,-5.1394,-5.1394,-5.1394,-5.1394,-5.1394,-5.1394,-5.1394,-5.1394,-5.1394,-5.1394,-5.1394,-5.1394,-5.1394,-5.1394,-5.1394,-5.1394,-5.1394,-5.1394,-5.1394,-5.1394,-5.1394,-5.1394,-5.1394,-5.1394,-5.1394,-5.1394,-5.1394,-5.1382,-5.1387,-5.1387,-5.1367,-5.1304,-5.1244,-5.1218,-5.1218,-5.1218,-5.1214,-5.1202,-5.1202,-5.1202,-5.1202,-5.1202,-5.1202,-5.1202,-5.1202,-5.1202,-5.1202,-5.1202,-5.1202,-5.1202,-5.1202,-5.1202,-5.1202,-5.1202,-5.1202,-5.1202,-5.1202,-5.1202,-5.1202,-5.1202,-5.1202,-5.1202,-5.1202,-5.1202,-5.1202,-5.1202,-5.1202,-5.1202,-5.1202,-5.1202,-5.1183,-5.0639,-5.0114,-4.9163,-4.8297,-4.742,-4.6632,-4.6201,-4.5937,-4.5956,-4.5956,-4.5956,-4.598,-4.5983,-4.6005,-4.5986,-4.5997,-4.5977,-4.5705,-4.5414,-4.5181,-4.4907,-4.4458,-4.4087,-4.3451,-4.297,-4.2676,-4.2179,-4.1524,-4.1253,-4.1149,-4.1128,-4.1178,-4.0864,-4.0727,-4.1086,-4.1254,-4.1243,-5.1394,-5.1394,-5.1394,-5.1394,-5.1394,-5.1394,-5.1394,-5.1394,-5.1394,-5.1394,-5.1394,-5.1394,-5.1394,-5.1394,-5.1394,-5.1394,-5.1394,-5.1394,-5.1394,-5.1394,-5.1394,-5.1394,-5.1394,-5.1394,-5.1394,-5.1394,-5.1394,-5.1394,-5.1394,-5.1394,-5.1394,-5.1398,-5.1402,-5.1382,-5.1402,-5.1384,-5.1387,-5.1367,-5.125,-5.1211,-5.1217,-5.1211,-5.1217,-5.1214,-5.1202,-5.1202,-5.1202,-5.1202,-5.1202,-5.1202,-5.1202,-5.1202,-5.1202,-5.1202,-5.1202,-5.1202,-5.1202,-5.1202,-5.1202,-5.1202,-5.1202,-5.1202,-5.1202,-5.1202,-5.1202,-5.1202,-5.1202,-5.1202,-5.1202,-5.1202,-5.1202,-5.1202,-5.1202,-5.1202,-5.1202,-5.1202,-5.1202,-5.1183,-5.0678,-4.9998,-4.9124,-4.8258,-4.7361,-4.6581,-4.6143,-4.5917,-4.598,-4.5991,-4.5991,-4.5983,-4.5986,-4.5986,-4.5977,-4.5763,-4.5627,-4.5181,-4.487,-4.4637,-4.4208,-4.3682,-4.3164,-4.2586,-4.217,-4.1904,-4.161,-4.1241,-4.0998,-4.0783,-4.1165,-4.1584,-4.129,-4.1226,-4.1638,-4.1905,-4.1886,-5.1394,-5.1394,-5.1394,-5.1394,-5.1394,-5.1394,-5.1394,-5.1394,-5.1394,-5.1394,-5.1394,-5.1394,-5.1394,-5.1394,-5.1394,-5.1394,-5.1394,-5.1394,-5.1394,-5.1394,-5.1394,-5.1394,-5.1394,-5.1394,-5.1394,-5.1394,-5.1394,-5.1394,-5.1394,-5.1394,-5.1394,-5.1398,-5.1396,-5.1403,-5.1386,-5.1364,-5.1328,-5.1269,-5.1237,-5.1219,-5.1219,-5.1206,-5.1202,-5.1202,-5.1202,-5.1202,-5.1202,-5.1202,-5.1202,-5.1202,-5.1202,-5.1202,-5.1202,-5.1202,-5.1202,-5.1202,-5.1202,-5.1202,-5.1202,-5.1202,-5.1202,-5.1202,-5.1202,-5.1202,-5.1202,-5.1202,-5.1202,-5.1202,-5.1202,-5.1202,-5.1202,-5.1202,-5.1202,-5.1202,-5.1202,-5.1202,-5.1202,-5.1183,-5.0853,-4.9978,-4.9124,-4.785,-4.6818,-4.6457,-4.6065,-4.5941,-4.5972,-4.5991,-4.5991,-4.5994,-4.5997,-4.5997,-4.5919,-4.5608,-4.5278,-4.4773,-4.4345,-4.4074,-4.3441,-4.2679,-4.216,-4.2047,-4.1856,-4.1822,-4.1435,-4.1073,-4.1388,-4.1688,-4.1987,-4.214,-4.2065,-4.1952,-4.219,-4.2449,-4.2543,-5.1394,-5.1394,-5.1394,-5.1394,-5.1394,-5.1394,-5.1394,-5.1394,-5.1394,-5.1394,-5.1394,-5.1394,-5.1394,-5.1394,-5.1394,-5.1394,-5.1394,-5.1394,-5.1394,-5.1394,-5.1394,-5.1394,-5.1394,-5.1394,-5.1394,-5.1394,-5.1394,-5.1394,-5.1394,-5.1394,-5.1385,-5.1396,-5.1386,-5.1365,-5.1335,-5.1279,-5.1258,-5.1222,-5.1211,-5.1214,-5.1214,-5.1202,-5.1202,-5.1202,-5.1202,-5.1202,-5.1202,-5.1202,-5.1202,-5.1202,-5.1202,-5.1202,-5.1202,-5.1202,-5.1202,-5.1202,-5.1202,-5.1202,-5.1202,-5.1202,-5.1202,-5.1202,-5.1202,-5.1202,-5.1202,-5.1202,-5.1202,-5.1202,-5.1202,-5.1202,-5.1202,-5.1202,-5.1202,-5.1202,-5.1202,-5.1202,-5.1202,-5.1183,-5.0814,-4.9959,-4.8891,-4.7578,-4.6488,-4.6255,-4.5991,-4.5972,-4.5983,-4.5983,-4.5994,-4.5986,-4.5899,-4.5802,-4.5589,-4.517,-4.4743,-4.4307,-4.3899,-4.3549,-4.2981,-4.2388,-4.2396,-4.2458,-4.2085,-4.1837,-4.1858,-4.1982,-4.2408,-4.2731,-4.2881,-4.3085,-4.3254,-4.3096,-4.2873,-4.3013,-4.3257,-5.1375,-5.1394,-5.1375,-5.1355,-5.1394,-5.1394,-5.1394,-5.1394,-5.1394,-5.1394,-5.1394,-5.1394,-5.1394,-5.1394,-5.1394,-5.1394,-5.1394,-5.1394,-5.1394,-5.1394,-5.1394,-5.1394,-5.1394,-5.1394,-5.1394,-5.1394,-5.1394,-5.1394,-5.1394,-5.1394,-5.1391,-5.1386,-5.1386,-5.133,-5.1263,-5.123,-5.1215,-5.121,-5.1219,-5.1202,-5.1202,-5.1202,-5.1202,-5.1202,-5.1202,-5.1202,-5.1202,-5.1202,-5.1202,-5.1202,-5.1202,-5.1202,-5.1202,-5.1202,-5.1202,-5.1202,-5.1202,-5.1202,-5.1202,-5.1202,-5.1202,-5.1202,-5.1202,-5.1202,-5.1202,-5.1202,-5.1202,-5.1202,-5.1202,-5.1202,-5.1202,-5.1202,-5.1202,-5.1202,-5.1202,-5.1202,-5.1202,-5.1008,-5.06,-4.9804,-4.8716,-4.7578,-4.6655,-4.6236,-4.6139,-4.6286,-4.6247,-4.5986,-4.5986,-4.5986,-4.5822,-4.5453,-4.5151,-4.4635,-4.4236,-4.4067,-4.3652,-4.3382,-4.3241,-4.2811,-4.2864,-4.2864,-4.262,-4.2487,-4.2656,-4.2905,-4.3315,-4.3521,-4.3649,-4.3839,-4.3933,-4.3951,-4.367,-4.3857,-4.3951,-5.0828,-5.1316,-5.0731,-5.0828,-5.1355,-5.1394,-5.1394,-5.1394,-5.1394,-5.1394,-5.1394,-5.1394,-5.1316,-5.1394,-5.1394,-5.1394,-5.1394,-5.1394,-5.1394,-5.1394,-5.1394,-5.1394,-5.1394,-5.1394,-5.1394,-5.1394,-5.1394,-5.1394,-5.1394,-5.1394,-5.1394,-5.1386,-5.1359,-5.1279,-5.123,-5.1211,-5.122,-5.1219,-5.1214,-5.1202,-5.1202,-5.1202,-5.1202,-5.1202,-5.1202,-5.1202,-5.1202,-5.1202,-5.1202,-5.1202,-5.1202,-5.1202,-5.1202,-5.1202,-5.1202,-5.1202,-5.1202,-5.1202,-5.1202,-5.1202,-5.1202,-5.1202,-5.1202,-5.1202,-5.1202,-5.1202,-5.1202,-5.1202,-5.1202,-5.1202,-5.1202,-5.1202,-5.1202,-5.1202,-5.1202,-5.1202,-5.1202,-5.1105,-5.0639,-4.959,-4.8502,-4.7772,-4.6849,-4.6372,-4.6324,-4.6549,-4.651,-4.6161,-4.5997,-4.5997,-4.5684,-4.5285,-4.5037,-4.4606,-4.4376,-4.4153,-4.3651,-4.3239,-4.3304,-4.3294,-4.3134,-4.312,-4.3078,-4.324,-4.3494,-4.3805,-4.4188,-4.425,-4.4129,-4.4233,-4.4327,-4.4421,-4.4496,-4.4496,-4.4271,-5.0087,-5.077,-5.034,-5.0399,-5.077,-5.0535,-5.0379,-5.0438,-5.075,-5.075,-5.0438,-5.0692,-5.0887,-5.0926,-5.118,-5.1394,-5.1394,-5.1394,-5.1394,-5.1394,-5.1336,-5.1394,-5.1394,-5.1394,-5.1394,-5.1394,-5.1394,-5.1394,-5.1398,-5.1398,-5.1386,-5.1342,-5.1293,-5.1252,-5.121,-5.1208,-5.1214,-5.1214,-5.1202,-5.1202,-5.1202,-5.1202,-5.1202,-5.1202,-5.1202,-5.1202,-5.1202,-5.1202,-5.1202,-5.1202,-5.1202,-5.1202,-5.1202,-5.1202,-5.1202,-5.1202,-5.1202,-5.1202,-5.1202,-5.1202,-5.1202,-5.1202,-5.1202,-5.1202,-5.1202,-5.1202,-5.1202,-5.1202,-5.1202,-5.1202,-5.1202,-5.1202,-5.1202,-5.1202,-5.1202,-5.1202,-5.1202,-5.1202,-5.0406,-4.9376,-4.8541,-4.785,-4.7248,-4.6771,-4.6383,-4.6344,-4.6251,-4.6041,-4.5941,-4.5975,-4.5541,-4.5021,-4.4905,-4.4717,-4.448,-4.427,-4.3987,-4.382,-4.4113,-4.402,-4.3654,-4.3643,-4.3897,-4.4123,-4.4386,-4.4542,-4.4538,-4.4495,-4.4448,-4.4496,-4.4496,-4.4496,-4.4496,-4.4496,-4.4139,-4.9208,-5.0008,-5.0008,-4.995,-4.9891,-4.9228,-4.8857,-4.8779,-4.954,-4.952,-4.9111,-4.9774,-5.0126,-5.0184,-5.0711,-5.0965,-5.0848,-5.077,-5.0731,-5.1219,-5.1102,-5.1082,-5.1141,-5.1375,-5.1394,-5.1394,-5.1394,-5.1398,-5.1394,-5.1385,-5.1363,-5.1293,-5.1245,-5.1217,-5.1208,-5.1214,-5.1202,-5.1202,-5.1202,-5.1202,-5.1202,-5.1202,-5.1202,-5.1202,-5.1202,-5.1202,-5.1202,-5.1202,-5.1202,-5.1202,-5.1202,-5.1202,-5.1202,-5.1202,-5.1202,-5.1202,-5.1202,-5.1202,-5.1202,-5.1202,-5.1202,-5.1202,-5.1202,-5.1202,-5.1202,-5.1202,-5.1202,-5.1202,-5.1202,-5.1202,-5.1202,-5.1202,-5.1202,-5.1202,-5.1202,-5.1202,-5.1202,-5.1027,-5.0367,-4.9376,-4.8619,-4.7978,-4.7675,-4.719,-4.6496,-4.6244,-4.5995,-4.586,-4.5794,-4.5861,-4.5512,-4.4954,-4.4924,-4.4829,-4.4434,-4.4287,-4.4345,-4.4423,-4.465,-4.4722,-4.4367,-4.452,-4.4795,-4.4745,-4.4663,-4.4617,-4.4613,-4.4578,-4.4524,-4.4496,-4.4496,-4.4496,-4.4496,-4.4496,-4.4327,-4.8349,-4.9091,-4.9111,-4.9111,-4.9091,-4.8896,-4.8408,-4.792,-4.8076,-4.8427,-4.8896,-4.956,-4.9677,-4.9286,-5.0028,-5.0223,-4.9774,-4.9989,-4.952,-4.9969,-5.0321,-5.0789,-5.0672,-5.1199,-5.1336,-5.1394,-5.1398,-5.1389,-5.1385,-5.1385,-5.1324,-5.1245,-5.1215,-5.122,-5.1214,-5.1202,-5.1202,-5.1202,-5.1202,-5.1202,-5.1202,-5.1202,-5.1202,-5.1202,-5.1202,-5.1202,-5.1202,-5.1202,-5.1202,-5.1202,-5.1202,-5.1202,-5.1202,-5.1202,-5.1202,-5.1202,-5.1202,-5.1202,-5.1202,-5.1202,-5.1202,-5.1202,-5.1202,-5.1202,-5.1202,-5.1202,-5.1202,-5.1202,-5.1202,-5.1202,-5.1202,-5.1202,-5.1202,-5.1202,-5.1202,-5.1202,-5.1202,-5.0755,-5.027,-4.9501,-4.8724,-4.8277,-4.7986,-4.7439,-4.6795,-4.6351,-4.6009,-4.5805,-4.561,-4.5591,-4.5555,-4.5143,-4.5131,-4.4978,-4.4535,-4.4399,-4.4512,-4.4601,-4.4779,-4.4905,-4.4995,-4.4924,-4.4846,-4.4865,-4.4796,-4.4712,-4.4632,-4.4605,-4.4578,-4.4524,-4.4496,-4.4496,-4.4496,-4.4496,-4.4439,-4.7502,-4.8185,-4.8248,-4.8252,-4.8213,-4.7861,-4.7432,-4.7081,-4.7022,-4.7276,-4.7783,-4.8525,-4.872,-4.8408,-4.915,-4.9599,-4.9189,-4.9442,-4.995,-5.0184,-5.0048,-5.0672,-5.0926,-5.1063,-5.1277,-5.1394,-5.1398,-5.1391,-5.1386,-5.1323,-5.1242,-5.1206,-5.1209,-5.121,-5.1202,-5.1202,-5.1202,-5.1202,-5.1202,-5.1202,-5.1202,-5.1202,-5.1202,-5.1202,-5.1202,-5.1202,-5.1202,-5.1202,-5.1202,-5.1202,-5.1202,-5.1202,-5.1202,-5.1202,-5.1202,-5.1202,-5.1202,-5.1202,-5.1202,-5.1202,-5.1202,-5.1202,-5.1202,-5.1202,-5.1202,-5.1202,-5.1202,-5.1202,-5.1202,-5.1202,-5.1202,-5.1202,-5.1202,-5.1202,-5.1202,-5.1202,-5.1202,-5.0989,-5.037,-4.9647,-4.8935,-4.8372,-4.7937,-4.7202,-4.6553,-4.5943,-4.568,-4.558,-4.5437,-4.5323,-4.5284,-4.5264,-4.5201,-4.5113,-4.4817,-4.4715,-4.4763,-4.4862,-4.4895,-4.4919,-4.4924,-4.4895,-4.4865,-4.4815,-4.4764,-4.4667,-4.4632,-4.4605,-4.4551,-4.4496,-4.4496,-4.4496,-4.4496,-4.4496,-4.4458,-4.6737,-4.7322,-4.7409,-4.7432,-4.7334,-4.6671,-4.6339,-4.6319,-4.6319,-4.6339,-4.6495,-4.7198,-4.7393,-4.7705,-4.8291,-4.8974,-4.9189,-4.8701,-4.9599,-5.0028,-5.036,-5.0243,-5.0496,-5.1023,-5.116,-5.1324,-5.1389,-5.1384,-5.1365,-5.1284,-5.1211,-5.1219,-5.122,-5.1202,-5.1202,-5.1202,-5.1202,-5.1202,-5.1202,-5.1202,-5.1202,-5.1202,-5.1202,-5.1202,-5.1202,-5.1202,-5.1202,-5.1202,-5.1202,-5.1202,-5.1202,-5.1202,-5.1202,-5.1202,-5.1202,-5.1202,-5.1202,-5.1202,-5.1202,-5.1202,-5.1202,-5.1202,-5.1202,-5.1202,-5.1202,-5.1202,-5.1202,-5.1202,-5.1202,-5.1202,-5.1202,-5.1202,-5.1202,-5.1163,-5.1163,-5.1008,-5.0969,-5.0887,-5.0228,-4.9504,-4.8825,-4.8237,-4.7615,-4.6854,-4.626,-4.5629,-4.5362,-4.5263,-4.5159,-4.5115,-4.509,-4.509,-4.5068,-4.4995,-4.4919,-4.4919,-4.4895,-4.4895,-4.4895,-4.4895,-4.4895,-4.4846,-4.484,-4.4764,-4.4712,-4.4632,-4.4578,-4.457,-4.4515,-4.4496,-4.4496,-4.4496,-4.4496,-4.4496,-4.4496,-4.6374,-4.653,-4.6554,-4.6554,-4.6534,-4.6378,-4.63,-4.63,-4.63,-4.63,-4.6339,-4.6378,-4.6534,-4.6593,-4.7451,-4.792,-4.7764,-4.7627,-4.7198,-4.7237,-4.874,-4.9052,-4.9442,-5.0223,-5.077,-5.0975,-5.1109,-5.1286,-5.1076,-5.1109,-5.1202,-5.1217,-5.1217,-5.1202,-5.1202,-5.1202,-5.1202,-5.1202,-5.1202,-5.1202,-5.1202,-5.1202,-5.1202,-5.1202,-5.1202,-5.1202,-5.1202,-5.1202,-5.1202,-5.1202,-5.1202,-5.1202,-5.1202,-5.1202,-5.1202,-5.1202,-5.1202,-5.1202,-5.1202,-5.1202,-5.1202,-5.1202,-5.1202,-5.1202,-5.1202,-5.1202,-5.1202,-5.1202,-5.1202,-5.1202,-5.1202,-5.1202,-5.1202,-5.1047,-5.0969,-5.0511,-5.0239,-4.9931,-4.9461,-4.862,-4.7805,-4.7332,-4.6914,-4.6263,-4.5745,-4.5323,-4.5243,-4.5135,-4.5023,-4.4948,-4.4895,-4.4943,-4.4967,-4.4943,-4.4895,-4.4895,-4.4895,-4.4895,-4.4895,-4.4895,-4.487,-4.4865,-4.4815,-4.4764,-4.4685,-4.4632,-4.457,-4.4515,-4.4515,-4.4496,-4.4496,-4.4496,-4.4496,-4.4496,-4.4496]}]]